[[{"header":{"parameterUnit":"m.s-1","parameterCategory":1,"la1":30.6,"la2":29.2853,"lo1":-89.7004,"lo2":-87.6739,"dy":0.0162,"dx":0.0183,"nx":112,"ny":82,"refTime":"2023-06-13T18:00:00:Z","depth":0,"parameterNumber":2,"parameterNumberName":"U-component_of_WINDS"},"data":[0.0,0.0,0.0,0.0,0.0,0.0,0.0,0.0,0.0,0.0,0.0,0.0,0.0,0.0,0.0,0.0,0.0,0.0,0.0,0.0,0.0,0.0,0.0,0.0,0.0,0.0,0.0,0.0,0.0,0.0,0.0,0.0,0.0,0.0,0.0,0.0,0.0,0.0,0.0,0.0,0.0,0.0,0.0,0.0,0.0,0.0,0.0,0.0,0.0,0.0,0.0,0.0,0.0,0.0,0.0,0.0,0.0,0.0,0.0,0.0,0.0,0.0,0.0,0.0,0.0,0.0,0.0,0.0,0.0,0.0,0.0,0.0,0.0,0.0,0.0,0.0,0.0,0.0,0.0,0.0,0.0,0.0,0.0,0.0,0.0,0.0,0.0,0.0,0.0,0.0,0.0,-3.5714,-3.8602,-4.0475,-4.131,-4.1603,-3.9068,-3.2637,0.0,0.0,0.0,0.0,0.0,0.0,0.0,0.0,0.0,0.0,0.0,0.0,0.0,0.0,0.0,0.0,0.0,0.0,0.0,0.0,0.0,0.0,0.0,0.0,0.0,0.0,0.0,0.0,0.0,0.0,0.0,0.0,0.0,0.0,0.0,0.0,0.0,0.0,0.0,0.0,0.0,0.0,0.0,0.0,0.0,0.0,0.0,0.0,0.0,0.0,0.0,0.0,0.0,0.0,0.0,0.0,0.0,0.0,0.0,0.0,0.0,0.0,0.0,0.0,0.0,0.0,0.0,0.0,0.0,0.0,0.0,0.0,0.0,0.0,0.0,0.0,0.0,0.0,0.0,0.0,0.0,0.0,0.0,0.0,0.0,0.0,0.0,0.0,0.0,0.0,0.0,0.0,0.0,0.0,0.0,0.0,0.0,0.0,0.0,0.0,0.0,0.0,0.0,0.0,-3.4525,-3.8259,-3.8461,-3.8376,-3.8498,-3.994,-3.8,-3.1473,0.0,0.0,0.0,0.0,0.0,0.0,0.0,0.0,0.0,0.0,0.0,0.0,0.0,0.0,0.0,0.0,0.0,0.0,0.0,0.0,0.0,0.0,0.0,0.0,0.0,0.0,0.0,0.0,0.0,0.0,0.0,0.0,0.0,0.0,0.0,0.0,0.0,0.0,0.0,0.0,0.0,0.0,0.0,0.0,0.0,0.0,0.0,0.0,0.0,0.0,0.0,0.0,0.0,0.0,0.0,0.0,0.0,0.0,0.0,0.0,0.0,0.0,0.0,0.0,0.0,0.0,0.0,0.0,0.0,0.0,0.0,0.0,0.0,0.0,0.0,0.0,0.0,0.0,0.0,0.0,0.0,0.0,0.0,0.0,0.0,0.0,0.0,0.0,0.0,0.0,0.0,0.0,0.0,0.0,0.0,0.0,0.0,0.0,0.0,0.0,0.0,0.0,0.0,-3.2891,-3.6781,-3.8475,-3.8304,-3.8272,-3.88,-3.9809,-3.773,-3.1298,-3.1351,0.0,0.0,0.0,0.0,0.0,0.0,0.0,0.0,0.0,0.0,0.0,0.0,0.0,0.0,0.0,0.0,0.0,0.0,0.0,0.0,0.0,0.0,0.0,0.0,0.0,0.0,0.0,0.0,0.0,0.0,0.0,0.0,0.0,0.0,0.0,0.0,0.0,0.0,0.0,0.0,0.0,0.0,0.0,0.0,0.0,0.0,0.0,0.0,0.0,0.0,0.0,0.0,0.0,0.0,0.0,0.0,0.0,0.0,0.0,0.0,0.0,0.0,0.0,0.0,0.0,0.0,0.0,0.0,0.0,0.0,0.0,0.0,0.0,0.0,0.0,0.0,0.0,0.0,0.0,0.0,0.0,0.0,0.0,0.0,0.0,0.0,0.0,0.0,0.0,0.0,0.0,0.0,0.0,0.0,0.0,0.0,0.0,0.0,0.0,0.0,0.0,0.0,-3.428,-3.7383,-3.807,-3.8359,-3.8792,-3.955,-4.025,-3.7904,-3.1519,-3.1293,0.0,0.0,0.0,0.0,0.0,0.0,0.0,0.0,0.0,0.0,0.0,0.0,0.0,0.0,0.0,0.0,0.0,0.0,0.0,0.0,0.0,0.0,0.0,0.0,0.0,0.0,0.0,0.0,0.0,0.0,0.0,0.0,0.0,0.0,0.0,0.0,0.0,0.0,0.0,0.0,0.0,0.0,0.0,0.0,0.0,0.0,0.0,0.0,0.0,0.0,0.0,0.0,0.0,0.0,0.0,0.0,0.0,0.0,0.0,0.0,0.0,0.0,0.0,0.0,0.0,0.0,0.0,0.0,0.0,0.0,0.0,0.0,0.0,0.0,0.0,0.0,0.0,0.0,0.0,0.0,0.0,0.0,0.0,0.0,0.0,0.0,0.0,0.0,0.0,0.0,0.0,0.0,0.0,0.0,0.0,0.0,0.0,0.0,0.0,0.0,0.0,0.0,-3.3291,-3.5618,-3.7702,-3.8869,-3.9529,-3.9577,-4.0827,-3.8696,-3.1885,-3.2328,0.0,0.0,0.0,0.0,0.0,0.0,0.0,0.0,0.0,0.0,0.0,0.0,0.0,0.0,0.0,0.0,0.0,0.0,0.0,0.0,0.0,0.0,0.0,0.0,0.0,0.0,0.0,0.0,0.0,0.0,0.0,0.0,0.0,0.0,0.0,0.0,0.0,0.0,0.0,0.0,0.0,0.0,0.0,0.0,0.0,0.0,0.0,0.0,0.0,0.0,0.0,0.0,0.0,0.0,0.0,0.0,0.0,0.0,0.0,0.0,0.0,0.0,0.0,0.0,0.0,0.0,0.0,0.0,0.0,0.0,0.0,0.0,0.0,0.0,0.0,0.0,0.0,0.0,0.0,0.0,0.0,0.0,0.0,0.0,0.0,0.0,0.0,0.0,0.0,0.0,0.0,0.0,0.0,0.0,0.0,0.0,0.0,0.0,0.0,0.0,0.0,0.0,-3.4864,-3.7593,0.0,-3.9045,-3.9284,-3.9284,-4.0328,-3.8252,-3.183,0.0,0.0,0.0,0.0,0.0,0.0,0.0,0.0,0.0,0.0,0.0,0.0,0.0,0.0,0.0,0.0,0.0,0.0,0.0,0.0,0.0,0.0,0.0,0.0,0.0,0.0,0.0,0.0,0.0,0.0,0.0,0.0,0.0,0.0,0.0,0.0,0.0,0.0,0.0,0.0,0.0,0.0,0.0,0.0,0.0,0.0,0.0,0.0,0.0,0.0,0.0,0.0,0.0,0.0,0.0,0.0,0.0,0.0,0.0,0.0,0.0,0.0,0.0,0.0,0.0,0.0,0.0,0.0,0.0,0.0,0.0,0.0,0.0,0.0,0.0,0.0,0.0,0.0,0.0,0.0,0.0,0.0,0.0,0.0,0.0,0.0,0.0,0.0,0.0,0.0,0.0,0.0,0.0,0.0,0.0,0.0,0.0,0.0,0.0,0.0,0.0,0.0,-3.1293,-3.5859,-3.9069,0.0,-3.9357,-3.9558,-3.9558,-4.0469,-3.8323,-3.1805,0.0,0.0,0.0,0.0,0.0,0.0,0.0,0.0,0.0,0.0,0.0,0.0,0.0,0.0,0.0,0.0,0.0,0.0,0.0,0.0,0.0,0.0,0.0,0.0,0.0,0.0,0.0,0.0,0.0,0.0,0.0,0.0,0.0,0.0,0.0,0.0,0.0,0.0,0.0,0.0,0.0,0.0,0.0,0.0,0.0,0.0,0.0,0.0,0.0,0.0,0.0,0.0,0.0,0.0,0.0,0.0,0.0,0.0,0.0,0.0,0.0,0.0,0.0,0.0,0.0,0.0,0.0,0.0,0.0,0.0,0.0,0.0,0.0,0.0,0.0,0.0,0.0,0.0,0.0,0.0,0.0,0.0,0.0,0.0,0.0,0.0,0.0,0.0,0.0,0.0,0.0,0.0,0.0,0.0,0.0,0.0,0.0,0.0,0.0,0.0,0.0,0.0,-3.0673,-3.5887,-3.9396,-3.8982,-3.9867,-4.0504,-4.0504,-4.1484,-3.9023,0.0,0.0,0.0,0.0,0.0,0.0,0.0,0.0,0.0,0.0,0.0,0.0,0.0,0.0,0.0,0.0,0.0,0.0,0.0,0.0,0.0,0.0,0.0,0.0,0.0,0.0,0.0,0.0,0.0,0.0,0.0,0.0,0.0,0.0,0.0,0.0,0.0,0.0,0.0,0.0,0.0,0.0,0.0,0.0,0.0,0.0,0.0,0.0,0.0,0.0,0.0,0.0,0.0,0.0,0.0,0.0,0.0,0.0,0.0,0.0,0.0,0.0,0.0,0.0,0.0,0.0,0.0,0.0,0.0,0.0,0.0,0.0,0.0,0.0,0.0,0.0,0.0,0.0,0.0,0.0,0.0,0.0,0.0,0.0,0.0,0.0,0.0,0.0,0.0,0.0,0.0,0.0,0.0,0.0,0.0,0.0,0.0,0.0,0.0,0.0,0.0,0.0,0.0,-3.1687,-3.6386,-3.9638,-3.9497,-3.9751,-3.9942,-3.9942,-4.0542,-3.8233,-3.1889,0.0,0.0,0.0,0.0,0.0,0.0,0.0,0.0,0.0,0.0,0.0,0.0,0.0,0.0,0.0,0.0,0.0,0.0,0.0,0.0,0.0,0.0,0.0,0.0,0.0,0.0,0.0,0.0,0.0,0.0,0.0,0.0,0.0,0.0,0.0,0.0,0.0,0.0,0.0,0.0,0.0,0.0,0.0,0.0,0.0,0.0,0.0,0.0,0.0,0.0,0.0,0.0,0.0,0.0,0.0,0.0,0.0,0.0,0.0,0.0,0.0,0.0,0.0,0.0,0.0,0.0,0.0,0.0,0.0,0.0,0.0,0.0,0.0,0.0,0.0,0.0,0.0,0.0,0.0,0.0,0.0,0.0,0.0,0.0,0.0,0.0,0.0,0.0,0.0,0.0,0.0,0.0,0.0,0.0,0.0,0.0,0.0,0.0,0.0,0.0,0.0,0.0,-3.1863,-3.6458,-3.9697,-3.9697,-3.9697,-3.9697,-3.9697,-4.0198,-3.8338,-3.3267,0.0,0.0,0.0,0.0,0.0,0.0,0.0,0.0,0.0,0.0,0.0,0.0,0.0,0.0,0.0,0.0,0.0,0.0,0.0,0.0,0.0,0.0,0.0,0.0,0.0,0.0,0.0,0.0,0.0,0.0,0.0,0.0,0.0,0.0,0.0,0.0,0.0,0.0,0.0,0.0,0.0,0.0,0.0,0.0,0.0,0.0,0.0,0.0,0.0,0.0,0.0,0.0,0.0,0.0,0.0,0.0,0.0,0.0,0.0,0.0,0.0,0.0,0.0,0.0,0.0,0.0,0.0,0.0,0.0,0.0,0.0,0.0,0.0,0.0,0.0,0.0,0.0,0.0,0.0,0.0,0.0,0.0,0.0,0.0,0.0,0.0,0.0,0.0,0.0,0.0,0.0,0.0,0.0,0.0,0.0,0.0,0.0,0.0,0.0,0.0,0.0,0.0,-3.1449,-3.6245,-3.9697,-3.9697,-3.9735,-3.9772,-3.9772,-4.0274,-3.9049,-3.5473,0.0,0.0,0.0,0.0,0.0,0.0,0.0,0.0,0.0,0.0,0.0,0.0,0.0,0.0,0.0,0.0,0.0,0.0,0.0,0.0,0.0,0.0,0.0,0.0,0.0,0.0,0.0,0.0,0.0,0.0,0.0,0.0,0.0,0.0,0.0,0.0,0.0,0.0,0.0,0.0,0.0,0.0,0.0,0.0,0.0,0.0,0.0,0.0,0.0,0.0,0.0,0.0,0.0,0.0,0.0,0.0,0.0,0.0,0.0,0.0,-3.1965,0.0,0.0,0.0,0.0,0.0,0.0,0.0,0.0,0.0,0.0,0.0,0.0,0.0,0.0,0.0,0.0,0.0,0.0,0.0,0.0,0.0,0.0,0.0,0.0,0.0,0.0,0.0,0.0,0.0,0.0,0.0,0.0,0.0,0.0,0.0,0.0,0.0,0.0,0.0,0.0,0.0,-3.1399,-3.6245,-3.9697,-3.9697,-4.0086,-4.0337,-4.0337,-4.0845,-3.9764,-3.6654,-3.5583,0.0,0.0,0.0,0.0,0.0,0.0,0.0,0.0,0.0,0.0,0.0,0.0,0.0,0.0,0.0,0.0,0.0,0.0,0.0,0.0,0.0,0.0,0.0,0.0,0.0,0.0,0.0,0.0,0.0,0.0,0.0,0.0,0.0,0.0,0.0,0.0,0.0,0.0,0.0,0.0,0.0,0.0,0.0,0.0,0.0,0.0,0.0,0.0,0.0,0.0,0.0,0.0,0.0,0.0,0.0,0.0,0.0,0.0,0.0,0.0,-3.1718,0.0,0.0,0.0,0.0,0.0,0.0,0.0,0.0,0.0,0.0,0.0,0.0,0.0,0.0,0.0,0.0,0.0,0.0,0.0,0.0,0.0,0.0,0.0,0.0,0.0,0.0,0.0,0.0,0.0,0.0,0.0,0.0,0.0,0.0,0.0,0.0,0.0,0.0,0.0,0.0,-3.1788,-3.6885,-4.0488,-4.0488,-4.0739,-4.0862,-4.0862,-4.1125,-4.0654,-3.907,-3.7165,0.0,0.0,0.0,0.0,0.0,0.0,0.0,0.0,0.0,0.0,0.0,0.0,0.0,0.0,0.0,0.0,0.0,0.0,0.0,0.0,0.0,0.0,0.0,0.0,0.0,0.0,0.0,0.0,0.0,0.0,0.0,0.0,0.0,0.0,0.0,0.0,0.0,0.0,0.0,0.0,0.0,0.0,0.0,0.0,0.0,0.0,0.0,0.0,0.0,0.0,0.0,0.0,0.0,0.0,-3.4849,-3.4721,-3.5305,-3.5365,-3.4933,-3.4986,-3.5234,-3.5443,0.0,0.0,0.0,0.0,0.0,0.0,0.0,0.0,0.0,0.0,0.0,0.0,0.0,0.0,0.0,0.0,0.0,0.0,0.0,0.0,0.0,0.0,0.0,0.0,0.0,-3.4402,-3.4186,0.0,0.0,0.0,0.0,0.0,0.0,0.0,0.0,0.0,0.0,0.0,0.0,-3.2215,-3.7501,-4.1288,-4.1288,-4.1363,-4.148,-4.148,-4.1568,-4.163,-4.163,-3.8944,-3.7209,0.0,0.0,0.0,0.0,0.0,0.0,0.0,0.0,0.0,0.0,0.0,0.0,0.0,0.0,0.0,0.0,0.0,0.0,0.0,0.0,0.0,0.0,0.0,0.0,0.0,0.0,0.0,0.0,0.0,0.0,0.0,0.0,-3.6083,-3.7043,0.0,0.0,0.0,0.0,0.0,0.0,0.0,0.0,0.0,0.0,0.0,0.0,0.0,0.0,-3.3945,-3.628,-3.7612,-3.7893,-3.9534,-4.0243,-4.0243,-4.037,-4.0357,-4.0187,-3.8279,0.0,-3.675,-3.6449,0.0,0.0,0.0,0.0,0.0,0.0,0.0,0.0,0.0,0.0,0.0,0.0,0.0,0.0,0.0,0.0,0.0,0.0,0.0,0.0,0.0,0.0,-3.8429,-3.8793,-3.7038,-3.5922,0.0,-3.401,-3.052,-3.3395,0.0,0.0,0.0,0.0,0.0,0.0,0.0,0.0,-3.2215,-3.7501,-4.1288,-4.1288,-4.1769,-4.2099,-4.2099,-4.2484,-4.276,-4.276,-4.1949,-4.0365,-3.7889,-3.9659,0.0,0.0,0.0,0.0,0.0,0.0,0.0,0.0,0.0,0.0,0.0,0.0,0.0,0.0,0.0,0.0,0.0,0.0,0.0,0.0,0.0,0.0,0.0,0.0,0.0,0.0,0.0,0.0,0.0,-3.5631,-3.5805,-3.7066,-3.6607,-3.533,0.0,0.0,0.0,0.0,0.0,0.0,0.0,0.0,0.0,-3.3639,-3.5482,-3.6436,-3.6371,-3.8671,-3.9939,-4.0187,-4.0945,-4.1311,-4.1311,-4.1311,-4.1311,-4.1259,-4.0252,-3.9677,-3.9324,-3.8031,-3.7312,-3.675,0.0,0.0,0.0,0.0,0.0,-3.1511,-3.061,0.0,0.0,0.0,0.0,0.0,0.0,0.0,0.0,0.0,0.0,0.0,0.0,0.0,0.0,-3.986,-3.9459,-3.9081,-4.035,-3.686,-3.3822,0.0,-3.3056,-3.057,-2.8373,0.0,0.0,0.0,0.0,0.0,-3.4537,-3.8517,-4.1288,-4.1288,-4.1555,-4.1693,-4.1693,-4.1919,-4.2195,-4.2552,-4.2338,-4.1798,-4.084,-4.1743,-4.0237,0.0,0.0,0.0,0.0,0.0,0.0,0.0,0.0,0.0,0.0,0.0,0.0,0.0,0.0,0.0,0.0,0.0,0.0,0.0,0.0,0.0,0.0,0.0,0.0,0.0,0.0,0.0,0.0,-3.5976,-3.5887,-3.7482,-3.7168,-3.6279,0.0,0.0,0.0,0.0,0.0,0.0,-3.5273,-3.5848,-3.6175,-3.6175,-3.8253,-3.9181,-3.8776,-4.0461,-4.1311,-4.1311,-4.1311,-4.1311,-4.1311,-4.1311,-4.1311,-4.1311,-4.1311,-4.1311,-4.118,-3.9481,-3.8514,-3.8031,-3.7299,-3.5691,-3.3664,-3.2518,-3.3075,-3.4221,-3.2882,-3.445,-3.6936,-3.6039,0.0,-3.4965,-3.4284,0.0,0.0,0.0,0.0,-3.3414,-3.4936,-3.6589,-3.8241,-3.991,-4.0626,-4.0862,-4.0862,-3.8517,-3.6543,0.0,-3.5341,-3.3036,-3.0145,0.0,0.0,0.0,0.0,-3.6405,-3.6405,-3.927,-4.1288,-4.1288,-4.1288,-4.1288,-4.1288,-4.1288,-4.1517,-4.1919,-4.1944,-4.2133,-4.2534,-4.2685,-4.1605,-3.912,0.0,0.0,0.0,0.0,0.0,0.0,0.0,0.0,0.0,0.0,0.0,0.0,0.0,0.0,0.0,0.0,0.0,0.0,0.0,0.0,0.0,0.0,0.0,0.0,0.0,0.0,0.0,0.0,0.0,-3.9141,-4.0383,0.0,0.0,0.0,0.0,-3.4476,-3.4894,-3.5979,-3.7639,-3.824,-3.9285,-4.0919,-4.1102,-4.1167,-4.1141,-4.1259,-4.1311,-4.1311,-4.1311,-4.1311,-4.1311,-4.1311,-4.1311,-4.1311,-4.1311,-4.1311,-4.1311,-4.1193,-4.1128,-4.0827,-3.807,-3.692,-3.6449,-3.3664,-3.4421,-3.6733,-3.6128,-3.7536,-3.9456,-3.9187,-3.7506,-3.532,-3.3469,-3.2661,0.0,0.0,-3.3844,-3.5846,-3.5562,-3.7501,-3.9597,-3.971,-3.976,-3.9772,-3.9772,-3.7977,-3.7287,0.0,-3.8417,-3.6179,-3.599,0.0,-3.506,-3.1687,-3.418,-3.6405,-3.6405,-3.927,-4.1288,-4.1288,-4.1288,-4.1288,-4.1288,-4.1288,-4.13,-4.1326,-4.1326,-4.1338,-4.1363,-4.1919,-4.2175,-4.1999,-3.9346,0.0,0.0,0.0,0.0,0.0,0.0,0.0,0.0,0.0,0.0,0.0,0.0,0.0,0.0,0.0,0.0,0.0,0.0,0.0,0.0,0.0,0.0,0.0,0.0,0.0,0.0,0.0,0.0,-3.9782,-3.9847,0.0,0.0,-3.8423,-3.807,-3.7233,-3.841,-3.9442,-4.0069,-4.0278,-4.084,-4.1834,-4.186,-4.2043,-4.2409,-4.2409,-4.2409,-4.2409,-4.2409,-4.2409,-4.2409,-4.2409,-4.2409,-4.2409,-4.2409,-4.2409,-4.2409,-4.2409,-4.1977,-4.1219,-4.0187,-3.9782,-3.9603,-3.8243,-3.8604,-3.9578,-3.8316,-3.8674,-3.9572,-3.9109,-3.8428,-3.7651,-3.7318,-3.7191,-3.7105,-3.6989,-3.7653,-3.8367,-3.8216,-3.8956,-3.9697,-3.9697,-3.9697,-3.9785,-4.0149,-3.9597,-3.9496,-4.0987,-3.8642,-3.6304,-3.5893,-3.7312,-3.75,-3.4467,-3.6596,-3.8504,-3.8504,-3.9546,-4.0275,-4.0275,-4.0275,-4.0275,-4.0275,-4.0275,-4.0438,-4.0736,-4.0814,-4.0912,-4.1275,-4.153,-4.163,-4.163,-4.0664,-3.8216,0.0,0.0,0.0,0.0,0.0,0.0,0.0,0.0,0.0,0.0,0.0,0.0,0.0,0.0,0.0,0.0,0.0,0.0,0.0,0.0,0.0,0.0,0.0,0.0,0.0,0.0,-3.7835,-4.0148,-3.9926,-3.9586,-3.9586,-3.9586,-3.9586,-3.9586,-4.084,-4.1598,-4.1598,-4.1794,-4.2069,-4.2448,-4.2461,-4.2631,-4.3023,-4.3023,-4.3023,-4.3023,-4.3219,-4.331,-4.331,-4.3506,-4.2971,-4.1925,-4.2892,-4.2644,-4.1638,-4.2618,-4.2565,-4.1886,-4.1886,-4.1886,-4.1835,-4.1478,-4.157,-4.1646,-4.0084,-3.9538,-3.9622,-3.9331,-3.9281,-3.9476,-4.0082,-4.0249,-4.0249,-4.0249,-4.0249,-4.0249,-4.0249,-4.0249,-4.0249,-4.0249,-4.0249,-4.035,-4.0714,-4.0061,-3.9785,-4.1025,-3.9559,-3.7626,-3.632,-3.7626,-3.7902,-3.5127,-3.6282,-3.7462,-3.7462,-3.8266,-3.8843,-3.8843,-3.9685,-4.0249,-4.0249,-3.9383,-3.9408,-4.0714,-3.9735,-3.9697,-4.0962,-4.0162,-3.9672,-3.962,-3.8931,-3.701,-3.3884,0.0,0.0,0.0,0.0,0.0,0.0,0.0,0.0,0.0,0.0,0.0,0.0,0.0,0.0,0.0,0.0,0.0,0.0,0.0,0.0,0.0,0.0,0.0,-3.6031,-3.7639,-3.9141,-4.0305,-4.0971,-4.135,-4.135,-4.1363,-4.1363,-4.1363,-4.1873,-4.2238,-4.2238,-4.267,-4.2944,-4.2971,-4.2984,-4.2997,-4.3023,-4.3088,-4.3127,-4.3141,-4.3689,-4.4004,-4.403,-4.4526,-4.2971,-3.9978,-4.2748,-4.2043,-3.9168,-4.1977,-4.3127,-4.3127,-4.3049,-4.3023,-4.3023,-4.3023,-4.2971,-4.2723,-4.1296,-4.0332,-3.9783,-4.0034,-4.0327,-4.0586,-4.1125,-4.1288,-4.1288,-4.1288,-4.1288,-4.1288,-4.1288,-4.1288,-4.1288,-4.1288,-4.1288,-4.13,-4.13,-3.9245,-3.814,-4.0811,-4.1338,-4.0473,-3.7776,-3.7312,-3.6408,-3.3734,-3.3375,0.0,-3.3375,-3.5667,-3.7324,-3.7337,-3.9659,-4.12,-4.1326,-3.8818,-3.8404,-4.1137,-3.8329,-3.7788,-4.0438,-3.7952,-3.6568,-3.6533,-3.4324,-3.4487,-3.7123,0.0,0.0,0.0,0.0,0.0,0.0,0.0,0.0,0.0,0.0,0.0,0.0,0.0,0.0,0.0,0.0,0.0,0.0,0.0,0.0,0.0,0.0,-3.7639,-3.7952,-3.841,-3.9298,-4.088,-4.1585,-4.1925,-4.1925,-4.2304,-4.2552,-4.2552,-4.2696,-4.2788,-4.2788,-4.1729,-4.1337,-4.1768,-4.2186,-4.2605,-4.3023,-4.4683,-4.5532,-4.5532,-4.5689,-4.5767,-4.5767,-4.5924,-4.548,-4.463,-4.5428,-4.5218,-4.4408,-4.5205,-4.5532,-4.5362,-4.3676,-4.3023,-4.3023,-4.3023,-4.2486,-4.1478,-3.9308,-3.9193,-3.9979,-4.0504,-4.0728,-4.086,-4.1184,-4.1288,-4.1288,-4.1288,-4.1288,-4.1288,-4.1288,-4.1288,-4.1288,-4.1288,-4.1288,-4.1388,-4.1844,-4.1383,-4.1182,-4.2296,-4.2522,-4.2032,-4.0463,-4.0147,-3.9948,-3.9182,-3.9069,0.0,-3.9069,-3.9735,-4.035,-4.0805,-3.932,-3.9471,-4.2283,-3.9609,-3.8969,-4.1756,-4.1119,-4.0727,-4.105,-4.0375,-3.9785,-3.9396,-3.6822,-3.5667,0.0,0.0,0.0,0.0,0.0,0.0,0.0,0.0,0.0,0.0,0.0,0.0,0.0,0.0,0.0,0.0,0.0,0.0,0.0,0.0,0.0,0.0,-3.7926,-3.9599,-4.0095,-4.0161,-4.0527,-4.1546,-4.2173,-4.2526,-4.2526,-4.2827,-4.3114,-4.3363,-4.3611,-4.3859,-4.4108,-4.3376,-4.2775,-4.2396,-4.3415,-4.3781,-4.3376,-4.5441,-4.6473,-4.6473,-4.6721,-4.6839,-4.6839,-4.7087,-4.6408,0.0,-4.6303,-4.6016,-4.4761,-4.5976,-4.6473,0.0,0.0,0.0,0.0,0.0,-4.3825,-4.2682,-4.0906,-4.0614,-4.1114,-4.1376,-4.1451,-4.1501,-4.1902,-4.1216,-4.03,-4.03,-3.9471,-3.8793,-4.0011,-4.03,-4.0588,-4.1756,-4.2032,-4.2108,-4.2489,-4.1647,-4.127,-4.2698,0.0,0.0,-4.1944,-4.1065,-3.991,-3.8693,-3.8517,-3.8517,-3.8517,-3.9584,-4.0425,-4.0805,-4.0074,-4.0526,-4.2785,-4.035,0.0,0.0,0.0,-4.0764,-3.9973,-3.9722,0.0,0.0,0.0,-3.5416,-3.6232,0.0,0.0,0.0,-3.3884,-3.2453,0.0,0.0,0.0,0.0,0.0,0.0,0.0,0.0,0.0,0.0,0.0,0.0,0.0,0.0,0.0,0.0,-3.9207,-4.0997,-4.2108,-4.2434,-4.246,-4.2329,-4.2827,-4.3219,-4.3206,-4.3323,-4.3624,-4.4134,-4.467,-4.5179,-4.5702,0.0,0.0,0.0,0.0,-4.5545,-4.4043,-4.5767,-4.6669,-4.6682,-4.7192,-4.7427,-4.7453,-4.7963,-4.6512,-4.3742,-4.6316,-4.5689,-4.3101,-4.5611,-4.6669,-4.6656,-4.6525,-4.6473,-4.6447,-4.613,-4.5653,0.0,0.0,0.0,0.0,-4.2545,-4.2489,-4.2577,-4.3024,-4.1417,-3.9433,-3.9433,-3.76,-3.6219,-3.8693,-3.9384,-4.0,-4.2396,-4.2974,-4.2974,-4.2974,-4.1053,-4.0101,-4.2497,-4.1003,-4.0163,-4.2559,-4.1006,-3.8492,-3.6019,-3.5655,-3.5655,-3.5655,-3.7814,-3.9409,-3.9472,0.0,0.0,-4.3124,-4.1028,-4.0865,-4.3627,-4.1505,-3.9735,-3.8793,-3.8228,-3.6747,-3.4293,-3.418,-3.5278,-3.7651,-3.7651,-3.917,-4.1961,-3.5491,-3.4148,0.0,0.0,0.0,0.0,0.0,0.0,0.0,0.0,0.0,0.0,0.0,0.0,0.0,0.0,0.0,-3.9534,-4.0919,-4.2069,-4.2762,-4.3663,-4.3925,-4.2971,-4.3794,-4.4421,-4.4395,-4.5258,-4.5859,-4.5963,-4.6081,-4.6199,-4.6303,-4.5075,0.0,-4.3939,-4.4657,-4.4918,-4.4658,-4.6761,-4.7858,-4.7858,0.0,0.0,-4.8028,-4.8133,-4.7819,-4.7218,-4.778,-4.7636,-4.7061,-4.7623,-4.7858,-4.7767,-4.6839,-4.6473,-4.6251,-4.3991,-4.4013,-4.4793,-4.2696,-4.2783,-4.3914,-4.4059,-4.4154,-4.4166,-4.4267,-4.3627,0.0,-4.2848,-4.2133,-4.1505,-4.2045,-4.2183,-4.2321,-4.2848,-4.2974,-4.2974,-4.2974,-4.2559,-4.2333,-4.2873,-4.2547,-4.2401,-4.2886,-4.2534,-4.2007,-4.1467,-4.1379,-4.1379,-4.1379,-4.1856,-4.2359,-4.2798,-4.094,-4.0927,-4.4041,-4.148,-4.0865,-4.3627,-4.33,-4.3112,-4.3338,-4.2811,-4.2057,-4.1078,-4.0679,-4.0438,-4.0538,-4.0538,-4.0811,-4.1467,-4.0061,-3.9998,0.0,0.0,0.0,0.0,0.0,0.0,0.0,0.0,0.0,0.0,0.0,-3.5966,0.0,0.0,-3.841,-4.0135,-4.1167,-4.2239,-4.3689,-4.4657,-4.4866,-4.399,-4.4918,-4.5624,-4.5597,-4.6133,-4.6591,-4.6891,-4.6904,-4.7035,-4.731,-4.6512,-4.5637,-4.4774,-4.5859,-4.6055,-4.5205,-4.7179,-4.8185,-4.8185,-4.8185,-4.8185,-4.8185,-4.8185,-4.8185,-4.8185,-4.8185,-4.8185,-4.8185,-4.8185,-4.8185,-4.8133,-4.7558,-4.745,-4.7433,-4.6042,-4.5922,-4.621,-4.4724,-4.4496,-4.4805,-4.4618,-4.4618,-4.4618,-4.4618,-4.3463,-4.2158,-4.2158,-4.0953,-3.9986,-4.1379,-4.1743,-4.2095,-4.3476,-4.3802,-4.3802,-4.3802,-4.3589,-4.3388,-4.3388,-4.3162,-4.2974,-4.2974,-4.2974,-4.2974,-4.2974,-4.2974,-4.2974,-4.2974,-4.2974,-4.3087,-4.3363,-4.1907,-4.1706,-4.3639,-4.2547,-4.2459,-4.4116,-4.4217,-4.433,-4.4618,-4.4355,-4.3953,-4.3401,-4.3124,-4.271,-4.2158,-4.2158,-4.2158,-4.2145,-4.1882,-4.1743,0.0,0.0,0.0,0.0,0.0,0.0,0.0,0.0,-3.6703,-3.6784,-3.705,-3.7429,-3.7913,-3.8096,-3.8815,-4.0775,-4.1494,-4.2539,-4.4643,-4.5428,-4.565,-4.5271,-4.6068,-4.6643,-4.6643,-4.6748,-4.6996,-4.7466,-4.7492,-4.7702,-4.8159,-4.8185,-4.7558,-4.6173,-4.7466,-4.7519,-4.6133,-4.7492,-4.8185,-4.8185,-4.8185,-4.8185,-4.8185,-4.8185,-4.8185,-4.8185,-4.8185,-4.8185,-4.8185,-4.8185,-4.8185,-4.8185,-4.8243,-4.8489,-4.8792,-4.8735,-4.836,-4.7824,-4.7364,-4.6649,-4.5745,-4.5282,-4.5003,-4.4957,-4.4957,-4.3325,-4.148,-4.148,-3.9785,-3.8479,-4.0727,-4.1317,-4.1869,-4.4091,-4.4618,-4.4618,-4.4618,-4.4279,-4.3966,-4.3966,-4.3601,-4.33,-4.33,-4.33,-4.3225,-4.3011,-4.2974,-4.2974,-4.2974,-4.2974,-4.2974,-4.2974,-4.2974,-4.2974,-4.2974,-4.3388,-4.3878,-4.443,-4.4468,-4.4505,-4.4618,-4.4618,-4.4418,-4.3966,-4.3966,-4.374,-4.33,-4.3187,-4.3137,-4.3124,-4.2627,-4.202,-3.8622,-3.5444,0.0,-3.5259,-3.5917,-3.6347,0.0,0.0,-4.0128,-3.9381,-4.0422,-4.1557,-4.1623,-4.2004,-4.2605,-4.3363,-4.3546,-4.4042,-4.5349,-4.6016,-4.6552,-4.6983,-4.7153,-4.7187,-4.7187,-4.7702,-4.8015,-4.8081,-4.8094,-4.812,-4.8185,-4.8185,-4.8094,-4.7911,-4.8081,-4.8094,-4.7898,-4.8094,-4.8185,-4.8185,-4.8185,-4.8185,-4.8185,-4.8185,-4.8185,-4.8185,-4.8185,-4.8185,-4.8185,-4.8185,-4.8185,-4.8243,-4.8548,-4.8779,-4.901,-4.8792,-4.8611,-4.8474,-4.8416,-4.7782,-4.7013,-4.6954,-4.6565,-4.6125,-4.6125,-4.556,-4.4932,-4.4932,-4.433,-4.3765,-4.4079,-4.4166,-4.4242,-4.4556,-4.4618,-4.4618,-4.4618,-4.4568,-4.4531,-4.4531,-4.448,-4.4443,-4.4443,-4.4443,-4.4104,-4.3124,-4.2974,-4.2974,-4.2974,-4.2974,-4.2974,-4.2974,-4.2974,-4.2974,-4.2974,-4.3037,-4.3313,-4.3865,-4.389,-4.4116,-4.4606,-4.4618,-4.4593,-4.4531,-4.4531,-4.4505,-4.443,-4.3953,-4.3714,-4.3689,-4.3137,-4.264,-4.0606,0.0,0.0,0.0,-3.8827,-3.8689,-3.9323,-4.021,-4.0945,-4.1078,-4.1714,-4.2316,-4.2605,-4.2317,-4.2435,0.0,-4.3598,-4.4016,-4.5859,-4.6617,-4.7192,-4.7767,-4.6944,-4.6286,-4.6286,-4.7466,-4.7767,-4.6774,-4.7623,-4.8185,-4.8185,-4.8185,-4.8185,-4.8185,-4.8185,-4.8185,-4.8185,-4.8185,-4.8185,-4.8185,-4.8185,-4.8185,-4.8185,-4.8185,-4.8185,-4.8185,-4.8185,-4.8185,-4.8243,-4.8431,-4.8489,-4.8548,-4.8837,-4.9125,-4.9398,-4.9284,-4.8881,-4.8347,-4.8347,-4.7645,-4.6695,-4.6695,-4.6528,-4.6313,-4.6313,-4.615,-4.5962,-4.5962,-4.5786,-4.5598,-4.5598,-4.5598,-4.5598,-4.5598,-4.5598,-4.5598,-4.5598,-4.5347,-4.5121,-4.5121,-4.4857,-4.4618,-4.4618,-4.4618,-4.4468,-4.4003,-4.3928,-4.3928,-4.3928,-4.3928,-4.3815,-4.3489,-4.3463,-4.3325,-4.2999,-4.2974,-4.3074,-4.3313,-4.3627,-4.3903,-4.4141,-4.4455,-4.4468,-4.4154,-4.4455,-4.4468,-4.4141,-4.4229,-4.4279,-4.4279,-4.4041,-4.3815,-4.1101,0.0,0.0,-4.055,-4.0561,-4.0382,-4.0805,-4.0946,-4.1266,-4.2056,-4.2291,-4.2579,-4.3154,-4.2709,0.0,-4.3912,-4.3899,-4.4382,-4.6225,-4.697,-4.7375,-4.7466,-4.6382,-4.519,-4.4278,-4.6186,-4.7166,-4.6395,-4.7479,-4.8185,-4.8185,-4.8185,-4.8185,-4.8185,-4.8185,-4.8185,-4.8185,-4.8185,-4.8185,-4.8185,-4.8185,-4.8185,-4.8185,-4.8185,-4.8185,-4.8185,-4.8185,-4.8185,-4.8243,-4.8548,-4.8677,-4.8735,-4.9125,-4.9398,-4.9626,-4.9683,-4.9156,-4.8463,-4.8463,-4.7586,-4.6528,-4.6528,-4.6421,-4.6313,-4.6313,-4.6313,-4.6313,-4.6313,-4.6313,-4.6313,-4.6313,-4.6313,-4.6313,-4.6313,-4.6313,-4.6313,-4.6313,-4.5999,-4.5711,-4.5711,-4.5372,-4.5083,-4.5083,-4.5083,-4.5083,-4.5083,-4.5083,-4.4982,-4.4669,-4.4618,-4.4468,-4.4066,-4.4028,-4.3865,-4.3463,-4.3426,-4.3426,-4.3426,-4.3815,-4.3953,-4.3815,-4.433,-4.4367,-4.3815,-4.4342,-4.443,-4.4028,-4.4279,-4.4392,-4.4392,-4.4242,-4.4166,0.0,0.0,-3.7636,-3.8658,-3.9814,-4.0735,-4.0874,-4.1097,-4.1481,-4.2043,-4.2605,-4.3167,-4.3742,-4.4278,-4.4589,-4.4696,-4.5125,-4.5767,-4.6395,-4.697,-4.6874,-4.5833,-4.565,-4.4291,0.0,-4.3689,-4.6382,-4.7989,-4.8159,-4.8185,-4.8185,-4.8185,-4.8185,-4.8185,-4.8185,-4.8185,-4.8185,-4.8185,-4.8185,-4.8185,-4.8185,-4.8185,-4.8185,-4.8185,-4.8185,-4.8185,-4.8185,-4.8185,-4.8243,-4.8548,-4.8677,-4.8735,-4.9341,-4.9569,-4.9626,-4.9897,-4.96,-4.9072,-4.9072,-4.8249,-4.7146,-4.7146,-4.6755,-4.6313,-4.6313,-4.6313,-4.6313,-4.6313,-4.6313,-4.6313,-4.6313,-4.6313,-4.6313,-4.6313,-4.6313,-4.6313,-4.6313,-4.6301,-4.6288,-4.6288,-4.6276,-4.6263,-4.6263,-4.6263,-4.6263,-4.6263,-4.6263,-4.5861,-4.4769,-4.4618,-4.4618,-4.4606,-4.4606,-4.4593,-4.4568,-4.4568,-4.4568,-4.4568,-4.4593,-4.4355,-4.3827,-4.433,-4.4367,-4.3815,-4.4342,-4.4618,-4.4593,-4.4079,-4.3827,-4.3815,-4.3275,-4.3024,0.0,0.0,-4.0237,-4.0772,-4.1775,-4.2324,-4.1392,-4.1769,-4.2381,-4.2681,-4.1964,-4.1585,-4.2565,-4.1964,-4.1703,-4.284,-4.2879,-4.3637,-4.6133,-4.5323,-4.5179,-4.71,-4.5297,0.0,0.0,0.0,0.0,-4.48,-4.6891,-4.8185,-4.8185,-4.8185,-4.8185,-4.8185,-4.8185,-4.8185,-4.8185,-4.8185,-4.8185,-4.8185,-4.8185,-4.8185,-4.8185,-4.8185,-4.8185,-4.8185,-4.8431,-4.8548,-4.8548,-4.9068,-4.9284,-4.9341,-4.974,-4.984,-4.9897,-4.9953,-4.96,-4.9014,-4.8624,-4.7925,-4.7146,-4.6755,-4.6481,-4.6313,-4.6313,-4.6313,-4.6313,-4.6313,-4.6313,-4.6313,-4.6313,-4.6313,-4.6313,-4.6313,-4.6313,-4.6421,-4.6815,-4.6921,-4.6921,-4.6921,-4.6921,-4.6755,-4.6361,-4.6313,-4.6313,-4.6313,-4.6313,-4.6175,-4.5799,-4.6079,-4.6208,-4.5826,-4.5801,-4.5648,-4.5304,-4.4863,-4.4618,-4.4618,-4.4618,-4.4543,-4.4355,-4.4518,-4.4531,-4.4355,-4.4907,-4.5196,-4.5196,-4.5372,-4.5472,-4.5447,-4.4895,-4.4644,-4.0249,-4.1288,-4.2264,-4.2488,-4.3091,-4.3491,-4.2895,-4.2936,-4.3323,-4.3787,-4.3022,-4.2129,-4.1935,-4.1128,-4.0814,-4.1716,-4.2069,-4.3219,-4.6081,-4.5545,-4.5467,-4.7087,-4.531,0.0,0.0,0.0,0.0,-4.4029,-4.6016,-4.727,-4.727,-4.727,-4.7558,-4.8159,-4.8185,-4.8185,-4.8185,-4.8185,-4.8185,-4.8185,-4.8185,-4.8185,-4.8185,-4.8185,-4.7845,-4.7296,-4.8284,-4.832,-4.7836,-4.9073,-4.9626,-4.9626,-4.9897,-5.001,-4.9953,-4.9783,-4.9415,-4.9014,-4.8682,-4.7925,-4.7146,-4.6755,-4.6481,-4.6313,-4.6313,-4.6313,-4.6313,-4.6313,-4.6313,-4.6313,-4.6313,-4.6313,-4.6313,-4.6313,-4.6481,-4.6755,-4.7146,-4.7383,-4.7573,-4.7573,-4.7573,-4.7455,-4.7078,-4.6959,-4.6959,-4.6959,-4.6959,-4.6887,-4.6648,-4.6981,-4.7182,-4.7056,-4.7018,-4.6888,-4.654,-4.591,-4.5547,-4.5547,-4.5338,-4.5133,-4.4945,-4.4932,-4.4832,-4.4618,-4.4982,-4.5183,-4.5183,-4.5535,-4.5711,-4.5698,-4.5347,-4.5183,-4.1014,-4.2653,-4.3558,-4.3603,-4.3815,-4.4279,-4.5133,-4.4616,-4.4225,-4.5227,-4.5363,-4.4384,0.0,0.0,-4.1649,-4.1246,-4.2552,-4.4251,-4.6081,-4.7257,-4.7349,0.0,0.0,0.0,0.0,0.0,0.0,-4.5637,0.0,-4.5754,-4.5754,-4.5754,-4.6499,-4.8133,-4.8185,-4.8185,-4.8185,-4.8185,-4.8185,-4.8185,-4.8185,-4.8185,-4.8185,-4.8185,-4.7296,-4.5859,-4.7837,-4.7783,-4.6467,-4.8702,-4.9626,-4.9626,-4.9897,-5.001,-4.9953,-4.9371,-4.9129,-4.9072,-4.9072,-4.8321,-4.7265,-4.7265,-4.6874,-4.6361,-4.6361,-4.6313,-4.6313,-4.6313,-4.6313,-4.6313,-4.6313,-4.6313,-4.6313,-4.6313,-4.6755,-4.7205,-4.7252,-4.7749,-4.8243,-4.8243,-4.8243,-4.8185,-4.8185,-4.8185,-4.8185,-4.8185,-4.8185,-4.7997,-4.7324,-4.7265,-4.756,-4.8185,-4.8243,-4.8243,-4.8243,-4.7632,-4.7265,-4.7205,-4.6648,-4.6075,-4.5547,-4.5535,-4.5271,-4.4719,-4.4706,-4.4706,-4.4706,-4.4706,-4.4706,-4.4706,-4.4681,-4.4669,-4.2491,-4.4058,-4.5404,-4.5001,-4.5553,-4.5967,-4.5416,-4.5666,-4.5732,-4.4757,-4.3078,-4.1128,0.0,0.0,0.0,-3.9066,-3.9743,0.0,-4.4108,-4.4421,0.0,0.0,0.0,-4.595,-4.6787,-4.727,0.0,0.0,-4.6813,-4.7532,-4.7532,-4.7532,-4.7741,-4.8172,-4.8185,-4.8185,-4.8185,-4.8185,-4.8185,-4.8185,-4.8185,-4.8185,-4.8185,-4.8185,-4.8066,-4.7973,-4.8709,-4.8872,-4.8755,-4.9538,-4.9897,-4.9897,-4.9953,-5.001,-4.9953,-4.984,-4.9486,-4.9072,-4.9072,-4.8611,-4.7938,-4.7938,-4.7514,-4.6981,-4.6981,-4.6648,-4.6313,-4.6313,-4.6313,-4.6313,-4.6313,-4.6313,-4.6313,-4.6313,-4.6755,-4.7324,-4.7821,-4.845,-4.8855,-4.8855,-4.8521,-4.8185,-4.8185,-4.8185,-4.8185,-4.8185,-4.8185,-4.8127,-4.7938,-4.8334,-4.8669,-4.8842,-4.8855,-4.8855,-4.8855,-4.8276,-4.7749,-4.7265,-4.7027,-4.6692,-4.61,-4.61,-4.6024,-4.5886,-4.5886,-4.5886,-4.5886,-4.5886,-4.5886,-4.5874,-4.546,-4.5271,-4.4196,-4.5416,-4.6417,-4.6121,-4.6475,-4.6651,-4.5922,-4.6036,-4.5815,-4.3918,-4.2464,0.0,0.0,0.0,0.0,0.0,0.0,0.0,-4.3546,-4.4042,-4.4472,0.0,-4.5568,0.0,-4.8015,-4.8185,-4.778,0.0,-4.6944,-4.7061,-4.7061,-4.7061,-4.7414,-4.8159,-4.8185,-4.8185,-4.8185,-4.8185,-4.8185,-4.8185,-4.8185,-4.8185,-4.8185,-4.8185,-4.7953,-4.7625,0.0,-4.8856,-4.8523,-4.9572,-5.001,-5.001,-5.001,-5.001,-4.9953,-4.9713,-4.92,-4.8682,-4.8682,-4.8276,-4.7808,-4.8127,-4.7586,-4.6874,-4.7146,-4.6755,-4.6313,-4.6313,-4.6313,-4.6313,-4.6313,-4.6313,-4.6361,-4.6648,-4.7172,-4.7808,-4.8463,-4.9085,-4.9486,-4.9486,-4.92,-4.8983,-4.8983,-4.8983,-4.8983,-4.8983,-4.8983,-4.8983,-4.8983,-4.9028,-4.9186,-4.9486,-4.9486,-4.9486,-4.9486,-4.8913,-4.845,-4.8075,-4.7488,-4.7027,-4.6695,-4.6421,-4.6313,-4.6313,-4.6313,-4.6313,-4.6313,-4.6313,-4.6313,-4.6301,-4.5987,-4.5849,-4.5596,-4.6388,-4.6858,-4.6991,-4.6976,-4.6867,-4.6795,-4.627,-4.5229,-4.3269,0.0,-4.1355,-3.843,0.0,-3.7919,-3.9744,0.0,-4.1755,-4.301,-4.4591,-4.5477,-4.5255,-4.548,-4.6303,-4.8015,-4.7976,-4.7937,-4.8159,-4.6813,-4.5963,-4.5963,-4.5963,-4.6656,-4.8133,-4.8185,-4.8185,-4.8185,-4.8185,-4.8185,-4.8185,-4.8185,-4.8185,-4.8185,-4.8243,-4.7591,-4.6584,0.0,0.0,-4.7514,-4.9261,-5.001,-5.001,-5.001,-5.001,-4.9953,-4.9429,-4.8855,-4.8289,-4.8289,-4.7867,-4.7442,-4.7997,-4.7421,-4.6661,-4.7159,-4.6934,-4.6421,-4.6541,-4.6481,-4.6421,-4.6541,-4.6541,-4.6648,-4.7218,-4.7808,-4.8463,-4.8957,-4.9543,-5.001,-5.001,-5.001,-5.001,-5.001,-5.001,-5.001,-5.001,-5.001,-5.001,-5.001,-4.9543,-4.9429,-4.9953,-5.001,-5.001,-5.001,-4.9543,-4.9129,-4.8957,-4.8016,-4.7324,-4.7087,-4.6648,-4.6361,-4.6313,-4.6313,-4.6313,-4.6313,-4.6313,-4.6313,-4.6313,-4.6313,-4.6313,-4.4993,-4.5565,-4.6564,-4.7496,-4.7539,-4.7728,-4.8965,-4.7511,0.0,0.0,0.0,-3.9794,-3.9131,-3.8187,0.0,-3.9949,0.0,0.0,0.0,0.0,-4.5088,0.0,0.0,0.0,0.0,0.0,0.0,0.0,0.0,0.0,-4.7741,-4.7741,-4.7871,-4.8172,-4.8185,-4.8185,-4.8185,-4.8185,-4.8185,-4.8185,-4.8185,-4.8185,-4.8185,-4.8489,-4.8621,-4.8629,0.0,0.0,-4.952,-4.9888,-5.001,-5.001,-5.001,-5.001,-5.001,-4.9897,-4.9486,-4.897,-4.897,-4.8566,-4.8055,-4.8185,-4.8068,-4.7893,-4.7997,-4.7573,-4.7159,-4.7703,-4.7455,-4.7159,-4.7716,-4.7893,-4.7893,-4.7997,-4.8508,-4.8957,-4.9072,-4.9543,-5.001,-5.001,-5.001,-5.001,-5.001,-5.001,-5.001,-5.001,-5.001,-5.001,-5.001,-4.9897,-4.9897,-5.001,-5.001,-5.001,-5.001,-4.9897,-4.9442,-4.8405,-4.8624,-4.8088,-4.6528,-4.6815,-4.6815,-4.6313,-4.6313,-4.6313,-4.6313,-4.6313,-4.6313,-4.6313,-4.6313,-4.6313,-4.5271,-4.5756,-4.6609,-4.748,-4.7848,-4.7819,-4.7036,0.0,0.0,0.0,0.0,-3.7883,-3.7863,0.0,0.0,0.0,0.0,0.0,0.0,0.0,0.0,0.0,0.0,0.0,0.0,0.0,0.0,0.0,0.0,0.0,0.0,-4.8185,-4.8185,-4.8185,-4.8185,-4.8185,-4.8185,-4.8185,-4.8185,-4.8185,-4.8373,-4.8489,-4.8489,-4.8779,-4.9068,-4.9341,0.0,0.0,-4.826,-4.9508,-4.9291,-4.8287,-4.9535,-5.001,-5.001,-5.001,-4.96,-4.9072,-4.9072,-4.8682,-4.8185,-4.8185,-4.7938,-4.7749,-4.8114,-4.7749,-4.7324,-4.7997,-4.7938,-4.7808,-4.8127,-4.8185,-4.8302,-4.8579,-4.9143,-4.9543,-4.9543,-4.9783,-5.001,-5.001,-5.001,-5.001,-5.001,-5.001,-5.001,-5.001,-5.001,-5.001,-5.001,-5.001,-5.001,-5.001,-5.001,-5.001,-5.001,-5.001,-4.9727,-4.9156,-4.8811,-4.823,-4.7303,-4.6947,-4.6588,-4.6313,-4.6313,-4.6313,-4.6313,-4.6313,-4.6313,-4.6313,-4.6313,-4.6313,-4.5713,-4.6124,-4.6814,-4.7461,-4.8108,-4.7904,-4.5321,-4.4164,0.0,0.0,-3.7071,-3.6447,-3.7015,0.0,0.0,0.0,0.0,0.0,0.0,0.0,0.0,0.0,0.0,0.0,0.0,0.0,0.0,0.0,0.0,0.0,0.0,-4.8185,-4.8185,-4.8185,-4.8185,-4.8185,-4.8185,-4.8185,-4.8185,-4.8185,-4.8548,-4.8677,-4.8735,-4.9068,-4.9341,-4.9626,0.0,0.0,0.0,-4.9033,-4.8612,-4.6713,-4.9087,-5.001,-5.001,-5.001,-4.9713,-4.9301,-4.9301,-4.897,-4.8579,-4.8405,-4.8042,-4.7736,-4.8217,-4.8042,-4.7723,-4.8405,-4.8463,-4.8405,-4.8521,-4.8592,-4.8695,-4.92,-4.9656,-5.001,-5.001,-5.001,-5.001,-5.001,-5.001,-5.001,-5.001,-5.001,-5.001,-5.001,-5.001,-5.001,-5.001,-5.001,-5.001,-5.001,-5.001,-5.001,-5.001,-5.001,-4.9953,-4.984,-4.9041,-4.8418,-4.7997,-4.7185,-4.6601,-4.6313,-4.6313,-4.6313,-4.6313,-4.6313,-4.6313,-4.6313,-4.6313,-4.6313,-4.5738,-4.6303,-4.6988,-4.7921,-4.841,-4.8403,-4.7402,0.0,0.0,-4.0188,-3.755,-3.6327,-3.8706,-3.8839,0.0,0.0,0.0,0.0,0.0,0.0,0.0,0.0,0.0,0.0,0.0,0.0,0.0,0.0,0.0,0.0,0.0,-4.8185,-4.8185,-4.8185,-4.8185,-4.8185,-4.8185,-4.8185,-4.8185,-4.8185,-4.8548,-4.8677,-4.8735,-4.9284,-4.9569,-4.9626,0.0,0.0,0.0,-4.9033,-4.8612,-4.6713,-4.9087,-5.001,-5.001,-5.001,-4.9953,-4.9897,-4.9897,-4.9897,-4.9727,-4.92,-4.8957,-4.8957,-4.9014,-4.8957,-4.9072,-4.967,-4.9429,-4.9129,-4.9656,-4.984,-4.984,-4.9897,-4.9953,-5.001,-5.001,-5.001,-5.001,-5.001,-5.001,-5.001,-5.001,-5.001,-5.001,-5.001,-5.001,-5.001,-5.001,-5.001,-5.001,-5.001,-5.001,-5.001,-5.001,-5.001,-4.9783,-4.92,-4.96,-4.9085,-4.7383,-4.7762,-4.7481,-4.6313,-4.6313,-4.6313,-4.6313,-4.6313,-4.6313,-4.6313,-4.6313,-4.6313,-4.4513,-4.5638,-4.6983,-4.7777,-4.8355,-4.8079,-4.5712,0.0,0.0,-3.8552,-3.6619,-3.5833,-3.6866,-3.7534,-3.8692,-4.1024,0.0,0.0,0.0,0.0,0.0,0.0,0.0,0.0,0.0,0.0,0.0,0.0,0.0,0.0,0.0,0.0,-4.8185,-4.8185,-4.8185,-4.8185,-4.8185,-4.8185,-4.8302,-4.8489,-4.8779,-4.9068,-4.9227,-4.9683,-4.984,-4.984,0.0,0.0,0.0,-4.8436,-4.7758,-4.4691,-4.8517,-5.001,-5.001,-5.001,-5.001,-5.001,-5.001,-5.001,-4.9953,-4.9713,-4.9656,-4.9543,-4.9186,-4.9072,-4.9257,-4.984,-4.984,-4.9713,-4.9953,-5.001,-5.001,-5.001,-5.001,-5.001,-5.001,-5.001,-5.001,-5.001,-5.001,-5.001,-5.001,-5.001,-5.001,-5.001,-5.001,-5.001,-5.001,-5.001,-5.001,-5.001,-5.001,-5.001,-5.001,-5.001,-4.9897,-4.9656,-4.9543,-4.9129,-4.8366,-4.823,-4.7762,-4.6862,-4.6874,-4.6648,-4.6313,-4.6313,-4.6313,-4.6313,-4.6313,-4.6313,-4.3527,-4.5274,-4.7216,-4.7666,-4.8018,-4.7398,0.0,0.0,0.0,-3.7212,-3.592,-3.5439,-3.5504,-3.6552,-3.8011,-3.9833,0.0,-4.3184,0.0,0.0,0.0,0.0,0.0,0.0,0.0,0.0,0.0,0.0,0.0,0.0,0.0,0.0,-4.8185,-4.8185,-4.8185,-4.8185,-4.8185,-4.8302,-4.8489,-4.8677,-4.9068,-4.898,-4.859,-4.9572,-4.963,0.0,0.0,0.0,0.0,-4.8341,-4.7622,-4.4352,-4.8422,-5.001,-5.001,-5.001,-5.001,-5.001,-5.001,-5.001,-5.001,-5.001,-5.001,-4.9897,-4.9486,-4.9371,-4.9472,-4.9897,-5.001,-5.001,-5.001,-5.001,-5.001,-5.001,-5.001,-5.001,-5.001,-5.001,-5.001,-5.001,-5.001,-5.001,-5.001,-5.001,-5.001,-5.001,-5.001,-5.001,-5.001,-5.001,-5.001,-5.001,-5.001,-5.001,-5.001,-5.001,-5.001,-5.001,-4.96,-4.9301,-4.9129,-4.8682,-4.8172,-4.7501,-4.7324,-4.6981,-4.6588,-4.6361,-4.6313,-4.6313,-4.6313,-4.6313,-4.3098,-4.5521,-4.7767,-4.7782,-4.7442,-4.6517,0.0,0.0,0.0,-3.6963,-3.5821,-3.5261,-3.5472,-3.6552,-3.8272,-4.095,-4.2269,0.0,0.0,0.0,0.0,0.0,0.0,0.0,0.0,0.0,0.0,0.0,0.0,0.0,0.0,0.0,-4.8185,-4.8185,-4.8185,-4.8185,-4.8185,-4.8548,-4.8677,-4.8735,-4.9284,-4.8333,-4.6128,-4.8814,0.0,0.0,0.0,0.0,0.0,-4.9019,-4.8599,-4.6672,-4.9074,-5.001,-5.001,-5.001,-5.001,-5.001,-5.001,-5.001,-5.001,-5.001,-5.001,-5.001,-5.001,-5.001,-5.001,-5.001,-5.001,-5.001,-5.001,-5.001,-5.001,-5.001,-5.001,-5.001,-5.001,-5.001,-5.001,-5.001,-5.001,-5.001,-5.001,-5.001,-5.001,-5.001,-5.001,-5.001,-5.001,-5.001,-5.001,-5.001,-5.001,-5.001,-5.001,-5.001,-5.001,-5.001,-5.001,-4.9713,-4.9129,-4.9072,-4.8797,-4.8185,-4.7573,-4.7205,-4.7205,-4.6588,-4.6313,-4.6313,-4.6313,-4.6313,-4.087,-4.2611,-4.4336,-4.4819,-4.4832,-4.4053,-4.1518,0.0,0.0,0.0,-3.5395,-3.5261,-3.5472,-3.6552,-3.8272,-4.095,-4.2406,0.0,0.0,0.0,0.0,0.0,0.0,0.0,0.0,0.0,0.0,0.0,0.0,0.0,0.0,0.0,0.0,-4.8185,-4.8185,-4.8185,-4.8185,-4.8548,-4.8792,-4.8952,-4.9398,-4.8444,-4.6431,-4.8869,0.0,0.0,0.0,0.0,0.0,-4.9033,-4.8612,-4.6713,-4.9087,-5.001,-5.001,-5.001,-5.001,-5.001,-5.001,-5.001,-5.001,-5.001,-5.001,-5.001,-5.001,-5.001,-5.001,-5.001,-5.001,-5.001,-5.001,-5.001,-5.001,-5.001,-5.001,-5.001,-5.001,-5.001,-5.001,-5.001,-5.001,-5.001,-5.001,-5.001,-5.001,-5.001,-5.001,-5.001,-5.001,-5.001,-5.001,-5.001,-5.001,-5.001,-5.001,-5.001,-5.001,-5.001,-5.001,-4.9897,-4.9713,-4.9713,-4.9429,-4.8855,-4.8217,-4.7632,-4.7205,-4.6588,-4.6313,-4.6313,-4.6313,-4.6313,0.0,-4.0923,-4.2386,-4.3048,-4.2666,0.0,0.0,0.0,0.0,0.0,0.0,0.0,0.0,-3.7375,-3.911,0.0,0.0,0.0,0.0,0.0,0.0,0.0,0.0,0.0,0.0,0.0,0.0,0.0,0.0,0.0,0.0,0.0,0.0,-4.9646,-4.8726,-4.8463,-4.9014,-4.9358,-4.9429,-4.9284,-5.0039,-4.9023,-4.6603,0.0,0.0,0.0,0.0,0.0,0.0,-4.9399,-4.9142,-4.7961,-4.944,-5.001,-5.0066,-5.0475,-5.0376,-5.0066,-5.0475,-5.0376,-5.001,-5.001,-5.001,-5.001,-5.001,-5.001,-5.001,-5.001,-5.001,-5.001,-5.001,-5.001,-5.001,-5.001,-5.001,-5.001,-5.001,-5.001,-5.001,-5.001,-5.001,-5.001,-5.001,-5.001,-5.001,-5.001,-5.001,-5.001,-5.001,-5.001,-5.001,-5.001,-5.001,-5.001,-5.001,-5.001,-5.001,-5.001,-5.001,-5.001,-5.001,-5.001,-4.984,-4.9429,-4.8637,-4.7997,-4.7573,-4.6708,-4.6313,-4.6313,-4.6313,-4.6313,0.0,-3.9978,0.0,0.0,0.0,0.0,0.0,0.0,0.0,0.0,0.0,0.0,0.0,0.0,0.0,0.0,0.0,0.0,0.0,0.0,0.0,0.0,0.0,0.0,0.0,0.0,0.0,0.0,0.0,0.0,0.0,0.0,0.0,0.0,-4.9759,-4.9129,-5.0559,-5.0809,-5.0463,-4.9583,-5.1071,-4.9913,-4.6553,0.0,0.0,0.0,0.0,0.0,0.0,-5.0222,-5.0222,-5.0222,-5.0222,-5.0222,-5.0376,-5.1429,-5.1169,-5.0376,-5.1375,-5.1003,-5.0123,-5.001,-5.001,-5.001,-5.001,-5.001,-5.001,-5.001,-5.001,-5.001,-5.001,-5.001,-5.001,-5.001,-5.001,-5.001,-5.001,-5.001,-5.001,-5.001,-5.001,-5.001,-5.001,-5.001,-5.001,-5.001,-5.001,-5.001,-5.001,-5.001,-5.001,-5.001,-5.001,-5.001,-5.001,-5.001,-5.001,-5.001,-5.001,-5.001,-5.001,-5.001,-5.001,-5.001,-4.8811,-4.8185,-4.8127,-4.69,-4.6313,-4.6313,-4.6313,-4.6313,-3.5807,0.0,-3.739,-3.8074,-3.7514,-3.6763,0.0,0.0,0.0,0.0,0.0,0.0,0.0,0.0,0.0,0.0,0.0,0.0,0.0,0.0,0.0,0.0,0.0,0.0,0.0,0.0,0.0,0.0,0.0,0.0,0.0,0.0,0.0,0.0,-5.1674,-5.1223,-5.2011,-5.2079,-5.1077,-4.9121,-5.1532,-5.0354,-4.6142,0.0,0.0,0.0,0.0,0.0,-5.2619,-5.2619,-5.2619,-5.2619,-5.2619,-5.2619,-5.2605,-5.2924,-5.2818,-5.2498,-5.1906,-5.1525,-5.1169,-5.0264,-5.001,-5.001,-5.001,-5.001,-5.001,-5.001,-5.001,-5.001,-5.001,-5.001,-5.001,-5.001,-5.001,-5.001,-5.001,-5.001,-5.001,-5.001,-5.001,-5.001,-5.001,-5.001,-5.001,-5.001,-5.001,-5.001,-5.001,-5.001,-5.001,-5.001,-5.001,-5.001,-5.001,-5.001,-5.001,-5.001,-5.001,-5.001,-5.001,-5.001,-5.001,-5.001,-4.8811,-4.7938,-4.7442,-4.6648,-4.6313,-4.6313,-4.6313,-4.6313,-3.4182,-3.486,-3.6043,-3.8,-3.703,-3.5876,-3.7094,0.0,0.0,0.0,0.0,0.0,0.0,0.0,0.0,0.0,0.0,0.0,0.0,0.0,0.0,0.0,0.0,0.0,0.0,0.0,0.0,0.0,0.0,0.0,0.0,0.0,0.0,0.0,0.0,-5.2804,-5.3121,-5.3107,-5.1667,-4.8958,-5.2092,-5.1367,-4.7322,0.0,0.0,0.0,0.0,0.0,-5.3312,-5.2034,-5.2288,-5.3413,-5.3413,-5.3413,-5.3466,-5.3987,-5.3504,-5.2605,-5.2498,-5.1811,-5.0795,-5.0222,-5.001,-5.0123,-5.0642,-5.0432,-5.001,-5.001,-5.001,-5.001,-5.001,-5.001,-5.001,-5.001,-5.001,-5.001,-5.001,-5.001,-5.001,-5.001,-5.001,-5.001,-5.001,-5.001,-5.001,-5.001,-5.001,-5.001,-5.001,-5.001,-5.001,-5.001,-5.001,-5.001,-5.001,-5.001,-5.001,-5.001,-5.001,-5.001,-5.001,-5.001,-4.9897,-4.96,-4.897,-4.8276,-4.7632,-4.7349,-4.7006,-4.6695,-4.6695,-4.6528,-3.3197,-3.4164,-3.6138,-3.9361,-3.763,-3.5863,-3.851,0.0,0.0,0.0,0.0,0.0,0.0,0.0,0.0,0.0,0.0,0.0,0.0,0.0,0.0,0.0,0.0,0.0,0.0,0.0,0.0,0.0,0.0,0.0,0.0,0.0,0.0,0.0,0.0,0.0,-5.4126,-5.4053,-5.2478,-4.9381,-5.2834,-5.2666,-4.9438,-5.1972,0.0,0.0,0.0,0.0,-5.3656,-5.1397,-5.1842,-5.3935,-5.3935,-5.3935,-5.4038,-5.4821,-5.3868,-5.2323,-5.2924,-5.1866,-5.0278,-5.0278,-5.039,-5.0698,-5.1702,-5.1169,-5.0278,-5.0278,-5.0109,-5.001,-5.001,-5.001,-5.001,-5.001,-5.001,-5.001,-5.001,-5.001,-5.001,-5.001,-5.001,-5.001,-5.001,-5.001,-5.001,-5.001,-5.001,-5.001,-5.001,-5.001,-5.001,-5.001,-5.001,-5.001,-5.001,-5.001,-5.001,-5.001,-5.001,-5.001,-5.001,-5.001,-4.977,-4.9257,-4.9129,-4.8855,-4.8347,-4.8243,-4.788,-4.7205,-4.7205,-4.6862,-3.3266,-3.4634,-3.6531,-3.8603,-3.7009,-3.568,-3.8474,0.0,0.0,0.0,0.0,0.0,0.0,0.0,0.0,0.0,0.0,0.0,0.0,0.0,0.0,0.0,0.0,0.0,0.0,0.0,0.0,0.0,0.0,0.0,0.0,0.0,0.0,0.0,0.0,-5.5012,-5.4976,-5.5215,-5.4029,-5.1478,-5.4138,-5.4018,-5.1523,-5.4232,-5.5501,0.0,0.0,-5.5505,-5.5903,-5.5737,-5.5911,-5.6293,-5.6293,-5.6293,-5.6179,-5.5391,-5.4872,-5.4333,-5.2591,-5.1743,-5.1429,-5.1429,-5.2068,-5.2924,-5.3097,-5.2337,-5.1429,-5.1429,-5.074,-5.001,-5.001,-5.001,-5.001,-5.001,-5.001,-5.001,-5.001,-5.001,-5.001,-5.001,-5.001,-5.001,-5.001,-5.001,-5.001,-5.001,-5.001,-5.001,-5.001,-5.001,-5.001,-5.001,-5.001,-5.001,-5.001,-5.001,-5.001,-5.001,-5.001,-5.001,-5.001,-5.001,-4.9953,-4.984,-4.9371,-4.9072,-4.8957,-4.8463,-4.788,-4.7205,-4.7205,-4.6862,-3.3407,-3.4601,-3.6716,-4.0397,-3.8769,-3.752,-4.2425,-3.9816,0.0,0.0,0.0,0.0,0.0,0.0,0.0,0.0,0.0,0.0,0.0,0.0,0.0,0.0,0.0,0.0,0.0,0.0,0.0,0.0,0.0,0.0,0.0,0.0,0.0,0.0,0.0,0.0,-5.5194,-5.5345,-5.4142,-5.171,-5.4217,-5.4082,-5.177,-5.436,-5.5631,-5.5705,0.0,-5.4883,-5.6314,-5.5082,-5.5438,-5.681,-5.681,-5.681,-5.6649,-5.5506,-5.5089,-5.4872,-5.3189,-5.2605,-5.2605,-5.2605,-5.2977,-5.3413,-5.3413,-5.2605,-5.1688,-5.1688,-5.0906,-5.001,-5.001,-5.001,-5.001,-5.001,-5.001,-5.001,-5.001,-5.001,-5.001,-5.001,-5.001,-5.001,-5.001,-5.001,-5.001,-5.001,-5.001,-5.001,-5.001,-5.001,-5.001,-5.001,-5.001,-5.001,-5.001,-5.001,-5.001,-5.001,-5.001,-5.001,-5.001,-5.001,-5.001,-5.001,-4.9713,-4.96,-4.96,-4.9328,-4.8682,-4.7749,-4.7749,-4.7231,-3.3679,-3.4711,-3.6821,-4.1339,-3.9694,-3.8781,-4.5723,-4.2058,0.0,0.0,0.0,0.0,0.0,0.0,0.0,0.0,0.0,0.0,0.0,0.0,0.0,0.0,0.0,0.0,0.0,0.0,0.0,0.0,0.0,0.0,0.0,0.0,0.0,0.0,0.0,0.0,-5.5194,-5.5194,-5.4261,-5.2395,-5.4306,-5.4216,-5.244,-5.4351,-5.5295,-5.5426,-5.357,-5.4129,-5.6155,-5.4328,-5.4837,-5.681,-5.681,-5.6649,-5.6293,-5.5391,-5.4923,-5.4552,-5.3727,-5.3556,-5.3779,-5.3779,-5.3987,-5.4193,-5.4193,-5.3384,-5.243,-5.2162,-5.1279,-5.032,-5.0066,-5.001,-5.001,-5.001,-5.001,-5.001,-5.001,-5.001,-5.001,-5.001,-5.001,-5.001,-5.001,-5.001,-5.001,-5.001,-5.001,-5.001,-5.001,-5.001,-5.001,-5.001,-5.001,-5.001,-5.001,-5.001,-5.001,-5.001,-5.001,-5.001,-5.001,-5.001,-5.001,-5.001,-5.001,-5.001,-5.001,-5.001,-4.9442,-4.8405,-4.8302,-4.7586,-3.4279,-3.5417,-3.6941,-3.9155,-3.7659,-3.7689,-4.5529,-4.1728,0.0,-4.5828,0.0,0.0,0.0,0.0,0.0,0.0,0.0,0.0,0.0,0.0,0.0,0.0,0.0,0.0,0.0,0.0,0.0,0.0,0.0,0.0,0.0,0.0,0.0,0.0,0.0,0.0,-5.5194,-5.5194,-5.5089,-5.496,-5.5089,-5.5089,-5.496,-5.5104,-5.5194,-5.5229,-5.5285,-5.5599,-5.6013,-5.6109,-5.6399,-5.681,-5.681,-5.613,-5.524,-5.514,-5.445,-5.3518,-5.3413,-5.409,-5.4973,-5.4973,-5.5705,-5.6552,-5.6552,-5.5754,-5.4603,-5.3571,-5.2445,-5.132,-5.0264,-5.001,-5.001,-5.001,-5.001,-5.001,-5.001,-5.001,-5.001,-5.001,-5.001,-5.001,-5.001,-5.001,-5.001,-5.001,-5.001,-5.001,-5.001,-5.001,-5.001,-5.001,-5.001,-5.001,-5.001,-5.001,-5.001,-5.001,-5.001,-5.001,-5.001,-5.001,-5.001,-5.001,-5.001,-5.001,-5.001,-5.001,-4.967,-4.9014,-4.8463,-4.7821,-3.4324,-3.516,-3.6851,-4.0823,-3.8646,0.0,0.0,-4.3269,-4.1474,-4.8327,-4.5873,0.0,0.0,0.0,0.0,0.0,0.0,0.0,0.0,0.0,0.0,0.0,0.0,0.0,0.0,0.0,0.0,0.0,0.0,0.0,0.0,0.0,0.0,0.0,0.0,0.0,0.0,-5.5431,-5.5531,-5.5681,-5.5531,-5.5431,-5.5431,-5.5431,-5.5431,-5.5431,-5.5546,-5.5631,-5.578,-5.6225,-5.647,-5.6567,-5.6713,-5.6552,-5.6179,-5.6179,-5.5869,-5.5506,-5.5506,-5.5819,-5.6179,-5.6179,-5.6439,-5.6664,-5.5967,-5.5456,-5.4705,-5.2857,-5.2014,-5.1429,-5.0278,-5.001,-5.001,-5.001,-5.001,-5.001,-5.001,-5.001,-5.001,-5.001,-5.001,-5.001,-5.001,-5.001,-5.001,-5.001,-5.001,-5.001,-5.001,-5.001,-5.001,-5.001,-5.001,-5.001,-5.001,-5.001,-5.001,-5.001,-5.001,-5.001,-5.001,-5.001,-5.001,-5.001,-5.001,-5.001,-5.001,-5.001,-4.9656,-4.9072,-4.8463,-4.7821,-3.4562,-3.5145,-3.6567,-4.0958,0.0,0.0,-4.5544,-4.4077,-4.2821,-4.9015,-4.7519,0.0,0.0,0.0,0.0,0.0,0.0,0.0,0.0,0.0,0.0,0.0,0.0,0.0,0.0,0.0,0.0,0.0,0.0,0.0,0.0,0.0,0.0,0.0,0.0,0.0,0.0,-5.5581,-5.5731,-5.5979,-5.588,-5.583,-5.5731,-5.5731,-5.5731,-5.5731,-5.5731,-5.5731,-5.578,-5.6225,-5.647,-5.6567,-5.6713,-5.681,-5.681,-5.681,-5.681,-5.681,-5.681,-5.681,-5.681,-5.681,-5.681,-5.6649,-5.5869,-5.5655,-5.5175,-5.2857,-5.223,-5.1906,-5.0376,-5.001,-5.001,-5.001,-5.001,-5.001,-5.001,-5.001,-5.001,-5.001,-5.001,-5.001,-5.001,-5.001,-5.001,-5.001,-5.001,-5.001,-5.001,-5.001,-5.001,-5.001,-5.001,-5.001,-5.001,-5.001,-5.001,-5.001,-5.001,-5.001,-5.001,-5.001,-5.001,-5.001,-5.001,-5.001,-5.001,-4.984,-4.9486,-4.9072,-4.8276,-4.7632,-3.5175,-3.5534,-3.6133,0.0,0.0,0.0,-4.5618,-4.3718,-4.1923,-4.7204,0.0,0.0,0.0,0.0,0.0,0.0,0.0,0.0,0.0,0.0,0.0,0.0,0.0,0.0,0.0,0.0,0.0,0.0,0.0,0.0,0.0,0.0,0.0,0.0,0.0,0.0,0.0,-5.5631,-5.5731,-5.6028,-5.6274,-5.6274,-5.5979,-5.5979,-5.5979,-5.5979,-5.5979,-5.5979,-5.6028,-5.6274,-5.6567,-5.681,-5.681,-5.681,-5.681,-5.681,-5.681,-5.681,-5.681,-5.681,-5.681,-5.681,-5.681,-5.681,-5.681,-5.681,-5.6342,-5.4038,-5.3413,-5.2886,-5.06,-5.001,-5.001,-5.001,-5.001,-5.001,-5.001,-5.001,-5.001,-5.001,-5.001,-5.001,-5.001,-5.001,-5.001,-5.001,-5.001,-5.001,-5.001,-5.001,-5.001,-5.001,-5.001,-5.001,-5.001,-5.001,-5.001,-5.001,-5.001,-5.001,-5.001,-5.001,-5.001,-5.001,-5.001,-5.001,-5.001,-4.9371,-4.9072,-4.9072,-4.7782,-4.7205,-3.7524,-3.6911,0.0,0.0,0.0,0.0,0.0,-4.3479,0.0,0.0,0.0,0.0,0.0,0.0,0.0,0.0,0.0,0.0,0.0,0.0,0.0,0.0,0.0,0.0,0.0,0.0,0.0,0.0,0.0,0.0,0.0,0.0,0.0,0.0,0.0,0.0,0.0,0.0,-5.6323,-5.6567,-5.6664,-5.6567,-5.6274,-5.6274,-5.6274,-5.6274,-5.6077,-5.5979,-5.6028,-5.6274,-5.6567,-5.681,-5.681,-5.681,-5.681,-5.681,-5.681,-5.681,-5.681,-5.681,-5.681,-5.681,-5.681,-5.681,-5.681,-5.681,-5.6488,-5.5024,-5.4038,-5.3083,-5.1593,-5.0586,-5.001,-5.001,-5.001,-5.001,-5.001,-5.001,-5.001,-5.001,-5.001,-5.001,-5.001,-5.001,-5.001,-5.001,-5.001,-5.001,-5.001,-5.001,-5.001,-5.001,-5.001,-5.001,-5.001,-5.001,-5.001,-5.001,-5.001,-5.001,-5.001,-5.001,-5.001,-5.001,-5.001,-5.001,-5.001,-4.9371,-4.9072,-4.9072,-4.7782,-4.7205,-3.8796,0.0,0.0,0.0,0.0,0.0,0.0,0.0,0.0,0.0,0.0,0.0,0.0,0.0,0.0,0.0,0.0,0.0,0.0,0.0,0.0,0.0,0.0,0.0,0.0,0.0,0.0,0.0,0.0,0.0,0.0,0.0,0.0,0.0,0.0,0.0,0.0,0.0,0.0,-5.681,-5.681,-5.6713,-5.6567,-5.6567,-5.6567,-5.6567,-5.6274,-5.6225,-5.6323,-5.6372,-5.6567,-5.681,-5.681,-5.681,-5.681,-5.681,-5.681,-5.681,-5.681,-5.681,-5.681,-5.681,-5.681,-5.681,-5.681,-5.681,-5.6439,-5.4872,-5.3935,-5.303,-5.1429,-5.0531,-5.001,-5.001,-5.001,-5.001,-5.001,-5.001,-5.001,-5.001,-5.001,-5.001,-5.001,-5.001,-5.001,-5.001,-5.001,-5.001,-5.001,-5.001,-5.001,-5.001,-5.001,-5.001,-5.001,-5.001,-5.001,-5.001,-5.001,-5.001,-5.001,-5.001,-5.001,-5.001,-5.001,-5.001,-5.001,-4.9371,-4.9072,-4.9072,-4.7782,-4.7205,0.0,0.0,0.0,0.0,0.0,0.0,0.0,0.0,0.0,0.0,0.0,0.0,0.0,0.0,0.0,0.0,0.0,0.0,0.0,0.0,0.0,0.0,0.0,0.0,0.0,0.0,0.0,0.0,0.0,0.0,0.0,0.0,0.0,0.0,0.0,0.0,0.0,0.0,0.0,0.0,-5.681,-5.681,-5.681,-5.681,-5.681,-5.6761,-5.6567,-5.6567,-5.6761,-5.6519,-5.6567,-5.681,-5.681,-5.681,-5.681,-5.681,-5.681,-5.681,-5.681,-5.681,-5.681,-5.681,-5.681,-5.681,-5.681,-5.681,-5.6342,-5.4193,-5.3571,-5.303,-5.0754,-5.0222,-5.0278,-5.0165,-5.0066,-5.001,-5.001,-5.001,-5.001,-5.001,-5.001,-5.001,-5.001,-5.001,-5.001,-5.001,-5.001,-5.001,-5.001,-5.001,-5.001,-5.001,-5.001,-5.001,-5.001,-5.001,-5.001,-5.001,-5.001,-5.001,-5.001,-5.001,-5.001,-5.001,-5.001,-5.001,-5.001,-4.9371,-4.9072,-4.9072,-4.7782,-4.7205,0.0,0.0,0.0,0.0,0.0,0.0,0.0,0.0,0.0,0.0,0.0,0.0,0.0,0.0,0.0,0.0,0.0,0.0,0.0,0.0,0.0,0.0,0.0,0.0,0.0,0.0,0.0,0.0,0.0,0.0,0.0,0.0,0.0,0.0,0.0,0.0,-5.6713,-5.6713,-5.6761,0.0,-5.681,-5.681,-5.681,-5.681,-5.681,-5.681,-5.6713,-5.6761,-5.681,-5.6713,-5.6761,-5.681,-5.681,-5.681,-5.681,-5.681,-5.681,-5.681,-5.681,-5.681,-5.681,-5.681,-5.681,-5.681,-5.681,-5.681,-5.6503,-5.5125,-5.472,-5.4193,-5.1906,-5.2028,-5.2445,-5.1539,-5.0642,-5.001,-5.001,-5.001,-5.001,-5.001,-5.001,-5.001,-5.001,-5.001,-5.001,-5.001,-5.001,-5.001,-5.001,-5.001,-5.001,-5.001,-5.001,-5.001,-5.001,-5.001,-5.001,-5.001,-5.001,-5.001,-5.001,-5.001,-5.001,-5.001,-5.001,-5.001,-5.001,-4.9371,-4.9072,-4.9072,-4.7782,-4.7205,0.0,0.0,0.0,0.0,0.0,0.0,0.0,0.0,0.0,0.0,0.0,0.0,0.0,0.0,0.0,0.0,0.0,0.0,0.0,0.0,0.0,0.0,0.0,0.0,0.0,0.0,0.0,0.0,0.0,0.0,0.0,0.0,0.0,0.0,0.0,0.0,-5.681,-5.681,-5.681,-5.681,-5.681,-5.681,-5.681,-5.681,-5.681,-5.681,-5.681,-5.681,-5.681,-5.681,-5.681,-5.681,-5.681,-5.681,-5.681,-5.681,-5.681,-5.681,-5.681,-5.681,-5.681,-5.681,-5.681,-5.681,-5.681,-5.681,-5.6552,-5.5391,-5.5089,-5.4705,-5.2963,-5.2977,-5.3241,-5.2658,-5.2082,-5.1607,-5.1607,-5.1607,-5.1607,-5.1607,-5.1607,-5.1607,-5.1607,-5.1183,-5.0642,-5.0066,-5.001,-5.001,-5.001,-5.001,-5.001,-5.001,-5.001,-5.001,-5.001,-5.001,-5.001,-5.001,-5.001,-5.001,-5.001,-5.001,-5.001,-5.001,-5.001,-5.001,-5.001,-4.9371,-4.9072,-4.9072,-4.7782,-4.7205,0.0,0.0,0.0,0.0,0.0,0.0,0.0,0.0,0.0,0.0,0.0,0.0,0.0,0.0,0.0,0.0,0.0,0.0,0.0,0.0,0.0,0.0,0.0,0.0,0.0,0.0,0.0,0.0,0.0,0.0,0.0,0.0,0.0,0.0,0.0,-5.681,-5.681,-5.681,-5.681,-5.681,-5.681,-5.681,-5.681,-5.681,-5.681,-5.681,-5.681,-5.681,-5.681,-5.681,-5.681,-5.681,-5.681,-5.681,-5.681,-5.681,-5.681,-5.681,-5.681,-5.681,-5.681,-5.681,-5.681,-5.681,-5.681,-5.681,-5.6552,-5.5391,-5.524,-5.5089,-5.3779,-5.366,-5.3935,-5.3727,-5.3816,-5.3883,-5.3466,-5.3413,-5.3413,-5.3413,-5.3241,-5.3083,-5.3083,-5.2176,-5.1114,-5.0109,-5.001,-5.001,-5.001,-5.001,-5.001,-5.001,-5.001,-5.001,-5.001,-5.001,-5.001,-5.001,-5.001,-5.001,-5.001,-5.001,-5.001,-5.001,-5.001,-5.001,-5.001,-4.9371,-4.9072,-4.9072,-4.7782,-4.7205,0.0,0.0,0.0,0.0,0.0,0.0,0.0,0.0,0.0,0.0,0.0,0.0,0.0,0.0,0.0,0.0,0.0,0.0,0.0,0.0,0.0,0.0,0.0,0.0,0.0,0.0,0.0,0.0,0.0,0.0,0.0,0.0,-5.6761,-5.681,-5.681,-5.681,-5.681,-5.681,-5.681,-5.681,-5.681,-5.681,-5.681,-5.681,-5.681,-5.681,-5.681,-5.681,-5.681,-5.681,-5.681,-5.681,-5.681,-5.681,-5.681,-5.681,-5.681,-5.681,-5.681,-5.681,-5.681,-5.681,-5.681,-5.681,-5.681,-5.681,-5.6552,-5.5391,-5.5819,-5.6081,-5.3935,-5.4872,-5.6081,-5.514,-5.5605,-5.5804,-5.3831,-5.3413,-5.3413,-5.3413,-5.2605,-5.1906,-5.1906,-5.0962,-5.0165,-5.001,-5.001,-5.001,-5.001,-5.001,-5.001,-5.001,-5.001,-5.001,-5.001,-5.001,-5.001,-5.001,-5.001,-5.001,-5.001,-5.001,-5.001,-5.001,-5.001,-5.001,-5.001,-4.9371,-4.9072,-4.9072,-4.7782,-4.7205,0.0,0.0,0.0,0.0,0.0,0.0,0.0,0.0,0.0,0.0,0.0,0.0,0.0,0.0,0.0,0.0,0.0,0.0,0.0,0.0,0.0,0.0,0.0,0.0,0.0,0.0,0.0,0.0,0.0,0.0,0.0,-5.6713,-5.681,-5.681,-5.681,0.0,-5.681,-5.681,-5.681,-5.681,-5.681,-5.681,-5.681,-5.681,-5.681,-5.681,-5.681,-5.681,-5.681,-5.681,-5.681,-5.681,-5.681,-5.681,-5.681,-5.681,-5.681,-5.681,-5.681,-5.681,-5.681,-5.681,-5.681,-5.681,-5.681,-5.681,-5.6713,-5.6179,-5.639,-5.6552,-5.5555,-5.6032,-5.6649,-5.6179,-5.6454,-5.6552,-5.5506,-5.529,-5.529,-5.529,-5.4908,-5.4333,-5.3698,-5.3174,-5.2658,-5.1974,-5.1388,-5.0962,-5.0962,-5.0376,-5.001,-5.001,-5.001,-5.001,-5.001,-5.001,-5.001,-5.001,-5.001,-5.001,-5.001,-5.001,-5.001,-5.001,-5.001,-4.984,-4.9486,-4.8913,-4.8392,-4.8016,-4.71,-4.6695,0.0,0.0,0.0,0.0,0.0,0.0,0.0,0.0,0.0,0.0,0.0,0.0,0.0,0.0,0.0,0.0,0.0,0.0,0.0,0.0,0.0,0.0,0.0,0.0,0.0,0.0,0.0,0.0,0.0,0.0,-5.681,-5.681,-5.681,-5.681,-5.681,-5.681,-5.681,-5.681,-5.681,-5.681,-5.681,-5.681,-5.681,-5.6713,-5.6713,-5.6713,-5.6761,-5.6761,-5.6713,-5.6761,-5.6761,-5.6713,-5.6761,-5.681,-5.681,-5.681,-5.681,-5.681,-5.681,-5.681,-5.681,-5.681,-5.6761,-5.6713,-5.6761,-5.6761,-5.6713,-5.6761,-5.681,-5.681,-5.681,-5.681,-5.681,-5.681,-5.681,-5.681,-5.681,-5.681,-5.681,-5.681,-5.6552,-5.6081,-5.524,-5.4872,-5.4399,-5.3518,-5.2658,-5.2122,-5.2122,-5.1114,-5.0432,-5.0432,-5.0165,-5.001,-5.001,-5.001,-5.001,-5.001,-5.001,-5.001,-5.001,-5.001,-4.9953,-4.977,-4.977,-4.9543,-4.9072,-4.8334,-4.769,-4.7205,-4.6588,-4.6313,0.0,0.0,0.0,0.0,0.0,0.0,0.0,0.0,0.0,0.0,0.0,0.0,0.0,0.0,0.0,0.0,0.0,0.0,0.0,0.0,0.0,0.0,0.0,0.0,0.0,0.0,0.0,0.0,0.0,0.0,-5.681,-5.681,-5.681,-5.681,-5.681,-5.681,-5.681,-5.681,-5.681,-5.681,-5.681,-5.681,-5.681,-5.6519,-5.6421,-5.6421,-5.6713,-5.6664,-5.6421,-5.6713,-5.6664,-5.647,-5.6713,-5.681,-5.681,-5.681,-5.681,-5.681,-5.681,-5.681,-5.681,-5.681,-5.6616,-5.647,-5.6713,-5.6616,-5.647,-5.6713,-5.681,-5.681,-5.681,-5.681,-5.681,-5.681,-5.681,-5.681,-5.681,-5.681,-5.681,-5.681,-5.5918,-5.519,-5.514,-5.4193,-5.3466,-5.3413,-5.3361,-5.3294,-5.3294,-5.2337,-5.1634,-5.1634,-5.0642,-5.001,-5.001,-5.001,-5.001,-5.001,-5.001,-5.001,-5.001,-5.001,-4.9713,-4.9129,-4.9129,-4.9129,-4.9072,-4.7854,-4.7265,-4.7205,-4.6588,-4.6313,0.0,0.0,0.0,0.0,0.0,0.0,0.0,0.0,0.0,0.0,0.0,0.0,0.0,0.0,0.0,0.0,0.0,0.0,0.0,0.0,0.0,0.0,0.0,0.0,0.0,0.0,0.0,0.0,0.0,0.0,-5.6717,-5.5114,-5.4961,-5.6748,-5.681,-5.681,-5.681,-5.681,-5.681,-5.681,-5.6616,-5.6567,-5.6519,-5.6274,-5.6127,-5.6176,-5.621,-5.6225,-5.6176,-5.6274,-5.6225,-5.6176,-5.6421,-5.6567,-5.6567,-5.6713,-5.681,-5.681,-5.681,-5.681,-5.681,-5.681,-5.6713,-5.6664,-5.6761,-5.6616,-5.6421,-5.6519,-5.6567,-5.6567,-5.6567,-5.6664,-5.681,-5.681,-5.681,-5.681,-5.681,-5.681,-5.681,-5.681,-5.6439,-5.6179,-5.6179,-5.5869,-5.5605,-5.5605,-5.4973,-5.4501,-5.4501,-5.3504,-5.2818,-5.2818,-5.2459,-5.1866,-5.1169,-5.1114,-5.0795,-5.0066,-5.001,-4.984,-4.9429,-4.9429,-4.9143,-4.8521,-4.8088,-4.7899,-4.7899,-4.7429,-4.6981,-4.6648,-4.6421,-4.6313,-3.456,0.0,0.0,0.0,0.0,0.0,0.0,0.0,0.0,0.0,0.0,0.0,0.0,0.0,0.0,0.0,0.0,0.0,0.0,0.0,0.0,0.0,0.0,0.0,0.0,0.0,0.0,0.0,0.0,0.0,-5.6717,-5.5053,-5.4899,-5.6748,-5.681,-5.681,-5.681,-5.6713,-5.6664,-5.6664,-5.6372,-5.6274,-5.6274,-5.5979,-5.588,-5.588,-5.578,-5.578,-5.588,-5.5979,-5.5929,-5.588,-5.6176,-5.6323,-5.6421,-5.6616,-5.6713,-5.681,-5.681,-5.681,-5.681,-5.681,-5.6713,-5.6664,-5.6761,-5.6567,-5.6259,-5.6372,-5.6323,-5.6274,-5.6274,-5.647,-5.6713,-5.6761,-5.681,-5.681,-5.681,-5.681,-5.681,-5.681,-5.681,-5.681,-5.681,-5.681,-5.681,-5.681,-5.6179,-5.5655,-5.5655,-5.4669,-5.3987,-5.3987,-5.3623,-5.3083,-5.2337,-5.1906,-5.1375,-5.0642,-5.0222,-4.984,-4.9429,-4.9429,-4.9143,-4.8521,-4.7867,-4.7442,-4.7205,-4.6981,-4.6695,-4.6313,-4.6313,-4.6313,0.0,0.0,0.0,0.0,0.0,0.0,0.0,0.0,0.0,0.0,0.0,0.0,0.0,0.0,0.0,0.0,0.0,0.0,0.0,0.0,0.0,0.0,0.0,0.0,0.0,0.0,0.0,0.0,0.0,-5.6733,-5.681,-5.681,-5.681,-5.681,-5.681,-5.681,-5.681,-5.6519,-5.6372,-5.6372,-5.6127,-5.5979,-5.5979,-5.5731,-5.5581,-5.5581,-5.5295,-5.5345,-5.5631,-5.588,-5.583,-5.5631,-5.588,-5.6127,-5.6372,-5.6372,-5.6567,-5.681,-5.681,-5.681,-5.681,-5.681,-5.6616,-5.647,-5.6713,-5.6421,-5.6077,-5.6323,-5.6225,-5.5979,-5.5979,-5.6225,-5.647,-5.6713,-5.681,-5.681,-5.681,-5.681,-5.681,-5.681,-5.681,-5.681,-5.681,-5.681,-5.681,-5.681,-5.681,-5.681,-5.681,-5.5819,-5.514,-5.514,-5.4142,-5.3518,-5.3466,-5.2445,-5.1797,-5.1688,-5.0642,-5.001,-4.9953,-4.9953,-4.9656,-4.9085,-4.8463,-4.788,-4.7205,-4.6588,-4.6313,-4.6313,-4.6313,-4.6313,-3.1813,0.0,0.0,0.0,0.0,0.0,0.0,0.0,0.0,0.0,0.0,0.0,0.0,0.0,0.0,0.0,0.0,0.0,0.0,0.0,0.0,0.0,0.0,0.0,0.0,0.0,0.0,0.0,0.0,-5.4684,-5.6702,-5.681,-5.681,-5.681,-5.6616,-5.6519,-5.6519,-5.621,-5.6127,-5.6127,-5.583,-5.5731,-5.5681,-5.5431,-5.5295,-5.5295,-5.5244,-5.5244,-5.5345,-5.5381,-5.5396,-5.5345,-5.5631,-5.5731,-5.588,-5.6274,-5.647,-5.6519,-5.6713,-5.681,-5.681,-5.681,-5.6761,-5.6713,-5.6761,-5.6567,-5.6274,-5.6127,-5.6077,-5.5979,-5.5979,-5.6225,-5.6421,-5.6519,-5.6664,-5.681,-5.681,-5.681,-5.681,-5.681,-5.681,-5.681,-5.681,-5.681,-5.681,-5.681,-5.681,-5.681,-5.681,-5.6503,-5.6342,-5.6342,-5.6032,-5.5555,-5.472,-5.4347,-5.3437,-5.1797,-5.1429,-5.067,-4.9415,-4.9371,-4.9085,-4.8463,-4.7808,-4.7383,-4.7205,-4.6588,-4.6313,-4.6313,-4.6313,-4.6313,-3.1641,-3.167,-3.1712,0.0,0.0,0.0,0.0,0.0,0.0,0.0,0.0,0.0,0.0,0.0,0.0,0.0,0.0,0.0,0.0,0.0,0.0,0.0,0.0,0.0,0.0,0.0,0.0,0.0,-5.5299,-5.5099,-5.6733,-5.6713,-5.6616,-5.6616,-5.6372,-5.6225,-5.6225,-5.5979,-5.583,-5.583,-5.5581,-5.5431,-5.5446,-5.5295,-5.5194,-5.5194,-5.5194,-5.5194,-5.5194,-5.5194,-5.5194,-5.5244,-5.5381,-5.5481,-5.5631,-5.6077,-5.6323,-5.6421,-5.6713,-5.6713,-5.6616,-5.6616,-5.6567,-5.647,-5.6616,-5.647,-5.6225,-5.6028,-5.583,-5.5681,-5.578,-5.5929,-5.6127,-5.6372,-5.6519,-5.6664,-5.6761,-5.681,-5.681,-5.681,-5.681,-5.681,-5.681,-5.681,-5.681,-5.681,-5.681,-5.681,-5.681,-5.681,-5.681,-5.681,-5.681,-5.6552,-5.5869,-5.5391,-5.4552,-5.3227,-5.2216,-5.1251,-5.0223,-4.9516,-4.8913,-4.8579,-4.7677,-4.7087,-4.6815,-4.6481,-4.6313,-4.6313,-4.6313,-4.6313,-3.1554,-3.1511,-3.1511,-3.1568,0.0,0.0,-3.3514,-3.7623,-4.1611,0.0,0.0,0.0,0.0,0.0,0.0,0.0,0.0,0.0,0.0,0.0,0.0,0.0,0.0,0.0,0.0,0.0,0.0,-5.681,-5.681,-5.681,-5.681,-5.6567,-5.6421,-5.6421,-5.6127,-5.5979,-5.5979,-5.5681,-5.5546,-5.5531,-5.5295,-5.5194,-5.5194,-5.5194,-5.5194,-5.5194,-5.5194,-5.5194,-5.5194,-5.5194,-5.5194,-5.5194,-5.5194,-5.5345,-5.5581,-5.588,-5.6127,-5.6372,-5.6616,-5.6567,-5.6372,-5.6372,-5.6176,-5.6028,-5.6323,-5.6225,-5.5979,-5.5979,-5.5581,-5.5229,-5.5481,-5.5581,-5.5731,-5.6225,-5.6372,-5.647,-5.6713,-5.6761,-5.681,-5.681,-5.681,-5.681,-5.681,-5.681,-5.681,-5.681,-5.681,-5.681,-5.681,-5.681,-5.681,-5.681,-5.681,-5.681,-5.681,-5.5869,-5.524,-5.514,-5.3227,-5.1946,-5.1634,-5.0111,-4.9173,-4.9014,-4.7782,-4.6921,-4.6313,-4.6313,-4.6313,-4.6313,-4.6313,-4.6313,-3.1834,-3.1626,-3.1553,0.0,0.0,0.0,-3.2471,-3.3797,0.0,0.0,0.0,0.0,0.0,0.0,0.0,0.0,0.0,0.0,0.0,0.0,0.0,0.0,0.0,0.0,0.0,0.0,-5.681,-5.681,-5.681,-5.681,-5.681,-5.6567,-5.6421,-5.6421,-5.5929,-5.5681,-5.5681,-5.5431,-5.5295,-5.5295,-5.5244,-5.5194,-5.5194,-5.5194,-5.5194,-5.5194,-5.5194,-5.5194,-5.5194,-5.5194,-5.5194,-5.5194,-5.5194,-5.5244,-5.5295,-5.5581,-5.5731,-5.578,-5.6077,-5.6127,-5.6077,-5.6077,-5.6028,-5.6028,-5.6323,-5.6225,-5.5929,-5.5731,-5.5431,-5.5194,-5.5244,-5.5431,-5.5631,-5.5731,-5.6077,-5.6421,-5.647,-5.6664,-5.681,-5.681,-5.681,-5.681,-5.681,-5.681,-5.681,-5.681,-5.681,-5.681,-5.681,-5.681,-5.681,-5.681,-5.681,-5.681,-5.681,-5.66,-5.6081,-5.514,-5.4654,-5.3384,-5.1072,-5.0643,-4.9829,-4.8405,-4.7619,-4.6921,-4.6313,-4.6313,-4.6313,-4.6313,-4.6313,-4.6313,-3.1911,-3.1568,0.0,-3.1712,0.0,0.0,0.0,-3.3772,0.0,0.0,0.0,0.0,0.0,0.0,0.0,0.0,0.0,0.0,0.0,0.0,0.0,0.0,0.0,0.0,0.0,0.0,-5.681,-5.681,-5.681,-5.681,-5.681,-5.6421,-5.6225,-5.6225,-5.5681,-5.5381,-5.5381,-5.5295,-5.5194,-5.5194,-5.5194,-5.5115,-5.49,-5.49,-5.4754,-5.4571,-5.4571,-5.4669,-5.49,-5.49,-5.5045,-5.5194,-5.5194,-5.5194,-5.5244,-5.5481,-5.5581,-5.5631,-5.5929,-5.5929,-5.578,-5.578,-5.5731,-5.5631,-5.5929,-5.5929,-5.578,-5.5631,-5.5396,-5.5194,-5.5194,-5.5295,-5.5431,-5.5581,-5.583,-5.6028,-5.6176,-5.6421,-5.6616,-5.6616,-5.6713,-5.681,-5.681,-5.681,-5.681,-5.681,-5.681,-5.681,-5.681,-5.681,-5.681,-5.681,-5.681,-5.681,-5.681,-5.681,-5.6552,-5.5967,-5.5391,-5.4333,-5.2605,-5.1085,-4.947,-4.767,-4.6513,-4.6022,-4.6314,-4.5754,-4.5761,-4.6313,-4.6313,-4.6313,0.0,0.0,0.0,0.0,0.0,-3.2086,0.0,0.0,0.0,0.0,0.0,0.0,0.0,0.0,0.0,0.0,0.0,0.0,0.0,0.0,0.0,0.0,0.0,0.0,0.0,0.0,-5.5855,-5.6378,-5.6377,-5.6328,-5.6328,-5.5829,-5.555,-5.555,-5.5055,-5.4805,-5.4805,-5.4805,-5.4805,-5.4805,-5.4855,-5.4735,-5.4405,-5.4454,-5.4235,-5.3849,-5.3849,-5.4023,-5.4356,-5.4492,-5.472,-5.5014,-5.5149,-5.5194,-5.5244,-5.5431,-5.5531,-5.5531,-5.578,-5.5681,-5.5531,-5.5531,-5.5396,-5.5295,-5.5481,-5.5581,-5.5581,-5.5531,-5.5396,-5.5194,-5.5194,-5.5194,-5.5229,-5.5481,-5.5581,-5.5631,-5.588,-5.6176,-5.6421,-5.6421,-5.6616,-5.681,-5.681,-5.681,-5.681,-5.681,-5.681,-5.681,-5.681,-5.681,-5.681,-5.681,-5.681,-5.681,-5.681,-5.681,-5.6761,-5.6649,-5.5648,-5.4693,-5.384,-5.0998,-4.8787,-4.7302,-4.5961,-4.5615,-4.6282,-4.54,-4.5317,-4.5987,-4.5987,-4.5987,0.0,0.0,0.0,0.0,-3.2481,0.0,0.0,0.0,0.0,0.0,0.0,0.0,0.0,0.0,0.0,0.0,0.0,0.0,0.0,0.0,0.0,0.0,0.0,0.0,0.0,0.0,0.0,-5.4776,-5.4773,-5.4678,-5.4678,-5.4155,-5.3881,-5.3881,-5.356,-5.3414,-5.3414,-5.3414,-5.3414,-5.3414,-5.3672,-5.3754,-5.3712,-5.3923,-5.3829,-5.364,-5.364,-5.354,-5.3402,-5.4001,-5.4251,-5.4386,-5.497,-5.5194,-5.5194,-5.5244,-5.5244,-5.5244,-5.5295,-5.5295,-5.5244,-5.5244,-5.5396,-5.5546,-5.5295,-5.5396,-5.5531,-5.5295,-5.5244,-5.5194,-5.5194,-5.5194,-5.5194,-5.5244,-5.5446,-5.5631,-5.5631,-5.6028,-5.6421,-5.6421,-5.6616,-5.681,-5.681,-5.681,-5.681,-5.681,-5.681,-5.681,-5.681,-5.681,-5.681,-5.681,-5.681,-5.681,-5.681,-5.681,-5.6552,-5.6032,-5.5372,-5.4092,-5.2009,-4.951,-4.8095,-4.7918,-4.7686,-4.7163,-4.6282,-4.6169,-4.5622,-4.4819,-4.4819,-4.4819,0.0,0.0,0.0,0.0,0.0,0.0,-3.5774,0.0,-3.2973,0.0,0.0,0.0,0.0,0.0,0.0,0.0,0.0,0.0,0.0,0.0,0.0,0.0,0.0,0.0,0.0,0.0,0.0,0.0,0.0,-5.2001,-5.2001,-5.3031,-5.3607,-5.3607,-5.3335,-5.3174,-5.3174,-5.3174,-5.3174,-5.3174,-5.3286,-5.3251,-5.3034,-5.3114,-5.295,-5.2696,-5.2696,-5.2767,-5.2873,-5.3597,-5.401,-5.4281,-5.494,-5.5194,-5.5194,-5.5194,-5.5194,-5.5194,-5.5194,-5.5194,-5.5194,-5.5194,-5.5295,-5.5345,-5.5244,-5.5295,-5.533,-5.5244,-5.5194,-5.5194,-5.5194,-5.5194,-5.5194,-5.5194,-5.5295,-5.5396,-5.5396,-5.5681,-5.5979,-5.6127,-5.6372,-5.6616,-5.6761,-5.681,-5.681,-5.681,-5.681,-5.681,-5.681,-5.681,-5.681,-5.681,-5.681,-5.681,-5.681,-5.681,-5.6383,-5.542,-5.4168,-5.2726,-5.1104,-4.9466,-4.8528,-4.8475,-4.7482,-4.6773,-4.6289,-4.5663,-4.4806,-4.3689,-4.433,-4.4618,-3.9948,0.0,0.0,0.0,0.0,0.0,0.0,0.0,0.0,0.0,0.0,0.0,0.0,0.0,-3.2662,-3.3165,0.0,0.0,0.0,0.0,0.0,0.0,0.0,0.0,0.0,0.0,0.0,0.0,-4.9185,0.0,-4.9392,-5.1635,-5.2954,-5.2954,-5.2747,-5.2636,-5.2636,-5.2636,-5.2636,-5.2636,-5.2747,-5.2587,-5.2341,-5.2388,-5.2225,-5.1895,-5.1895,-5.2028,-5.2244,-5.2954,-5.3485,-5.3997,-5.4655,-5.5029,-5.5194,-5.5194,-5.5194,-5.5194,-5.5194,-5.5194,-5.5194,-5.5194,-5.5194,-5.5194,-5.5194,-5.5194,-5.5194,-5.5194,-5.5194,-5.5194,-5.5194,-5.5194,-5.5194,-5.5194,-5.5194,-5.5194,-5.5194,-5.5396,-5.5631,-5.583,-5.6176,-5.647,-5.6664,-5.6761,-5.681,-5.681,-5.681,-5.681,-5.681,-5.681,-5.681,-5.681,-5.681,-5.681,-5.681,-5.681,-5.6135,-5.4607,-5.302,-5.1648,-5.0384,-4.96,-4.9155,-4.9053,-4.7861,-4.706,-4.675,-4.5979,-4.4886,-4.3474,-4.396,-4.4166,0.0,0.0,0.0,-4.03,0.0,0.0,0.0,0.0,-3.3774,0.0,0.0,0.0,0.0,-3.3759,-3.3227,-3.337,-3.3286,0.0,0.0,0.0,0.0,0.0,0.0,0.0,0.0,0.0,0.0,0.0,-4.6041,0.0,-4.7042,-4.9719,-5.1289,-5.1289,-5.1289,-5.1274,-5.1274,-5.1274,-5.1274,-5.1289,-5.1508,-5.1632,-5.1664,-5.1925,-5.1864,-5.1634,-5.1634,-5.1463,-5.1304,-5.1962,-5.2621,-5.3279,-5.3967,-5.4625,-5.5194,-5.5194,-5.5194,-5.5194,-5.5194,-5.5194,-5.5194,-5.5194,-5.5194,-5.5194,-5.5194,-5.5194,-5.5194,-5.5194,-5.5194,-5.5194,-5.5194,-5.5194,-5.5194,-5.5194,-5.5194,-5.5194,-5.5194,-5.5396,-5.5581,-5.5631,-5.6028,-5.6421,-5.6421,-5.6616,-5.681,-5.681,-5.681,-5.681,-5.681,-5.681,-5.681,-5.681,-5.681,-5.681,-5.681,-5.681,-5.5776,-5.3395,-5.2253,-5.1048,-4.9785,-4.9712,-4.9698,-4.9649,-4.9634,-4.905,-4.7971,-4.792,-4.6764,-4.4629,-4.3543,-4.3024,0.0,0.0,-4.8193,-4.6862,0.0,0.0,0.0,0.0,0.0,0.0,0.0,0.0,0.0,-3.4091,-3.374,-3.3665,-3.3784,-3.3857,0.0,0.0,0.0,0.0,0.0,0.0,0.0,0.0,0.0,-4.0274,-4.0938,-4.1131,0.0,-4.5353,-4.7938,-4.7938,-5.0092,-5.1214,-5.1214,-5.1214,-5.1214,-5.1214,-5.1308,-5.1354,-5.1354,-5.1416,-5.1416,-5.1354,-5.1354,-5.1261,-5.1274,-5.1932,-5.2591,-5.3249,-5.3937,-5.461,-5.5194,-5.5194,-5.5194,-5.5194,-5.5194,-5.5194,-5.5194,-5.5194,-5.5194,-5.5194,-5.5194,-5.5194,-5.5194,-5.5194,-5.5194,-5.5194,-5.5194,-5.5194,-5.5194,-5.5194,-5.5194,-5.5194,-5.5194,-5.5295,-5.5396,-5.5581,-5.5731,-5.5979,-5.6323,-5.647,-5.6616,-5.6761,-5.681,-5.681,-5.681,-5.681,-5.681,-5.681,-5.681,-5.681,-5.681,-5.6089,-5.5132,-5.3946,-5.2423,-5.1169,-5.04,-4.9964,-4.9717,-4.9717,-4.9717,-4.8788,-4.6854,-4.6854,-4.5767,-4.3572,-4.3197,-4.2974,-5.1424,-5.2007,0.0,-5.048,-4.8596,0.0,-4.5559,0.0,0.0,0.0,0.0,0.0,0.0,-3.6733,-3.5967,-3.4741,-3.4258,-3.3862,0.0,-3.2965,0.0,0.0,0.0,0.0,0.0,0.0,-3.6242,-3.6747,-3.7661,-3.7945,0.0,0.0,-4.6279,-4.6279,-4.9508,-5.1214,-5.1214,-5.1214,-5.1214,-5.1214,-5.1214,-5.1214,-5.1214,-5.1214,-5.1214,-5.1214,-5.1214,-5.1214,-5.1244,-5.1678,-5.2381,-5.3219,-5.3668,-5.4401,-5.5194,-5.5194,-5.5194,-5.5194,-5.5194,-5.5194,-5.5194,-5.5194,-5.5194,-5.5194,-5.5194,-5.5194,-5.5194,-5.5194,-5.5194,-5.5194,-5.5194,-5.5194,-5.5194,-5.5194,-5.5194,-5.5194,-5.5194,-5.5194,-5.5244,-5.5431,-5.5531,-5.5731,-5.6077,-5.6176,-5.6372,-5.6761,-5.681,-5.681,-5.681,-5.681,-5.681,-5.681,-5.6579,-5.6328,-5.6135,-5.5451,-5.4699,-5.3978,-5.2407,-5.1286,-5.0734,-5.0081,-4.9567,-4.9349,-4.9553,-4.8886,-4.7151,-4.7015,-4.5965,-4.418,-4.3768,-4.3406]},{"header":{"parameterUnit":"m.s-1","parameterCategory":1,"la1":30.6,"la2":29.2853,"lo1":-89.7004,"lo2":-87.6739,"dy":0.0162,"dx":0.0183,"nx":112,"ny":82,"refTime":"2023-06-13T18:00:00:Z","depth":0,"parameterNumber":3,"parameterNumberName":"V-component_of_WINDS"},"data":[0.0,0.0,0.0,0.0,0.0,0.0,0.0,0.0,0.0,0.0,0.0,0.0,0.0,0.0,0.0,0.0,0.0,0.0,0.0,0.0,0.0,0.0,0.0,0.0,0.0,0.0,0.0,0.0,0.0,0.0,0.0,0.0,0.0,0.0,0.0,0.0,0.0,0.0,0.0,0.0,0.0,0.0,0.0,0.0,0.0,0.0,0.0,0.0,0.0,0.0,0.0,0.0,0.0,0.0,0.0,0.0,0.0,0.0,0.0,0.0,0.0,0.0,0.0,0.0,0.0,0.0,0.0,0.0,0.0,0.0,0.0,0.0,0.0,0.0,0.0,0.0,0.0,0.0,0.0,0.0,0.0,0.0,0.0,0.0,0.0,0.0,0.0,0.0,0.0,0.0,0.0,-3.5327,-3.8184,-3.9343,-3.8522,-3.8206,-3.51,-2.8308,0.0,0.0,0.0,0.0,0.0,0.0,0.0,0.0,0.0,0.0,0.0,0.0,0.0,0.0,0.0,0.0,0.0,0.0,0.0,0.0,0.0,0.0,0.0,0.0,0.0,0.0,0.0,0.0,0.0,0.0,0.0,0.0,0.0,0.0,0.0,0.0,0.0,0.0,0.0,0.0,0.0,0.0,0.0,0.0,0.0,0.0,0.0,0.0,0.0,0.0,0.0,0.0,0.0,0.0,0.0,0.0,0.0,0.0,0.0,0.0,0.0,0.0,0.0,0.0,0.0,0.0,0.0,0.0,0.0,0.0,0.0,0.0,0.0,0.0,0.0,0.0,0.0,0.0,0.0,0.0,0.0,0.0,0.0,0.0,0.0,0.0,0.0,0.0,0.0,0.0,0.0,0.0,0.0,0.0,0.0,0.0,0.0,0.0,0.0,0.0,0.0,0.0,0.0,0.0,-3.2907,-3.9103,-4.0885,-4.1606,-4.1465,-3.994,-3.6536,-3.0726,0.0,0.0,0.0,0.0,0.0,0.0,0.0,0.0,0.0,0.0,0.0,0.0,0.0,0.0,0.0,0.0,0.0,0.0,0.0,0.0,0.0,0.0,0.0,0.0,0.0,0.0,0.0,0.0,0.0,0.0,0.0,0.0,0.0,0.0,0.0,0.0,0.0,0.0,0.0,0.0,0.0,0.0,0.0,0.0,0.0,0.0,0.0,0.0,0.0,0.0,0.0,0.0,0.0,0.0,0.0,0.0,0.0,0.0,0.0,0.0,0.0,0.0,0.0,0.0,0.0,0.0,0.0,0.0,0.0,0.0,0.0,0.0,0.0,0.0,0.0,0.0,0.0,0.0,0.0,0.0,0.0,0.0,0.0,0.0,0.0,0.0,0.0,0.0,0.0,0.0,0.0,0.0,0.0,0.0,0.0,0.0,0.0,0.0,0.0,0.0,0.0,0.0,0.0,-3.3179,-3.8171,-4.09,-4.1619,-4.1675,-4.1156,-4.0071,-3.6675,-3.029,-2.8229,0.0,0.0,0.0,0.0,0.0,0.0,0.0,0.0,0.0,0.0,0.0,0.0,0.0,0.0,0.0,0.0,0.0,0.0,0.0,0.0,0.0,0.0,0.0,0.0,0.0,0.0,0.0,0.0,0.0,0.0,0.0,0.0,0.0,0.0,0.0,0.0,0.0,0.0,0.0,0.0,0.0,0.0,0.0,0.0,0.0,0.0,0.0,0.0,0.0,0.0,0.0,0.0,0.0,0.0,0.0,0.0,0.0,0.0,0.0,0.0,0.0,0.0,0.0,0.0,0.0,0.0,0.0,0.0,0.0,0.0,0.0,0.0,0.0,0.0,0.0,0.0,0.0,0.0,0.0,0.0,0.0,0.0,0.0,0.0,0.0,0.0,0.0,0.0,0.0,0.0,0.0,0.0,0.0,0.0,0.0,0.0,0.0,0.0,0.0,0.0,0.0,0.0,-3.7492,-4.1427,-4.2096,-4.223,-4.1965,-4.1225,-4.0514,-3.7167,-3.0173,-2.8612,0.0,0.0,0.0,0.0,0.0,0.0,0.0,0.0,0.0,0.0,0.0,0.0,0.0,0.0,0.0,0.0,0.0,0.0,0.0,0.0,0.0,0.0,0.0,0.0,0.0,0.0,0.0,0.0,0.0,0.0,0.0,0.0,0.0,0.0,0.0,0.0,0.0,0.0,0.0,0.0,0.0,0.0,0.0,0.0,0.0,0.0,0.0,0.0,0.0,0.0,0.0,0.0,0.0,0.0,0.0,0.0,0.0,0.0,0.0,0.0,0.0,0.0,0.0,0.0,0.0,0.0,0.0,0.0,0.0,0.0,0.0,0.0,0.0,0.0,0.0,0.0,0.0,0.0,0.0,0.0,0.0,0.0,0.0,0.0,0.0,0.0,0.0,0.0,0.0,0.0,0.0,0.0,0.0,0.0,0.0,0.0,0.0,0.0,0.0,0.0,0.0,0.0,-3.649,-3.9731,-4.3181,-4.3741,-4.3805,-4.3762,-4.2463,-3.8865,-3.2305,-3.088,0.0,0.0,0.0,0.0,0.0,0.0,0.0,0.0,0.0,0.0,0.0,0.0,0.0,0.0,0.0,0.0,0.0,0.0,0.0,0.0,0.0,0.0,0.0,0.0,0.0,0.0,0.0,0.0,0.0,0.0,0.0,0.0,0.0,0.0,0.0,0.0,0.0,0.0,0.0,0.0,0.0,0.0,0.0,0.0,0.0,0.0,0.0,0.0,0.0,0.0,0.0,0.0,0.0,0.0,0.0,0.0,0.0,0.0,0.0,0.0,0.0,0.0,0.0,0.0,0.0,0.0,0.0,0.0,0.0,0.0,0.0,0.0,0.0,0.0,0.0,0.0,0.0,0.0,0.0,0.0,0.0,0.0,0.0,0.0,0.0,0.0,0.0,0.0,0.0,0.0,0.0,0.0,0.0,0.0,0.0,0.0,0.0,0.0,0.0,0.0,0.0,0.0,-3.9148,-4.2679,0.0,-4.4133,-4.4208,-4.4208,-4.3152,-3.9872,-3.3689,0.0,0.0,0.0,0.0,0.0,0.0,0.0,0.0,0.0,0.0,0.0,0.0,0.0,0.0,0.0,0.0,0.0,0.0,0.0,0.0,0.0,0.0,0.0,0.0,0.0,0.0,0.0,0.0,0.0,0.0,0.0,0.0,0.0,0.0,0.0,0.0,0.0,0.0,0.0,0.0,0.0,0.0,0.0,0.0,0.0,0.0,0.0,0.0,0.0,0.0,0.0,0.0,0.0,0.0,0.0,0.0,0.0,0.0,0.0,0.0,0.0,0.0,0.0,0.0,0.0,0.0,0.0,0.0,0.0,0.0,0.0,0.0,0.0,0.0,0.0,0.0,0.0,0.0,0.0,0.0,0.0,0.0,0.0,0.0,0.0,0.0,0.0,0.0,0.0,0.0,0.0,0.0,0.0,0.0,0.0,0.0,0.0,0.0,0.0,0.0,0.0,0.0,-3.5683,-4.116,-4.4943,0.0,-4.4977,-4.5008,-4.5008,-4.4165,-4.0828,-3.4407,0.0,0.0,0.0,0.0,0.0,0.0,0.0,0.0,0.0,0.0,0.0,0.0,0.0,0.0,0.0,0.0,0.0,0.0,0.0,0.0,0.0,0.0,0.0,0.0,0.0,0.0,0.0,0.0,0.0,0.0,0.0,0.0,0.0,0.0,0.0,0.0,0.0,0.0,0.0,0.0,0.0,0.0,0.0,0.0,0.0,0.0,0.0,0.0,0.0,0.0,0.0,0.0,0.0,0.0,0.0,0.0,0.0,0.0,0.0,0.0,0.0,0.0,0.0,0.0,0.0,0.0,0.0,0.0,0.0,0.0,0.0,0.0,0.0,0.0,0.0,0.0,0.0,0.0,0.0,0.0,0.0,0.0,0.0,0.0,0.0,0.0,0.0,0.0,0.0,0.0,0.0,0.0,0.0,0.0,0.0,0.0,0.0,0.0,0.0,0.0,0.0,0.0,-3.6473,-4.1833,-4.5822,-4.6252,-4.6473,-4.6594,-4.6594,-4.5671,-4.1938,0.0,0.0,0.0,0.0,0.0,0.0,0.0,0.0,0.0,0.0,0.0,0.0,0.0,0.0,0.0,0.0,0.0,0.0,0.0,0.0,0.0,0.0,0.0,0.0,0.0,0.0,0.0,0.0,0.0,0.0,0.0,0.0,0.0,0.0,0.0,0.0,0.0,0.0,0.0,0.0,0.0,0.0,0.0,0.0,0.0,0.0,0.0,0.0,0.0,0.0,0.0,0.0,0.0,0.0,0.0,0.0,0.0,0.0,0.0,0.0,0.0,0.0,0.0,0.0,0.0,0.0,0.0,0.0,0.0,0.0,0.0,0.0,0.0,0.0,0.0,0.0,0.0,0.0,0.0,0.0,0.0,0.0,0.0,0.0,0.0,0.0,0.0,0.0,0.0,0.0,0.0,0.0,0.0,0.0,0.0,0.0,0.0,0.0,0.0,0.0,0.0,0.0,0.0,-3.7764,-4.3076,-4.6822,-4.6967,-4.706,-4.7077,-4.7077,-4.6535,-4.3025,-3.5651,0.0,0.0,0.0,0.0,0.0,0.0,0.0,0.0,0.0,0.0,0.0,0.0,0.0,0.0,0.0,0.0,0.0,0.0,0.0,0.0,0.0,0.0,0.0,0.0,0.0,0.0,0.0,0.0,0.0,0.0,0.0,0.0,0.0,0.0,0.0,0.0,0.0,0.0,0.0,0.0,0.0,0.0,0.0,0.0,0.0,0.0,0.0,0.0,0.0,0.0,0.0,0.0,0.0,0.0,0.0,0.0,0.0,0.0,0.0,0.0,0.0,0.0,0.0,0.0,0.0,0.0,0.0,0.0,0.0,0.0,0.0,0.0,0.0,0.0,0.0,0.0,0.0,0.0,0.0,0.0,0.0,0.0,0.0,0.0,0.0,0.0,0.0,0.0,0.0,0.0,0.0,0.0,0.0,0.0,0.0,0.0,0.0,0.0,0.0,0.0,0.0,0.0,-3.7973,-4.3449,-4.7309,-4.7309,-4.7309,-4.7309,-4.7309,-4.6858,-4.4103,-3.8186,0.0,0.0,0.0,0.0,0.0,0.0,0.0,0.0,0.0,0.0,0.0,0.0,0.0,0.0,0.0,0.0,0.0,0.0,0.0,0.0,0.0,0.0,0.0,0.0,0.0,0.0,0.0,0.0,0.0,0.0,0.0,0.0,0.0,0.0,0.0,0.0,0.0,0.0,0.0,0.0,0.0,0.0,0.0,0.0,0.0,0.0,0.0,0.0,0.0,0.0,0.0,0.0,0.0,0.0,0.0,0.0,0.0,0.0,0.0,0.0,0.0,0.0,0.0,0.0,0.0,0.0,0.0,0.0,0.0,0.0,0.0,0.0,0.0,0.0,0.0,0.0,0.0,0.0,0.0,0.0,0.0,0.0,0.0,0.0,0.0,0.0,0.0,0.0,0.0,0.0,0.0,0.0,0.0,0.0,0.0,0.0,0.0,0.0,0.0,0.0,0.0,0.0,-3.7479,-4.3195,-4.7309,-4.7309,-4.7354,-4.7399,-4.7399,-4.7051,-4.5219,-4.1442,0.0,0.0,0.0,0.0,0.0,0.0,0.0,0.0,0.0,0.0,0.0,0.0,0.0,0.0,0.0,0.0,0.0,0.0,0.0,0.0,0.0,0.0,0.0,0.0,0.0,0.0,0.0,0.0,0.0,0.0,0.0,0.0,0.0,0.0,0.0,0.0,0.0,0.0,0.0,0.0,0.0,0.0,0.0,0.0,0.0,0.0,0.0,0.0,0.0,0.0,0.0,0.0,0.0,0.0,0.0,0.0,0.0,0.0,0.0,0.0,-3.5267,0.0,0.0,0.0,0.0,0.0,0.0,0.0,0.0,0.0,0.0,0.0,0.0,0.0,0.0,0.0,0.0,0.0,0.0,0.0,0.0,0.0,0.0,0.0,0.0,0.0,0.0,0.0,0.0,0.0,0.0,0.0,0.0,0.0,0.0,0.0,0.0,0.0,0.0,0.0,0.0,0.0,-3.7419,-4.3195,-4.7309,-4.7309,-4.7773,-4.8072,-4.8072,-4.8462,-4.6971,-4.2822,-4.1296,0.0,0.0,0.0,0.0,0.0,0.0,0.0,0.0,0.0,0.0,0.0,0.0,0.0,0.0,0.0,0.0,0.0,0.0,0.0,0.0,0.0,0.0,0.0,0.0,0.0,0.0,0.0,0.0,0.0,0.0,0.0,0.0,0.0,0.0,0.0,0.0,0.0,0.0,0.0,0.0,0.0,0.0,0.0,0.0,0.0,0.0,0.0,0.0,0.0,0.0,0.0,0.0,0.0,0.0,0.0,0.0,0.0,0.0,0.0,0.0,-3.5227,0.0,0.0,0.0,0.0,0.0,0.0,0.0,0.0,0.0,0.0,0.0,0.0,0.0,0.0,0.0,0.0,0.0,0.0,0.0,0.0,0.0,0.0,0.0,0.0,0.0,0.0,0.0,0.0,0.0,0.0,0.0,0.0,0.0,0.0,0.0,0.0,0.0,0.0,0.0,0.0,-3.7883,-4.3958,-4.8252,-4.8252,-4.8551,-4.8805,-4.8805,-4.912,-4.8342,-4.6152,-4.3901,0.0,0.0,0.0,0.0,0.0,0.0,0.0,0.0,0.0,0.0,0.0,0.0,0.0,0.0,0.0,0.0,0.0,0.0,0.0,0.0,0.0,0.0,0.0,0.0,0.0,0.0,0.0,0.0,0.0,0.0,0.0,0.0,0.0,0.0,0.0,0.0,0.0,0.0,0.0,0.0,0.0,0.0,0.0,0.0,0.0,0.0,0.0,0.0,0.0,0.0,0.0,0.0,0.0,0.0,-3.8873,-3.8987,-3.9382,-3.9276,-3.8797,-3.8855,-3.9131,-3.9363,0.0,0.0,0.0,0.0,0.0,0.0,0.0,0.0,0.0,0.0,0.0,0.0,0.0,0.0,0.0,0.0,0.0,0.0,0.0,0.0,0.0,0.0,0.0,0.0,0.0,-4.1273,-4.0741,0.0,0.0,0.0,0.0,0.0,0.0,0.0,0.0,0.0,0.0,0.0,0.0,-3.8392,-4.4792,-4.9314,-4.9314,-4.9404,-4.9434,-4.9434,-4.9538,-4.9613,-4.9613,-4.6411,-4.4246,0.0,0.0,0.0,0.0,0.0,0.0,0.0,0.0,0.0,0.0,0.0,0.0,0.0,0.0,0.0,0.0,0.0,0.0,0.0,0.0,0.0,0.0,0.0,0.0,0.0,0.0,0.0,0.0,0.0,0.0,0.0,0.0,-3.4017,-3.6007,0.0,0.0,0.0,0.0,0.0,0.0,0.0,0.0,0.0,0.0,0.0,0.0,0.0,0.0,-3.7453,-4.0029,-4.1589,-4.2177,-4.3906,-4.4792,-4.4792,-4.4835,-4.4821,-4.4632,-4.2513,0.0,-4.0815,-4.0481,0.0,0.0,0.0,0.0,0.0,0.0,0.0,0.0,0.0,0.0,0.0,0.0,0.0,0.0,0.0,0.0,0.0,0.0,0.0,0.0,0.0,0.0,-4.59,-4.6334,-4.4237,-4.2905,0.0,-4.0531,-3.6372,-3.9798,0.0,0.0,0.0,0.0,0.0,0.0,0.0,0.0,-3.8392,-4.4792,-4.9314,-4.9314,-4.9778,-5.0061,-5.0061,-5.0631,-5.096,-5.096,-4.9882,-4.7998,-4.5155,-4.7264,0.0,0.0,0.0,0.0,0.0,0.0,0.0,0.0,0.0,0.0,0.0,0.0,0.0,0.0,0.0,0.0,0.0,0.0,0.0,0.0,0.0,0.0,0.0,0.0,0.0,0.0,0.0,0.0,0.0,-3.61,-3.7321,-3.906,-3.866,-3.7557,0.0,0.0,0.0,0.0,0.0,0.0,0.0,0.0,0.0,-3.736,-3.9407,-4.0466,-4.0394,-4.2948,-4.4356,-4.4632,-4.5474,-4.588,-4.588,-4.588,-4.588,-4.5822,-4.4705,-4.4066,-4.3674,-4.2237,-4.1439,-4.0815,0.0,0.0,0.0,0.0,0.0,-3.609,-3.5603,0.0,0.0,0.0,0.0,0.0,0.0,0.0,0.0,0.0,0.0,0.0,0.0,0.0,0.0,-4.7504,-4.7025,-4.6678,-4.8087,-4.3928,-4.0307,0.0,-3.9394,-3.6432,-3.3814,0.0,0.0,0.0,0.0,0.0,-4.116,-4.5903,-4.9314,-4.9314,-4.9523,-4.9688,-4.9688,-4.9957,-5.0287,-5.0599,-5.0345,-4.9702,-4.8671,-4.9748,-4.7952,0.0,0.0,0.0,0.0,0.0,0.0,0.0,0.0,0.0,0.0,0.0,0.0,0.0,0.0,0.0,0.0,0.0,0.0,0.0,0.0,0.0,0.0,0.0,0.0,0.0,0.0,0.0,0.0,-3.9089,-3.9857,-4.1628,-4.1279,-4.0292,0.0,0.0,0.0,0.0,0.0,0.0,-3.9175,-3.9813,-4.0176,-4.0176,-4.2484,-4.3515,-4.3065,-4.4937,-4.588,-4.588,-4.588,-4.588,-4.588,-4.588,-4.588,-4.588,-4.588,-4.588,-4.5735,-4.3848,-4.2774,-4.2237,-4.1424,-3.9639,-3.747,-3.6998,-3.7965,-3.9453,-3.8928,-4.1791,-4.5511,-4.4604,0.0,-4.2986,-4.2431,0.0,0.0,0.0,0.0,-4.0265,-4.2099,-4.3798,-4.5574,-4.7563,-4.8416,-4.8805,-4.8805,-4.5903,-4.3454,0.0,-4.2117,-3.9284,-3.5845,0.0,0.0,0.0,0.0,-4.329,-4.329,-4.68,-4.9314,-4.9314,-4.9314,-4.9314,-4.9314,-4.9314,-4.9479,-4.9957,-4.9987,-5.0212,-5.069,-5.087,-4.9583,-4.6621,0.0,0.0,0.0,0.0,0.0,0.0,0.0,0.0,0.0,0.0,0.0,0.0,0.0,0.0,0.0,0.0,0.0,0.0,0.0,0.0,0.0,0.0,0.0,0.0,0.0,0.0,0.0,0.0,0.0,-4.3471,-4.485,0.0,0.0,0.0,0.0,-3.8289,-3.8754,-3.9958,-4.1802,-4.2469,-4.3631,-4.5445,-4.5648,-4.5721,-4.5692,-4.5822,-4.588,-4.588,-4.588,-4.588,-4.588,-4.588,-4.588,-4.588,-4.588,-4.588,-4.588,-4.575,-4.5677,-4.5343,-4.2281,-4.1004,-4.0481,-3.747,-3.8312,-4.1066,-4.147,-4.4046,-4.7231,-4.7327,-4.5802,-4.3326,-4.0601,-3.9798,0.0,0.0,-4.0874,-4.3196,-4.2569,-4.4792,-4.7189,-4.7324,-4.7384,-4.7399,-4.7399,-4.5259,-4.4436,0.0,-4.5783,-4.3021,-4.2796,0.0,-4.169,-3.7764,-4.0644,-4.329,-4.329,-4.68,-4.9314,-4.9314,-4.9314,-4.9314,-4.9314,-4.9314,-4.9329,-4.9359,-4.9359,-4.9374,-4.9404,-4.9957,-5.0151,-4.9941,-4.689,0.0,0.0,0.0,0.0,0.0,0.0,0.0,0.0,0.0,0.0,0.0,0.0,0.0,0.0,0.0,0.0,0.0,0.0,0.0,0.0,0.0,0.0,0.0,0.0,0.0,0.0,0.0,0.0,-4.4182,-4.4255,0.0,0.0,-4.2673,-4.2281,-4.1352,-4.2658,-4.3805,-4.4501,-4.4734,-4.5358,-4.6461,-4.649,-4.6693,-4.71,-4.71,-4.71,-4.71,-4.71,-4.71,-4.71,-4.71,-4.71,-4.71,-4.71,-4.71,-4.71,-4.71,-4.6621,-4.5779,-4.4632,-4.4182,-4.408,-4.3226,-4.3923,-4.5329,-4.5663,-4.6915,-4.8326,-4.7973,-4.7243,-4.6289,-4.497,-4.4618,-4.4614,-4.4278,-4.5072,-4.5927,-4.5645,-4.6426,-4.7309,-4.7309,-4.7309,-4.7414,-4.7848,-4.7189,-4.707,-4.8955,-4.6052,-4.317,-4.2776,-4.4466,-4.4691,-4.1168,-4.3614,-4.5888,-4.5888,-4.713,-4.7997,-4.7997,-4.7997,-4.7997,-4.7997,-4.7997,-4.8192,-4.8655,-4.8641,-4.8865,-4.9299,-4.9494,-4.9613,-4.9613,-4.8461,-4.5544,0.0,0.0,0.0,0.0,0.0,0.0,0.0,0.0,0.0,0.0,0.0,0.0,0.0,0.0,0.0,0.0,0.0,0.0,0.0,0.0,0.0,0.0,0.0,0.0,0.0,0.0,-4.202,-4.4589,-4.4342,-4.3964,-4.3964,-4.3964,-4.3964,-4.3964,-4.5358,-4.62,-4.62,-4.6417,-4.6722,-4.7143,-4.7158,-4.7346,-4.7782,-4.7782,-4.7782,-4.7782,-4.7999,-4.8101,-4.8101,-4.8319,-4.7724,-4.6563,-4.7637,-4.7361,-4.6243,-4.7332,-4.7274,-4.6519,-4.6519,-4.6519,-4.6565,-4.6883,-4.7297,-4.7698,-4.7877,-4.8177,-4.8386,-4.8246,-4.8185,-4.8102,-4.798,-4.7967,-4.7967,-4.7967,-4.7967,-4.7967,-4.7967,-4.7967,-4.7967,-4.7967,-4.7967,-4.8087,-4.8521,-4.7743,-4.7414,-4.9,-4.7145,-4.484,-4.3284,-4.484,-4.517,-4.1863,-4.324,-4.4646,-4.4646,-4.5603,-4.6292,-4.6292,-4.7294,-4.7967,-4.7967,-4.6935,-4.6965,-4.8521,-4.7354,-4.7309,-4.8925,-4.7863,-4.7279,-4.7322,-4.6396,-4.4107,-4.0382,0.0,0.0,0.0,0.0,0.0,0.0,0.0,0.0,0.0,0.0,0.0,0.0,0.0,0.0,0.0,0.0,0.0,0.0,0.0,0.0,0.0,0.0,0.0,-4.0017,-4.1802,-4.3471,-4.4763,-4.5503,-4.5924,-4.5924,-4.5938,-4.5938,-4.5938,-4.6505,-4.6807,-4.6807,-4.739,-4.7695,-4.7724,-4.7738,-4.7753,-4.7782,-4.7854,-4.7898,-4.7912,-4.8522,-4.8764,-4.8793,-4.9451,-4.7724,-4.44,-4.7477,-4.6693,-4.35,-4.6621,-4.7898,-4.7898,-4.7811,-4.7782,-4.7782,-4.7782,-4.7829,-4.7867,-4.7821,-4.7642,-4.7517,-4.835,-4.8488,-4.8476,-4.912,-4.9314,-4.9314,-4.9314,-4.9314,-4.9314,-4.9314,-4.9314,-4.9314,-4.9314,-4.9314,-4.9329,-4.9329,-4.677,-4.5454,-4.8745,-4.9374,-4.8341,-4.502,-4.4466,-4.3389,-4.0202,-3.9687,0.0,-3.9687,-4.2506,-4.4481,-4.4496,-4.7264,-4.9209,-4.9359,-4.6262,-4.5768,-4.9134,-4.5678,-4.4934,-4.8192,-4.5229,-4.3484,-4.3539,-4.0905,-4.11,-4.4242,0.0,0.0,0.0,0.0,0.0,0.0,0.0,0.0,0.0,0.0,0.0,0.0,0.0,0.0,0.0,0.0,0.0,0.0,0.0,0.0,0.0,0.0,-4.1802,-4.215,-4.2658,-4.3645,-4.5401,-4.6185,-4.6563,-4.6563,-4.6983,-4.7259,-4.7259,-4.7419,-4.7521,-4.7521,-4.6345,-4.5909,-4.6388,-4.6853,-4.7317,-4.7782,-4.9625,-5.0569,-5.0569,-5.0743,-5.083,-5.083,-5.1004,-5.0511,-4.9567,-5.0452,-5.022,-4.932,-5.0206,-5.0569,-5.038,-4.8508,-4.7782,-4.7782,-4.7782,-4.8234,-4.8565,-4.6845,-4.7651,-4.948,-4.9355,-4.9297,-4.9238,-4.9299,-4.9314,-4.9314,-4.9314,-4.9314,-4.9314,-4.9314,-4.9314,-4.9314,-4.9314,-4.9314,-4.9434,-4.9868,-4.9209,-4.897,-5.0406,-5.0676,-5.0092,-4.8222,-4.7951,-4.7608,-4.6696,-4.6561,0.0,-4.6561,-4.7354,-4.8087,-4.8521,-4.686,-4.704,-5.0391,-4.7204,-4.6441,-4.9763,-4.8895,-4.8536,-4.903,-4.8117,-4.7414,-4.695,-4.3883,-4.2506,0.0,0.0,0.0,0.0,0.0,0.0,0.0,0.0,0.0,0.0,0.0,0.0,0.0,0.0,0.0,0.0,0.0,0.0,0.0,0.0,0.0,0.0,-4.2121,-4.3979,-4.4531,-4.4603,-4.501,-4.6142,-4.6838,-4.723,-4.723,-4.7564,-4.7883,-4.8159,-4.8435,-4.8711,-4.8986,-4.8174,-4.7506,-4.7085,-4.8217,-4.8624,-4.8174,-5.0467,-5.1614,-5.1614,-5.1889,-5.202,-5.202,-5.2296,-5.1541,0.0,-5.1425,-5.1106,-4.9712,-5.1062,-5.1614,0.0,0.0,0.0,0.0,0.0,-4.9318,-4.91,-4.8001,-4.8401,-4.9434,-4.9749,-4.9839,-4.99,-5.0048,-4.9119,-4.8027,-4.8027,-4.704,-4.6334,-4.7683,-4.8027,-4.8371,-4.9763,-5.0092,-5.0182,-5.0524,-4.9523,-4.9075,-5.0885,0.0,0.0,-4.9987,-4.894,-4.7563,-4.6214,-4.6005,-4.6005,-4.6005,-4.7174,-4.8177,-4.8521,-4.7758,-4.8297,-5.099,-4.8087,0.0,0.0,0.0,-4.8581,-4.7638,-4.7339,0.0,0.0,0.0,-4.2207,-4.318,0.0,0.0,0.0,-4.0382,-3.8676,0.0,0.0,0.0,0.0,0.0,0.0,0.0,0.0,0.0,0.0,0.0,0.0,0.0,0.0,0.0,0.0,-4.3544,-4.5532,-4.6766,-4.7024,-4.7053,-4.6908,-4.7564,-4.7999,-4.7985,-4.8116,-4.8449,-4.9016,-4.9611,-5.0177,-5.0757,0.0,0.0,0.0,0.0,-5.0583,-4.8808,-5.083,-5.1831,-5.1846,-5.2412,-5.2673,-5.2702,-5.3268,-5.1657,-4.858,-5.1439,-5.0743,-4.7764,-5.0656,-5.1831,-5.1817,-5.1672,-5.1614,-5.1585,-5.1345,-5.0591,0.0,0.0,0.0,0.0,-5.0145,-5.0524,-5.0629,-5.1274,-4.9359,-4.6995,-4.6995,-4.4811,-4.3165,-4.6112,-4.6832,-4.7565,-5.0526,-5.1214,-5.1214,-5.1214,-4.8925,-4.7684,-5.0646,-4.8865,-4.7759,-5.072,-4.8761,-4.5873,-4.2925,-4.2491,-4.2491,-4.2491,-4.5065,-4.6862,-4.6937,0.0,0.0,-5.1394,-4.8895,-4.8701,-5.1992,-4.9464,-4.7354,-4.6232,-4.5559,-4.3793,-4.0778,-4.0644,-4.2043,-4.487,-4.487,-4.6681,-4.9897,-4.2297,-4.0696,0.0,0.0,0.0,0.0,0.0,0.0,0.0,0.0,0.0,0.0,0.0,0.0,0.0,0.0,0.0,-4.3906,-4.5445,-4.6722,-4.7491,-4.8493,-4.8783,-4.7724,-4.8638,-4.9335,-4.9306,-5.0264,-5.0931,-5.1048,-5.1178,-5.1309,-5.1425,-5.0061,0.0,-4.8692,-4.9596,-4.9886,-4.9489,-5.1933,-5.3152,-5.3152,0.0,0.0,-5.3341,-5.3457,-5.3109,-5.2441,-5.3065,-5.2905,-5.2267,-5.2891,-5.3152,-5.3051,-5.202,-5.1614,-5.1367,-4.9614,-5.0298,-5.1871,-4.9991,-5.0762,-5.2567,-5.2624,-5.2621,-5.2636,-5.2755,-5.1992,0.0,-5.1065,-5.0212,-4.9464,-5.0107,-5.0272,-5.0436,-5.1065,-5.1214,-5.1214,-5.1214,-5.072,-5.0451,-5.1094,-5.0705,-5.042,-5.1109,-5.069,-5.0062,-4.9419,-4.9314,-4.9314,-4.9314,-4.9883,-5.0481,-5.1005,-4.879,-4.8775,-5.2486,-4.9434,-4.8701,-5.1992,-5.1603,-5.1379,-5.1648,-5.102,-5.0122,-4.8955,-4.8372,-4.8192,-4.8312,-4.8312,-4.8745,-4.9419,-4.7743,-4.7668,0.0,0.0,0.0,0.0,0.0,0.0,0.0,0.0,0.0,0.0,0.0,-3.9944,0.0,0.0,-4.2658,-4.4574,-4.5721,-4.6911,-4.8522,-4.9596,-4.9828,-4.8856,-4.9886,-5.067,-5.0641,-5.1236,-5.1744,-5.2078,-5.2093,-5.2238,-5.2543,-5.1657,-5.0685,-4.9727,-5.0931,-5.1149,-5.0206,-5.2397,-5.3515,-5.3515,-5.3515,-5.3515,-5.3515,-5.3515,-5.3515,-5.3515,-5.3515,-5.3515,-5.3515,-5.3515,-5.3515,-5.3457,-5.2818,-5.2468,-5.222,-5.1135,-5.1452,-5.2346,-5.1336,-5.1869,-5.3043,-5.3174,-5.3174,-5.3174,-5.3174,-5.1798,-5.0242,-5.0242,-4.8805,-4.7653,-4.9314,-4.9748,-5.0167,-5.1813,-5.2202,-5.2202,-5.2202,-5.1947,-5.1708,-5.1708,-5.1439,-5.1214,-5.1214,-5.1214,-5.1214,-5.1214,-5.1214,-5.1214,-5.1214,-5.1214,-5.1349,-5.1678,-4.9942,-4.9703,-5.2007,-5.0705,-5.0601,-5.2576,-5.2695,-5.283,-5.3174,-5.286,-5.2381,-5.1723,-5.1394,-5.09,-5.0242,-5.0242,-5.0242,-5.0227,-4.9912,-4.9748,0.0,0.0,0.0,0.0,0.0,0.0,0.0,0.0,-4.1485,-4.0942,-4.1149,-4.157,-4.2107,-4.231,-4.3108,-4.5285,-4.6084,-4.7245,-4.9582,-5.0452,-5.0699,-5.0278,-5.1164,-5.1802,-5.1802,-5.1918,-5.2194,-5.2717,-5.2746,-5.2978,-5.3486,-5.3515,-5.2818,-5.128,-5.2717,-5.2775,-5.1236,-5.2746,-5.3515,-5.3515,-5.3515,-5.3515,-5.3515,-5.3515,-5.3515,-5.3515,-5.3515,-5.3515,-5.3515,-5.3515,-5.3515,-5.3515,-5.3462,-5.3266,-5.3015,-5.3068,-5.2776,-5.2419,-5.2835,-5.2843,-5.2856,-5.3253,-5.3514,-5.3578,-5.3578,-5.1633,-4.9434,-4.9434,-4.7414,-4.5858,-4.8536,-4.9239,-4.9898,-5.2546,-5.3174,-5.3174,-5.3174,-5.277,-5.2396,-5.2396,-5.1962,-5.1603,-5.1603,-5.1603,-5.1513,-5.1259,-5.1214,-5.1214,-5.1214,-5.1214,-5.1214,-5.1214,-5.1214,-5.1214,-5.1214,-5.1708,-5.2291,-5.295,-5.2995,-5.3039,-5.3174,-5.3174,-5.2935,-5.2396,-5.2396,-5.2127,-5.1603,-5.1468,-5.1409,-5.1394,-5.0689,-5.0077,-3.1908,-3.1914,0.0,-3.6273,-3.9197,-4.1538,0.0,0.0,-4.5157,-4.3833,-4.4893,-4.6053,-4.6125,-4.665,-4.7317,-4.8159,-4.8362,-4.8914,-5.0365,-5.1106,-5.1701,-5.218,-5.2368,-5.2521,-5.2521,-5.2978,-5.3326,-5.3399,-5.3413,-5.3442,-5.3515,-5.3515,-5.3413,-5.321,-5.3399,-5.3413,-5.3196,-5.3413,-5.3515,-5.3515,-5.3515,-5.3515,-5.3515,-5.3515,-5.3515,-5.3515,-5.3515,-5.3515,-5.3515,-5.3515,-5.3515,-5.3462,-5.3213,-5.3001,-5.2787,-5.3015,-5.3049,-5.3016,-5.3069,-5.3535,-5.4082,-5.4134,-5.452,-5.497,-5.497,-5.4296,-5.3548,-5.3548,-5.283,-5.2157,-5.2531,-5.2636,-5.2725,-5.3099,-5.3174,-5.3174,-5.3174,-5.3114,-5.3069,-5.3069,-5.301,-5.2965,-5.2965,-5.2965,-5.2561,-5.1394,-5.1214,-5.1214,-5.1214,-5.1214,-5.1214,-5.1214,-5.1214,-5.1214,-5.1214,-5.1289,-5.1618,-5.2276,-5.2306,-5.2576,-5.3159,-5.3174,-5.3144,-5.3069,-5.3069,-5.3039,-5.295,-5.2381,-5.2097,-5.2067,-5.1409,-5.0704,-3.4073,0.0,0.0,0.0,-4.2279,-4.4704,-4.4643,-4.5449,-4.6077,-4.5722,-4.6227,-4.6894,-4.7317,-4.6998,-4.7129,0.0,-4.842,-4.8885,-5.0931,-5.1773,-5.2412,-5.3051,-5.2136,-5.1519,-5.1519,-5.2717,-5.3051,-5.1947,-5.2891,-5.3515,-5.3515,-5.3515,-5.3515,-5.3515,-5.3515,-5.3515,-5.3515,-5.3515,-5.3515,-5.3515,-5.3515,-5.3515,-5.3515,-5.3515,-5.3515,-5.3515,-5.3515,-5.3515,-5.3462,-5.3319,-5.3266,-5.3213,-5.2947,-5.268,-5.2397,-5.2505,-5.288,-5.3343,-5.3343,-5.3971,-5.4794,-5.4794,-5.4962,-5.5194,-5.5194,-5.4999,-5.4775,-5.4775,-5.4566,-5.4341,-5.4341,-5.4341,-5.4341,-5.4341,-5.4341,-5.4341,-5.4341,-5.4042,-5.3773,-5.3773,-5.3458,-5.3174,-5.3174,-5.3174,-5.2995,-5.2441,-5.2351,-5.2351,-5.2351,-5.2351,-5.2217,-5.1828,-5.1798,-5.1633,-5.1244,-5.1214,-5.1334,-5.1618,-5.1992,-5.2321,-5.2606,-5.298,-5.2995,-5.2621,-5.298,-5.2995,-5.2606,-5.271,-5.277,-5.277,-5.2486,-5.2217,-3.5808,0.0,0.0,-4.1807,-4.3974,-4.5845,-4.6122,-4.618,-4.6235,-4.6708,-4.6969,-4.7288,-4.7927,-4.7433,0.0,-4.8769,-4.8754,-4.9291,-5.1338,-5.2165,-5.2615,-5.2717,-5.1512,-5.0299,-4.9175,-5.1294,-5.2383,-5.1527,-5.2731,-5.3515,-5.3515,-5.3515,-5.3515,-5.3515,-5.3515,-5.3515,-5.3515,-5.3515,-5.3515,-5.3515,-5.3515,-5.3515,-5.3515,-5.3515,-5.3515,-5.3515,-5.3515,-5.3515,-5.3462,-5.3213,-5.3121,-5.3068,-5.268,-5.2397,-5.2181,-5.2127,-5.2598,-5.3237,-5.3237,-5.4023,-5.4962,-5.4962,-5.5078,-5.5194,-5.5194,-5.5194,-5.5194,-5.5194,-5.5194,-5.5194,-5.5194,-5.5194,-5.5194,-5.5194,-5.5194,-5.5194,-5.5194,-5.482,-5.4476,-5.4476,-5.4072,-5.3728,-5.3728,-5.3728,-5.3728,-5.3728,-5.3728,-5.3608,-5.3234,-5.3174,-5.2995,-5.2516,-5.2471,-5.2276,-5.1798,-5.1753,-5.1753,-5.1753,-5.2217,-5.2381,-5.2217,-5.283,-5.2875,-5.2217,-5.2845,-5.295,-5.2471,-5.277,-5.2905,-5.2905,-5.2725,-5.2636,0.0,0.0,-3.6743,-4.1637,-4.2882,-4.3492,-4.5695,-4.6046,-4.6069,-4.6693,-4.7317,-4.7941,-4.858,-4.9175,-4.963,-4.964,-5.0226,-5.083,-5.1527,-5.2165,-5.2173,-5.0902,-5.0699,-4.919,0.0,-4.8522,-5.1512,-5.3297,-5.3486,-5.3515,-5.3515,-5.3515,-5.3515,-5.3515,-5.3515,-5.3515,-5.3515,-5.3515,-5.3515,-5.3515,-5.3515,-5.3515,-5.3515,-5.3515,-5.3515,-5.3515,-5.3515,-5.3515,-5.3462,-5.3213,-5.3121,-5.3068,-5.2451,-5.2235,-5.2181,-5.1896,-5.2153,-5.2623,-5.2623,-5.3352,-5.4355,-5.4355,-5.4743,-5.5194,-5.5194,-5.5194,-5.5194,-5.5194,-5.5194,-5.5194,-5.5194,-5.5194,-5.5194,-5.5194,-5.5194,-5.5194,-5.5194,-5.5179,-5.5164,-5.5164,-5.5149,-5.5134,-5.5134,-5.5134,-5.5134,-5.5134,-5.5134,-5.4655,-5.3354,-5.3174,-5.3174,-5.3159,-5.3159,-5.3144,-5.3114,-5.3114,-5.3114,-5.3114,-5.3144,-5.286,-5.2232,-5.283,-5.2875,-5.2217,-5.2845,-5.3174,-5.3144,-5.2531,-5.2232,-5.2217,-5.1573,-5.1274,0.0,0.0,-3.9111,-4.1399,-4.2604,-4.3732,-4.557,-4.5384,-4.5349,-4.7091,-4.6606,-4.6185,-4.7274,-4.6606,-4.6316,-4.7579,-4.7622,-4.8464,-5.1236,-5.0336,-5.0177,-5.231,-5.0307,0.0,0.0,0.0,0.0,-4.9756,-5.2078,-5.3515,-5.3515,-5.3515,-5.3515,-5.3515,-5.3515,-5.3515,-5.3515,-5.3515,-5.3515,-5.3515,-5.3515,-5.3515,-5.3515,-5.3515,-5.3515,-5.3515,-5.3319,-5.3213,-5.3213,-5.2734,-5.2505,-5.2451,-5.2073,-5.195,-5.1896,-5.1841,-5.2153,-5.2677,-5.3064,-5.3696,-5.4355,-5.4743,-5.5027,-5.5194,-5.5194,-5.5194,-5.5194,-5.5194,-5.5194,-5.5194,-5.5194,-5.5194,-5.5194,-5.5194,-5.5194,-5.5078,-5.4692,-5.4575,-5.4575,-5.4575,-5.4575,-5.4743,-5.5128,-5.5194,-5.5194,-5.5194,-5.5194,-5.5029,-5.4581,-5.419,-5.3746,-5.3301,-5.3272,-5.3094,-5.2694,-5.2994,-5.3174,-5.3174,-5.3174,-5.3084,-5.286,-5.3054,-5.3069,-5.286,-5.3518,-5.3862,-5.3862,-5.4072,-5.4192,-5.4162,-5.3503,-5.3204,-3.624,-3.8,-3.9932,-4.1753,-4.281,-4.3681,-4.4809,-4.4851,-4.5157,-4.7162,-4.654,-4.5875,-4.637,-4.5677,-4.5329,-4.633,-4.6722,-4.7999,-5.1178,-5.0583,-5.0496,-5.2296,-5.0322,0.0,0.0,0.0,0.0,-4.8899,-5.1106,-5.2499,-5.2499,-5.2499,-5.2818,-5.3486,-5.3515,-5.3515,-5.3515,-5.3515,-5.3515,-5.3515,-5.3515,-5.3515,-5.3515,-5.3515,-5.3138,-5.2528,-5.2924,-5.2732,-5.209,-5.2167,-5.2181,-5.2181,-5.1896,-5.1787,-5.1841,-5.2004,-5.2301,-5.2677,-5.3011,-5.3696,-5.4355,-5.4743,-5.5027,-5.5194,-5.5194,-5.5194,-5.5194,-5.5194,-5.5194,-5.5194,-5.5194,-5.5194,-5.5194,-5.5194,-5.5027,-5.4743,-5.4355,-5.4149,-5.4008,-5.4008,-5.4008,-5.4112,-5.4517,-5.4619,-5.4619,-5.4619,-5.4619,-5.4656,-5.486,-5.4524,-5.4039,-5.3422,-5.3378,-5.3231,-5.2836,-5.3281,-5.3565,-5.3565,-5.3794,-5.3788,-5.3563,-5.3548,-5.3428,-5.3174,-5.3608,-5.3847,-5.3847,-5.4266,-5.4476,-5.4461,-5.4042,-5.3847,-3.8667,-3.9084,-3.922,-4.2569,-4.3245,-4.3135,-4.3489,-4.4325,-4.5398,-4.663,-4.6771,-4.6466,0.0,0.0,-4.6154,-4.5808,-4.7259,-4.9146,-5.1178,-5.2484,-5.2586,0.0,0.0,0.0,0.0,0.0,0.0,-5.0685,0.0,-5.0815,-5.0815,-5.0815,-5.1643,-5.3457,-5.3515,-5.3515,-5.3515,-5.3515,-5.3515,-5.3515,-5.3515,-5.3515,-5.3515,-5.3515,-5.2528,-5.0931,-5.2434,-5.2032,-5.0378,-5.1658,-5.2181,-5.2181,-5.1896,-5.1787,-5.1841,-5.2369,-5.257,-5.2623,-5.2623,-5.3314,-5.4252,-5.4252,-5.4641,-5.5128,-5.5128,-5.5194,-5.5194,-5.5194,-5.5194,-5.5194,-5.5194,-5.5194,-5.5194,-5.5194,-5.4743,-5.4304,-5.4237,-5.3852,-5.3462,-5.3462,-5.3462,-5.3515,-5.3515,-5.3515,-5.3515,-5.3515,-5.3515,-5.3658,-5.42,-5.4252,-5.3993,-5.3515,-5.3462,-5.3462,-5.3462,-5.3956,-5.4252,-5.4304,-5.486,-5.491,-5.4281,-5.4266,-5.3952,-5.3294,-5.3279,-5.3279,-5.3279,-5.3279,-5.3279,-5.3279,-5.3249,-5.3234,-3.7511,-3.8894,-4.0525,-4.1781,-4.1468,-4.1389,-4.3193,-4.3241,-4.3115,-4.3791,-4.2518,-4.1128,0.0,0.0,0.0,-4.3197,-4.4139,0.0,-4.8986,-4.9335,0.0,0.0,0.0,-5.1033,-5.1962,-5.2499,0.0,0.0,-5.1991,-5.2789,-5.2789,-5.2789,-5.3022,-5.35,-5.3515,-5.3515,-5.3515,-5.3515,-5.3515,-5.3515,-5.3515,-5.3515,-5.3515,-5.3515,-5.3149,-5.2468,-5.2693,-5.2409,-5.1715,-5.1861,-5.1896,-5.1896,-5.1841,-5.1787,-5.1841,-5.195,-5.2261,-5.2623,-5.2623,-5.3049,-5.371,-5.371,-5.406,-5.4524,-5.4524,-5.486,-5.5194,-5.5194,-5.5194,-5.5194,-5.5194,-5.5194,-5.5194,-5.5194,-5.4743,-5.42,-5.3815,-5.3223,-5.2851,-5.2851,-5.3184,-5.3515,-5.3515,-5.3515,-5.3515,-5.3515,-5.3515,-5.3568,-5.371,-5.3328,-5.2996,-5.2837,-5.2851,-5.2851,-5.2851,-5.3381,-5.3852,-5.4252,-5.4458,-5.4669,-5.494,-5.494,-5.485,-5.4685,-5.4685,-5.4685,-5.4685,-5.4685,-5.4685,-5.467,-5.4177,-5.3952,-3.8589,-3.9567,-4.0618,-4.0895,-4.0937,-4.1092,-4.1439,-4.1634,-4.1616,-4.1224,-4.0033,0.0,0.0,0.0,0.0,0.0,0.0,0.0,-4.8257,-4.8914,-4.9499,0.0,-5.072,0.0,-5.3326,-5.3515,-5.3065,0.0,-5.2136,-5.2267,-5.2267,-5.2267,-5.2659,-5.3486,-5.3515,-5.3515,-5.3515,-5.3515,-5.3515,-5.3515,-5.3515,-5.3515,-5.3515,-5.3515,-5.2908,-5.186,0.0,-5.2049,-5.1021,-5.1558,-5.1787,-5.1787,-5.1787,-5.1787,-5.1841,-5.2045,-5.253,-5.3011,-5.3011,-5.3381,-5.38,-5.3568,-5.4023,-5.4641,-5.4355,-5.4743,-5.5194,-5.5194,-5.5194,-5.5194,-5.5194,-5.5194,-5.5128,-5.486,-5.4385,-5.38,-5.3237,-5.2637,-5.2261,-5.2261,-5.253,-5.2759,-5.2759,-5.2759,-5.2759,-5.2759,-5.2759,-5.2759,-5.2759,-5.2691,-5.2516,-5.2261,-5.2261,-5.2261,-5.2261,-5.2798,-5.3223,-5.3509,-5.4031,-5.4458,-5.4794,-5.5078,-5.5194,-5.5194,-5.5194,-5.5194,-5.5194,-5.5194,-5.5194,-5.5179,-5.4805,-5.464,-4.0251,-4.0414,-4.0198,-4.0223,-4.1106,-4.1555,-3.9791,-4.0222,-4.0546,-3.9045,0.0,-3.7812,-3.6708,0.0,-3.9352,-4.1336,0.0,-4.6374,-4.7767,-4.9524,-5.0618,-5.0371,-5.0511,-5.1425,-5.3326,-5.3283,-5.3239,-5.3486,-5.1991,-5.1048,-5.1048,-5.1048,-5.1817,-5.3457,-5.3515,-5.3515,-5.3515,-5.3515,-5.3515,-5.3515,-5.3515,-5.3515,-5.3515,-5.3462,-5.2393,-5.0615,0.0,0.0,-4.9851,-5.1234,-5.1787,-5.1787,-5.1787,-5.1787,-5.1841,-5.2315,-5.2851,-5.3395,-5.3395,-5.3748,-5.4097,-5.3658,-5.4193,-5.4875,-5.437,-5.459,-5.5078,-5.4976,-5.5027,-5.5078,-5.4976,-5.4976,-5.486,-5.4318,-5.38,-5.3237,-5.273,-5.2207,-5.1787,-5.1787,-5.1787,-5.1787,-5.1787,-5.1787,-5.1787,-5.1787,-5.1787,-5.1787,-5.1787,-5.2207,-5.2315,-5.1841,-5.1787,-5.1787,-5.1787,-5.2207,-5.257,-5.273,-5.3562,-5.42,-5.4406,-5.486,-5.5128,-5.5194,-5.5194,-5.5194,-5.5194,-5.5194,-5.5194,-5.5194,-5.5194,-5.5194,-3.9458,-3.996,-4.0746,-4.0745,-4.1143,-4.1581,-4.1912,-4.0758,0.0,0.0,0.0,-3.4364,-3.5234,-3.6397,0.0,-4.092,0.0,0.0,0.0,0.0,-5.0075,0.0,0.0,0.0,0.0,0.0,0.0,0.0,0.0,0.0,-5.3022,-5.3022,-5.3167,-5.35,-5.3515,-5.3515,-5.3515,-5.3515,-5.3515,-5.3515,-5.3515,-5.3515,-5.3515,-5.3266,-5.2828,-5.2262,0.0,0.0,-5.1391,-5.166,-5.1787,-5.1787,-5.1787,-5.1787,-5.1787,-5.1896,-5.2261,-5.2744,-5.2744,-5.3117,-5.3605,-5.3515,-5.362,-5.3777,-5.3658,-5.4008,-5.437,-5.3919,-5.4112,-5.437,-5.3933,-5.3777,-5.3777,-5.3658,-5.317,-5.273,-5.2623,-5.2207,-5.1787,-5.1787,-5.1787,-5.1787,-5.1787,-5.1787,-5.1787,-5.1787,-5.1787,-5.1787,-5.1787,-5.1896,-5.1896,-5.1787,-5.1787,-5.1787,-5.1787,-5.1896,-5.2329,-5.329,-5.3064,-5.3524,-5.4962,-5.4692,-5.4692,-5.5194,-5.5194,-5.5194,-5.5194,-5.5194,-5.5194,-5.5194,-5.5194,-5.5194,-3.9614,-3.995,-4.0785,-4.1092,-4.1502,-4.1477,-4.0261,0.0,0.0,0.0,0.0,-3.2,-3.2625,0.0,0.0,0.0,0.0,0.0,0.0,0.0,0.0,0.0,0.0,0.0,0.0,0.0,0.0,0.0,0.0,0.0,0.0,-5.3515,-5.3515,-5.3515,-5.3515,-5.3515,-5.3515,-5.3515,-5.3515,-5.3515,-5.3372,-5.3266,-5.3266,-5.3001,-5.2734,-5.2451,0.0,0.0,-4.9974,-5.1267,-5.1042,-5.0002,-5.1295,-5.1787,-5.1787,-5.1787,-5.2153,-5.2623,-5.2623,-5.3011,-5.3515,-5.3515,-5.371,-5.3852,-5.3553,-5.3852,-5.42,-5.3658,-5.371,-5.38,-5.3568,-5.3515,-5.341,-5.3131,-5.2584,-5.2207,-5.2207,-5.2004,-5.1787,-5.1787,-5.1787,-5.1787,-5.1787,-5.1787,-5.1787,-5.1787,-5.1787,-5.1787,-5.1787,-5.1787,-5.1787,-5.1787,-5.1787,-5.1787,-5.1787,-5.1787,-5.2059,-5.2598,-5.2919,-5.3448,-5.4296,-5.4605,-5.4911,-5.5194,-5.5194,-5.5194,-5.5194,-5.5194,-5.5194,-5.5194,-5.5194,-5.5194,-4.0177,-4.0449,-4.0965,-4.1531,-4.2097,-4.1826,-3.9051,-3.797,0.0,0.0,-3.1175,-3.0583,-3.106,0.0,0.0,0.0,0.0,0.0,0.0,0.0,0.0,0.0,0.0,0.0,0.0,0.0,0.0,0.0,0.0,0.0,0.0,-5.3515,-5.3515,-5.3515,-5.3515,-5.3515,-5.3515,-5.3515,-5.3515,-5.3515,-5.3213,-5.3121,-5.3068,-5.2734,-5.2451,-5.2181,0.0,0.0,0.0,-5.0775,-5.034,-4.8373,-5.0831,-5.1787,-5.1787,-5.1787,-5.2045,-5.2408,-5.2408,-5.2744,-5.3131,-5.329,-5.3591,-5.3838,-5.3433,-5.3591,-5.3823,-5.329,-5.3237,-5.329,-5.3184,-5.3146,-5.3025,-5.253,-5.2099,-5.1787,-5.1787,-5.1787,-5.1787,-5.1787,-5.1787,-5.1787,-5.1787,-5.1787,-5.1787,-5.1787,-5.1787,-5.1787,-5.1787,-5.1787,-5.1787,-5.1787,-5.1787,-5.1787,-5.1787,-5.1787,-5.1841,-5.195,-5.2705,-5.3304,-5.3658,-5.4399,-5.4926,-5.5194,-5.5194,-5.5194,-5.5194,-5.5194,-5.5194,-5.5194,-5.5194,-5.5194,-4.1002,-4.16,-4.2123,-4.2397,-4.3112,-4.3296,-4.1479,0.0,0.0,-3.4475,-3.1789,-3.0482,-3.2478,-3.4211,0.0,0.0,0.0,0.0,0.0,0.0,0.0,0.0,0.0,0.0,0.0,0.0,0.0,0.0,0.0,0.0,0.0,-5.3515,-5.3515,-5.3515,-5.3515,-5.3515,-5.3515,-5.3515,-5.3515,-5.3515,-5.3213,-5.3121,-5.3068,-5.2505,-5.2235,-5.2181,0.0,0.0,0.0,-5.0775,-5.034,-4.8373,-5.0831,-5.1787,-5.1787,-5.1787,-5.1841,-5.1896,-5.1896,-5.1896,-5.2059,-5.253,-5.273,-5.273,-5.2677,-5.273,-5.2623,-5.2113,-5.2315,-5.257,-5.2099,-5.195,-5.195,-5.1896,-5.1841,-5.1787,-5.1787,-5.1787,-5.1787,-5.1787,-5.1787,-5.1787,-5.1787,-5.1787,-5.1787,-5.1787,-5.1787,-5.1787,-5.1787,-5.1787,-5.1787,-5.1787,-5.1787,-5.1787,-5.1787,-5.1787,-5.2004,-5.253,-5.2153,-5.2637,-5.4149,-5.3867,-5.4141,-5.5194,-5.5194,-5.5194,-5.5194,-5.5194,-5.5194,-5.5194,-5.5194,-5.5194,-3.9382,-4.0733,-4.2304,-4.2736,-4.3349,-4.3101,-4.0089,0.0,0.0,-3.2782,-3.0863,-3.0068,-3.0934,-3.2199,-3.4082,-3.7101,0.0,0.0,0.0,0.0,0.0,0.0,0.0,0.0,0.0,0.0,0.0,0.0,0.0,0.0,0.0,0.0,-5.3515,-5.3515,-5.3515,-5.3515,-5.3515,-5.3515,-5.341,-5.3266,-5.3001,-5.2734,-5.2559,-5.2127,-5.195,-5.195,0.0,0.0,0.0,-5.0157,-4.9454,-4.6279,-5.0241,-5.1787,-5.1787,-5.1787,-5.1787,-5.1787,-5.1787,-5.1787,-5.1841,-5.2045,-5.2099,-5.2207,-5.2516,-5.2623,-5.2476,-5.195,-5.195,-5.2045,-5.1841,-5.1787,-5.1787,-5.1787,-5.1787,-5.1787,-5.1787,-5.1787,-5.1787,-5.1787,-5.1787,-5.1787,-5.1787,-5.1787,-5.1787,-5.1787,-5.1787,-5.1787,-5.1787,-5.1787,-5.1787,-5.1787,-5.1787,-5.1787,-5.1787,-5.1787,-5.1896,-5.2099,-5.2207,-5.257,-5.3246,-5.3448,-5.3867,-5.4626,-5.4641,-5.486,-5.5194,-5.5194,-5.5194,-5.5194,-5.5194,-5.5194,-3.8256,-4.0231,-4.2513,-4.2918,-4.314,-4.2398,0.0,0.0,0.0,-3.1433,-3.0207,-2.9869,-2.9792,-3.067,-3.2393,-3.5475,0.0,-3.9919,0.0,0.0,0.0,0.0,0.0,0.0,0.0,0.0,0.0,0.0,0.0,0.0,0.0,0.0,-5.3515,-5.3515,-5.3515,-5.3515,-5.3515,-5.341,-5.3266,-5.3121,-5.2734,-5.2067,-5.1091,-5.1558,-5.1393,0.0,0.0,0.0,0.0,-5.0059,-4.9314,-4.5928,-5.0143,-5.1787,-5.1787,-5.1787,-5.1787,-5.1787,-5.1787,-5.1787,-5.1787,-5.1787,-5.1787,-5.1896,-5.2261,-5.2369,-5.2247,-5.1896,-5.1787,-5.1787,-5.1787,-5.1787,-5.1787,-5.1787,-5.1787,-5.1787,-5.1787,-5.1787,-5.1787,-5.1787,-5.1787,-5.1787,-5.1787,-5.1787,-5.1787,-5.1787,-5.1787,-5.1787,-5.1787,-5.1787,-5.1787,-5.1787,-5.1787,-5.1787,-5.1787,-5.1787,-5.1787,-5.1787,-5.2153,-5.2408,-5.257,-5.3011,-5.35,-5.4045,-5.42,-5.4524,-5.4911,-5.5128,-5.5194,-5.5194,-5.5194,-5.5194,-3.8298,-4.0629,-4.301,-4.3023,-4.2437,-4.1155,0.0,0.0,0.0,-3.1153,-3.0325,-3.0049,-2.983,-3.067,-3.2114,-3.4361,-3.6906,0.0,0.0,0.0,0.0,0.0,0.0,0.0,0.0,0.0,0.0,0.0,0.0,0.0,0.0,0.0,-5.3515,-5.3515,-5.3515,-5.3515,-5.3515,-5.3213,-5.3121,-5.3068,-5.2505,-5.0932,-4.8608,-5.0769,0.0,0.0,0.0,0.0,0.0,-5.0761,-5.0326,-4.8331,-5.0817,-5.1787,-5.1787,-5.1787,-5.1787,-5.1787,-5.1787,-5.1787,-5.1787,-5.1787,-5.1787,-5.1787,-5.1787,-5.1787,-5.1787,-5.1787,-5.1787,-5.1787,-5.1787,-5.1787,-5.1787,-5.1787,-5.1787,-5.1787,-5.1787,-5.1787,-5.1787,-5.1787,-5.1787,-5.1787,-5.1787,-5.1787,-5.1787,-5.1787,-5.1787,-5.1787,-5.1787,-5.1787,-5.1787,-5.1787,-5.1787,-5.1787,-5.1787,-5.1787,-5.1787,-5.1787,-5.1787,-5.2045,-5.257,-5.2623,-5.2904,-5.3515,-5.4008,-5.4304,-5.4304,-5.4911,-5.5194,-5.5194,-5.5194,-5.5194,-3.5449,-3.7286,-3.9139,-3.9478,-3.9404,-3.8633,-3.6251,0.0,0.0,0.0,-3.0163,-3.0049,-2.983,-3.067,-3.2114,-3.4361,-3.6058,0.0,0.0,0.0,0.0,0.0,0.0,0.0,0.0,0.0,0.0,0.0,0.0,0.0,0.0,0.0,0.0,-5.3515,-5.3515,-5.3515,-5.3515,-5.3213,-5.3015,-5.2841,-5.2397,-5.0826,-4.8291,-5.0716,0.0,0.0,0.0,0.0,0.0,-5.0775,-5.034,-4.8373,-5.0831,-5.1787,-5.1787,-5.1787,-5.1787,-5.1787,-5.1787,-5.1787,-5.1787,-5.1787,-5.1787,-5.1787,-5.1787,-5.1787,-5.1787,-5.1787,-5.1787,-5.1787,-5.1787,-5.1787,-5.1787,-5.1787,-5.1787,-5.1787,-5.1787,-5.1787,-5.1787,-5.1787,-5.1787,-5.1787,-5.1787,-5.1787,-5.1787,-5.1787,-5.1787,-5.1787,-5.1787,-5.1787,-5.1787,-5.1787,-5.1787,-5.1787,-5.1787,-5.1787,-5.1787,-5.1787,-5.1787,-5.1896,-5.2045,-5.2045,-5.2315,-5.2851,-5.3433,-5.3956,-5.4304,-5.4911,-5.5194,-5.5194,-5.5194,-5.5194,0.0,-3.5417,-3.7009,-3.7587,-3.7253,0.0,0.0,0.0,0.0,0.0,0.0,0.0,0.0,-3.1361,-3.2817,0.0,0.0,0.0,0.0,0.0,0.0,0.0,0.0,0.0,0.0,0.0,0.0,0.0,0.0,0.0,0.0,0.0,0.0,-5.1974,-5.2943,-5.3237,-5.2677,-5.2355,-5.2315,-5.2505,-5.1704,-5.0213,-4.8153,0.0,0.0,0.0,0.0,0.0,0.0,-5.1154,-5.0888,-4.9665,-5.1197,-5.1787,-5.1732,-5.1252,-5.1375,-5.1732,-5.1252,-5.1375,-5.1787,-5.1787,-5.1787,-5.1787,-5.1787,-5.1787,-5.1787,-5.1787,-5.1787,-5.1787,-5.1787,-5.1787,-5.1787,-5.1787,-5.1787,-5.1787,-5.1787,-5.1787,-5.1787,-5.1787,-5.1787,-5.1787,-5.1787,-5.1787,-5.1787,-5.1787,-5.1787,-5.1787,-5.1787,-5.1787,-5.1787,-5.1787,-5.1787,-5.1787,-5.1787,-5.1787,-5.1787,-5.1787,-5.1787,-5.1787,-5.1787,-5.1787,-5.195,-5.2315,-5.3078,-5.3658,-5.4008,-5.4809,-5.5194,-5.5194,-5.5194,-5.5194,0.0,-3.4599,0.0,0.0,0.0,0.0,0.0,0.0,0.0,0.0,0.0,0.0,0.0,0.0,0.0,0.0,0.0,0.0,0.0,0.0,0.0,0.0,0.0,0.0,0.0,0.0,0.0,0.0,0.0,0.0,0.0,0.0,0.0,0.0,-5.1866,-5.257,-5.1114,-5.0809,-5.1016,-5.1682,-5.0407,-4.905,-4.7684,0.0,0.0,0.0,0.0,0.0,0.0,-5.1554,-5.1554,-5.1554,-5.1554,-5.1554,-5.1375,-5.021,-5.0503,-5.1375,-5.0266,-5.067,-5.1677,-5.1787,-5.1787,-5.1787,-5.1787,-5.1787,-5.1787,-5.1787,-5.1787,-5.1787,-5.1787,-5.1787,-5.1787,-5.1787,-5.1787,-5.1787,-5.1787,-5.1787,-5.1787,-5.1787,-5.1787,-5.1787,-5.1787,-5.1787,-5.1787,-5.1787,-5.1787,-5.1787,-5.1787,-5.1787,-5.1787,-5.1787,-5.1787,-5.1787,-5.1787,-5.1787,-5.1787,-5.1787,-5.1787,-5.1787,-5.1787,-5.1787,-5.1787,-5.1787,-5.2919,-5.3515,-5.3568,-5.4671,-5.5194,-5.5194,-5.5194,-5.5194,-3.0582,0.0,-3.2575,-3.3098,-3.2611,-3.1957,0.0,0.0,0.0,0.0,0.0,0.0,0.0,0.0,0.0,0.0,0.0,0.0,0.0,0.0,0.0,0.0,0.0,0.0,0.0,0.0,0.0,0.0,0.0,0.0,0.0,0.0,0.0,0.0,-4.9901,-5.0337,-4.9465,-4.9422,-4.8577,-4.6921,-4.8265,-4.6751,-4.2934,0.0,0.0,0.0,0.0,0.0,-4.8961,-4.8961,-4.8961,-4.8961,-4.8961,-4.8961,-4.8948,-4.8602,-4.8718,-4.9062,-4.9689,-5.0084,-5.0503,-5.1485,-5.1787,-5.1787,-5.1787,-5.1787,-5.1787,-5.1787,-5.1787,-5.1787,-5.1787,-5.1787,-5.1787,-5.1787,-5.1787,-5.1787,-5.1787,-5.1787,-5.1787,-5.1787,-5.1787,-5.1787,-5.1787,-5.1787,-5.1787,-5.1787,-5.1787,-5.1787,-5.1787,-5.1787,-5.1787,-5.1787,-5.1787,-5.1787,-5.1787,-5.1787,-5.1787,-5.1787,-5.1787,-5.1787,-5.1787,-5.1787,-5.1787,-5.1787,-5.2919,-5.371,-5.4097,-5.486,-5.5194,-5.5194,-5.5194,-5.5194,-2.9388,-3.0037,-3.1057,-3.2526,-3.1767,-3.0981,-3.1962,0.0,0.0,0.0,0.0,0.0,0.0,0.0,0.0,0.0,0.0,0.0,0.0,0.0,0.0,0.0,0.0,0.0,0.0,0.0,0.0,0.0,0.0,0.0,0.0,0.0,0.0,0.0,0.0,-4.8705,-4.8358,-4.8345,-4.7344,-4.5355,-4.711,-4.6251,-4.3268,0.0,0.0,0.0,0.0,0.0,-4.8002,-4.7057,-4.7184,-4.8094,-4.8094,-4.8094,-4.8035,-4.7449,-4.7964,-4.8948,-4.9062,-4.9816,-5.0906,-5.1554,-5.1787,-5.1677,-5.1086,-5.132,-5.1787,-5.1787,-5.1787,-5.1787,-5.1787,-5.1787,-5.1787,-5.1787,-5.1787,-5.1787,-5.1787,-5.1787,-5.1787,-5.1787,-5.1787,-5.1787,-5.1787,-5.1787,-5.1787,-5.1787,-5.1787,-5.1787,-5.1787,-5.1787,-5.1787,-5.1787,-5.1787,-5.1787,-5.1787,-5.1787,-5.1787,-5.1787,-5.1787,-5.1787,-5.1787,-5.1787,-5.1896,-5.2153,-5.2744,-5.3381,-5.3956,-5.423,-5.4553,-5.4794,-5.4794,-5.4962,-2.8794,-2.9438,-3.0797,-3.3248,-3.1997,-3.0698,-3.2891,0.0,0.0,0.0,0.0,0.0,0.0,0.0,0.0,0.0,0.0,0.0,0.0,0.0,0.0,0.0,0.0,0.0,0.0,0.0,0.0,0.0,0.0,0.0,0.0,0.0,0.0,0.0,0.0,0.0,-4.7468,-4.7403,-4.6531,-4.4953,-4.6334,-4.6289,-4.5005,-4.7415,0.0,0.0,0.0,0.0,-4.747,-4.5572,-4.5866,-4.7508,-4.7508,-4.7508,-4.739,-4.6512,-4.7554,-4.9221,-4.8602,-4.9759,-5.1499,-5.1499,-5.1389,-5.1031,-4.9928,-5.0503,-5.1499,-5.1499,-5.1663,-5.1787,-5.1787,-5.1787,-5.1787,-5.1787,-5.1787,-5.1787,-5.1787,-5.1787,-5.1787,-5.1787,-5.1787,-5.1787,-5.1787,-5.1787,-5.1787,-5.1787,-5.1787,-5.1787,-5.1787,-5.1787,-5.1787,-5.1787,-5.1787,-5.1787,-5.1787,-5.1787,-5.1787,-5.1787,-5.1787,-5.1787,-5.1787,-5.1787,-5.199,-5.2476,-5.257,-5.2851,-5.3343,-5.3462,-5.3762,-5.4304,-5.4304,-5.4626,-2.8475,-2.958,-3.1269,-3.3263,-3.203,-3.088,-3.2933,0.0,0.0,0.0,0.0,0.0,0.0,0.0,0.0,0.0,0.0,0.0,0.0,0.0,0.0,0.0,0.0,0.0,0.0,0.0,0.0,0.0,0.0,0.0,0.0,0.0,0.0,0.0,0.0,-4.6468,-4.6541,-4.6228,-4.4935,-4.2719,-4.4926,-4.4827,-4.2756,-4.4905,-4.5853,0.0,0.0,-4.5047,-4.5269,-4.4634,-4.4573,-4.4878,-4.4878,-4.4878,-4.4988,-4.5864,-4.6453,-4.7023,-4.8935,-4.9858,-5.021,-5.021,-4.9519,-4.8602,-4.8442,-4.9234,-5.021,-5.021,-5.0962,-5.1787,-5.1787,-5.1787,-5.1787,-5.1787,-5.1787,-5.1787,-5.1787,-5.1787,-5.1787,-5.1787,-5.1787,-5.1787,-5.1787,-5.1787,-5.1787,-5.1787,-5.1787,-5.1787,-5.1787,-5.1787,-5.1787,-5.1787,-5.1787,-5.1787,-5.1787,-5.1787,-5.1787,-5.1787,-5.1787,-5.1787,-5.1787,-5.1787,-5.1841,-5.195,-5.2369,-5.2623,-5.273,-5.3237,-5.3762,-5.4304,-5.4304,-5.4626,-2.8219,-2.9227,-3.1082,-3.435,-3.3039,-3.1975,-3.5915,-3.3707,0.0,0.0,0.0,0.0,0.0,0.0,0.0,0.0,0.0,0.0,0.0,0.0,0.0,0.0,0.0,0.0,0.0,0.0,0.0,0.0,0.0,0.0,0.0,0.0,0.0,0.0,0.0,0.0,-4.6313,-4.6132,-4.483,-4.2437,-4.4892,-4.478,-4.2487,-4.4811,-4.5757,-4.5513,0.0,-4.395,-4.4694,-4.3229,-4.3313,-4.4285,-4.4285,-4.4285,-4.4458,-4.5755,-4.6225,-4.6453,-4.8313,-4.8948,-4.8948,-4.8948,-4.8545,-4.8094,-4.8094,-4.8948,-4.9915,-4.9915,-5.0795,-5.1787,-5.1787,-5.1787,-5.1787,-5.1787,-5.1787,-5.1787,-5.1787,-5.1787,-5.1787,-5.1787,-5.1787,-5.1787,-5.1787,-5.1787,-5.1787,-5.1787,-5.1787,-5.1787,-5.1787,-5.1787,-5.1787,-5.1787,-5.1787,-5.1787,-5.1787,-5.1787,-5.1787,-5.1787,-5.1787,-5.1787,-5.1787,-5.1787,-5.1787,-5.1787,-5.2045,-5.2153,-5.2153,-5.2437,-5.3011,-5.3852,-5.3852,-5.4333,-2.826,-2.9126,-3.0896,-3.4688,-3.3307,-3.2541,-3.8366,-3.529,0.0,0.0,0.0,0.0,0.0,0.0,0.0,0.0,0.0,0.0,0.0,0.0,0.0,0.0,0.0,0.0,0.0,0.0,0.0,0.0,0.0,0.0,0.0,0.0,0.0,0.0,0.0,0.0,-4.6313,-4.6313,-4.5329,-4.348,-4.5366,-4.5291,-4.3517,-4.5404,-4.6193,-4.5791,-4.3866,-4.3735,-4.4768,-4.2829,-4.294,-4.4285,-4.4285,-4.4458,-4.4878,-4.5864,-4.6393,-4.6798,-4.7743,-4.7906,-4.7684,-4.7684,-4.7449,-4.7213,-4.7213,-4.8068,-4.9106,-4.9392,-5.0391,-5.143,-5.1732,-5.1787,-5.1787,-5.1787,-5.1787,-5.1787,-5.1787,-5.1787,-5.1787,-5.1787,-5.1787,-5.1787,-5.1787,-5.1787,-5.1787,-5.1787,-5.1787,-5.1787,-5.1787,-5.1787,-5.1787,-5.1787,-5.1787,-5.1787,-5.1787,-5.1787,-5.1787,-5.1787,-5.1787,-5.1787,-5.1787,-5.1787,-5.1787,-5.1787,-5.1787,-5.1787,-5.1787,-5.1787,-5.2329,-5.329,-5.341,-5.4023,-2.87,-2.9653,-3.0997,-3.2855,-3.1599,-3.1625,-3.8203,-3.5014,0.0,-3.8454,0.0,0.0,0.0,0.0,0.0,0.0,0.0,0.0,0.0,0.0,0.0,0.0,0.0,0.0,0.0,0.0,0.0,0.0,0.0,0.0,0.0,0.0,0.0,0.0,0.0,0.0,-4.6313,-4.6313,-4.6225,-4.6015,-4.6225,-4.6225,-4.6015,-4.6238,-4.6313,-4.624,-4.5777,-4.5426,-4.5257,-4.4731,-4.4461,-4.4285,-4.4285,-4.5049,-4.6045,-4.6165,-4.6917,-4.7977,-4.8094,-4.7331,-4.6333,-4.6333,-4.5513,-4.4582,-4.4582,-4.5452,-4.6739,-4.7919,-4.912,-5.0322,-5.1485,-5.1787,-5.1787,-5.1787,-5.1787,-5.1787,-5.1787,-5.1787,-5.1787,-5.1787,-5.1787,-5.1787,-5.1787,-5.1787,-5.1787,-5.1787,-5.1787,-5.1787,-5.1787,-5.1787,-5.1787,-5.1787,-5.1787,-5.1787,-5.1787,-5.1787,-5.1787,-5.1787,-5.1787,-5.1787,-5.1787,-5.1787,-5.1787,-5.1787,-5.1787,-5.1787,-5.1787,-5.1787,-5.2113,-5.2677,-5.3237,-5.3815,-2.8737,-2.9503,-3.0922,-3.4331,-3.2428,0.0,0.0,-3.6307,-3.4801,-4.0551,-3.8492,0.0,0.0,0.0,0.0,0.0,0.0,0.0,0.0,0.0,0.0,0.0,0.0,0.0,0.0,0.0,0.0,0.0,0.0,0.0,0.0,0.0,0.0,0.0,0.0,0.0,0.0,-4.5999,-4.5878,-4.5696,-4.5878,-4.5999,-4.5999,-4.5999,-4.5999,-4.5999,-4.589,-4.5757,-4.5574,-4.5025,-4.4717,-4.4594,-4.4409,-4.4582,-4.4988,-4.4988,-4.5342,-4.5755,-4.5755,-4.5403,-4.4988,-4.4988,-4.4693,-4.447,-4.522,-4.5816,-4.6619,-4.8647,-4.9576,-5.021,-5.1499,-5.1787,-5.1787,-5.1787,-5.1787,-5.1787,-5.1787,-5.1787,-5.1787,-5.1787,-5.1787,-5.1787,-5.1787,-5.1787,-5.1787,-5.1787,-5.1787,-5.1787,-5.1787,-5.1787,-5.1787,-5.1787,-5.1787,-5.1787,-5.1787,-5.1787,-5.1787,-5.1787,-5.1787,-5.1787,-5.1787,-5.1787,-5.1787,-5.1787,-5.1787,-5.1787,-5.1787,-5.1787,-5.2099,-5.2623,-5.3237,-5.3815,-2.9001,-2.949,-3.0683,-3.4444,0.0,0.0,-3.8216,-3.6985,-3.5931,-4.1128,-3.9873,0.0,0.0,0.0,0.0,0.0,0.0,0.0,0.0,0.0,0.0,0.0,0.0,0.0,0.0,0.0,0.0,0.0,0.0,0.0,0.0,0.0,0.0,0.0,0.0,0.0,0.0,-4.5817,-4.5635,-4.5331,-4.5453,-4.5514,-4.5635,-4.5635,-4.5635,-4.5635,-4.5635,-4.5635,-4.5574,-4.5025,-4.4717,-4.4594,-4.4409,-4.4285,-4.4285,-4.4285,-4.4285,-4.4285,-4.4285,-4.4285,-4.4285,-4.4285,-4.4285,-4.4458,-4.5342,-4.5573,-4.6093,-4.8647,-4.9348,-4.9689,-5.1375,-5.1787,-5.1787,-5.1787,-5.1787,-5.1787,-5.1787,-5.1787,-5.1787,-5.1787,-5.1787,-5.1787,-5.1787,-5.1787,-5.1787,-5.1787,-5.1787,-5.1787,-5.1787,-5.1787,-5.1787,-5.1787,-5.1787,-5.1787,-5.1787,-5.1787,-5.1787,-5.1787,-5.1787,-5.1787,-5.1787,-5.1787,-5.1787,-5.1787,-5.1787,-5.1787,-5.1787,-5.195,-5.2261,-5.2623,-5.3381,-5.3956,-2.9515,-2.9817,-3.0319,0.0,0.0,0.0,-3.8278,-3.6684,-3.5177,-3.9609,0.0,0.0,0.0,0.0,0.0,0.0,0.0,0.0,0.0,0.0,0.0,0.0,0.0,0.0,0.0,0.0,0.0,0.0,0.0,0.0,0.0,0.0,0.0,0.0,0.0,0.0,0.0,-4.5757,-4.5635,-4.527,-4.4963,-4.4963,-4.5331,-4.5331,-4.5331,-4.5331,-4.5331,-4.5331,-4.527,-4.4963,-4.4594,-4.4285,-4.4285,-4.4285,-4.4285,-4.4285,-4.4285,-4.4285,-4.4285,-4.4285,-4.4285,-4.4285,-4.4285,-4.4285,-4.4285,-4.4285,-4.4816,-4.739,-4.8094,-4.8673,-5.1155,-5.1787,-5.1787,-5.1787,-5.1787,-5.1787,-5.1787,-5.1787,-5.1787,-5.1787,-5.1787,-5.1787,-5.1787,-5.1787,-5.1787,-5.1787,-5.1787,-5.1787,-5.1787,-5.1787,-5.1787,-5.1787,-5.1787,-5.1787,-5.1787,-5.1787,-5.1787,-5.1787,-5.1787,-5.1787,-5.1787,-5.1787,-5.1787,-5.1787,-5.1787,-5.1787,-5.1787,-5.2369,-5.2623,-5.2623,-5.3771,-5.4304,-3.1486,-3.0972,0.0,0.0,0.0,0.0,0.0,-3.6483,0.0,0.0,0.0,0.0,0.0,0.0,0.0,0.0,0.0,0.0,0.0,0.0,0.0,0.0,0.0,0.0,0.0,0.0,0.0,0.0,0.0,0.0,0.0,0.0,0.0,0.0,0.0,0.0,0.0,0.0,-4.4902,-4.4594,-4.447,-4.4594,-4.4963,-4.4963,-4.4963,-4.4963,-4.5208,-4.5331,-4.527,-4.4963,-4.4594,-4.4285,-4.4285,-4.4285,-4.4285,-4.4285,-4.4285,-4.4285,-4.4285,-4.4285,-4.4285,-4.4285,-4.4285,-4.4285,-4.4285,-4.4285,-4.4631,-4.6273,-4.739,-4.8429,-5.0041,-5.1141,-5.1787,-5.1787,-5.1787,-5.1787,-5.1787,-5.1787,-5.1787,-5.1787,-5.1787,-5.1787,-5.1787,-5.1787,-5.1787,-5.1787,-5.1787,-5.1787,-5.1787,-5.1787,-5.1787,-5.1787,-5.1787,-5.1787,-5.1787,-5.1787,-5.1787,-5.1787,-5.1787,-5.1787,-5.1787,-5.1787,-5.1787,-5.1787,-5.1787,-5.1787,-5.1787,-5.2369,-5.2623,-5.2623,-5.3771,-5.4304,-3.2554,0.0,0.0,0.0,0.0,0.0,0.0,0.0,0.0,0.0,0.0,0.0,0.0,0.0,0.0,0.0,0.0,0.0,0.0,0.0,0.0,0.0,0.0,0.0,0.0,0.0,0.0,0.0,0.0,0.0,0.0,0.0,0.0,0.0,0.0,0.0,0.0,0.0,0.0,-4.4285,-4.4285,-4.4409,-4.4594,-4.4594,-4.4594,-4.4594,-4.4963,-4.5025,-4.4902,-4.484,-4.4594,-4.4285,-4.4285,-4.4285,-4.4285,-4.4285,-4.4285,-4.4285,-4.4285,-4.4285,-4.4285,-4.4285,-4.4285,-4.4285,-4.4285,-4.4285,-4.4693,-4.6453,-4.7508,-4.8487,-5.021,-5.1196,-5.1787,-5.1787,-5.1787,-5.1787,-5.1787,-5.1787,-5.1787,-5.1787,-5.1787,-5.1787,-5.1787,-5.1787,-5.1787,-5.1787,-5.1787,-5.1787,-5.1787,-5.1787,-5.1787,-5.1787,-5.1787,-5.1787,-5.1787,-5.1787,-5.1787,-5.1787,-5.1787,-5.1787,-5.1787,-5.1787,-5.1787,-5.1787,-5.1787,-5.1787,-5.1787,-5.2369,-5.2623,-5.2623,-5.3771,-5.4304,0.0,0.0,0.0,0.0,0.0,0.0,0.0,0.0,0.0,0.0,0.0,0.0,0.0,0.0,0.0,0.0,0.0,0.0,0.0,0.0,0.0,0.0,0.0,0.0,0.0,0.0,0.0,0.0,0.0,0.0,0.0,0.0,0.0,0.0,0.0,0.0,0.0,0.0,0.0,0.0,-4.4285,-4.4285,-4.4285,-4.4285,-4.4285,-4.4347,-4.4594,-4.4594,-4.4347,-4.4656,-4.4594,-4.4285,-4.4285,-4.4285,-4.4285,-4.4285,-4.4285,-4.4285,-4.4285,-4.4285,-4.4285,-4.4285,-4.4285,-4.4285,-4.4285,-4.4285,-4.4816,-4.7213,-4.7919,-4.8487,-5.0975,-5.1554,-5.1499,-5.1609,-5.1732,-5.1787,-5.1787,-5.1787,-5.1787,-5.1787,-5.1787,-5.1787,-5.1787,-5.1787,-5.1787,-5.1787,-5.1787,-5.1787,-5.1787,-5.1787,-5.1787,-5.1787,-5.1787,-5.1787,-5.1787,-5.1787,-5.1787,-5.1787,-5.1787,-5.1787,-5.1787,-5.1787,-5.1787,-5.1787,-5.1787,-5.1787,-5.1787,-5.2369,-5.2623,-5.2623,-5.3771,-5.4304,0.0,0.0,0.0,0.0,0.0,0.0,0.0,0.0,0.0,0.0,0.0,0.0,0.0,0.0,0.0,0.0,0.0,0.0,0.0,0.0,0.0,0.0,0.0,0.0,0.0,0.0,0.0,0.0,0.0,0.0,0.0,0.0,0.0,0.0,0.0,0.0,-4.4409,-4.4409,-4.4347,0.0,-4.4285,-4.4285,-4.4285,-4.4285,-4.4285,-4.4285,-4.4409,-4.4347,-4.4285,-4.4409,-4.4347,-4.4285,-4.4285,-4.4285,-4.4285,-4.4285,-4.4285,-4.4285,-4.4285,-4.4285,-4.4285,-4.4285,-4.4285,-4.4285,-4.4285,-4.4285,-4.4644,-4.6153,-4.6632,-4.7213,-4.9689,-4.9589,-4.912,-5.0097,-5.1086,-5.1787,-5.1787,-5.1787,-5.1787,-5.1787,-5.1787,-5.1787,-5.1787,-5.1787,-5.1787,-5.1787,-5.1787,-5.1787,-5.1787,-5.1787,-5.1787,-5.1787,-5.1787,-5.1787,-5.1787,-5.1787,-5.1787,-5.1787,-5.1787,-5.1787,-5.1787,-5.1787,-5.1787,-5.1787,-5.1787,-5.1787,-5.1787,-5.2369,-5.2623,-5.2623,-5.3771,-5.4304,0.0,0.0,0.0,0.0,0.0,0.0,0.0,0.0,0.0,0.0,0.0,0.0,0.0,0.0,0.0,0.0,0.0,0.0,0.0,0.0,0.0,0.0,0.0,0.0,0.0,0.0,0.0,0.0,0.0,0.0,0.0,0.0,0.0,0.0,0.0,0.0,-4.4285,-4.4285,-4.4285,-4.4285,-4.4285,-4.4285,-4.4285,-4.4285,-4.4285,-4.4285,-4.4285,-4.4285,-4.4285,-4.4285,-4.4285,-4.4285,-4.4285,-4.4285,-4.4285,-4.4285,-4.4285,-4.4285,-4.4285,-4.4285,-4.4285,-4.4285,-4.4285,-4.4285,-4.4285,-4.4285,-4.4582,-4.5864,-4.6225,-4.6619,-4.8532,-4.8545,-4.8255,-4.889,-4.9532,-5.0055,-5.0055,-5.0055,-5.0055,-5.0055,-5.0055,-5.0055,-5.0055,-5.0517,-5.1086,-5.1732,-5.1787,-5.1787,-5.1787,-5.1787,-5.1787,-5.1787,-5.1787,-5.1787,-5.1787,-5.1787,-5.1787,-5.1787,-5.1787,-5.1787,-5.1787,-5.1787,-5.1787,-5.1787,-5.1787,-5.1787,-5.1787,-5.2369,-5.2623,-5.2623,-5.3771,-5.4304,0.0,0.0,0.0,0.0,0.0,0.0,0.0,0.0,0.0,0.0,0.0,0.0,0.0,0.0,0.0,0.0,0.0,0.0,0.0,0.0,0.0,0.0,0.0,0.0,0.0,0.0,0.0,0.0,0.0,0.0,0.0,0.0,0.0,0.0,0.0,-4.4285,-4.4285,-4.4285,-4.4285,-4.4285,-4.4285,-4.4285,-4.4285,-4.4285,-4.4285,-4.4285,-4.4285,-4.4285,-4.4285,-4.4285,-4.4285,-4.4285,-4.4285,-4.4285,-4.4285,-4.4285,-4.4285,-4.4285,-4.4285,-4.4285,-4.4285,-4.4285,-4.4285,-4.4285,-4.4285,-4.4285,-4.4582,-4.5864,-4.6045,-4.6225,-4.7684,-4.7789,-4.7508,-4.7743,-4.7613,-4.7567,-4.8035,-4.8094,-4.8094,-4.8094,-4.8255,-4.8429,-4.8429,-4.9405,-5.0559,-5.1663,-5.1787,-5.1787,-5.1787,-5.1787,-5.1787,-5.1787,-5.1787,-5.1787,-5.1787,-5.1787,-5.1787,-5.1787,-5.1787,-5.1787,-5.1787,-5.1787,-5.1787,-5.1787,-5.1787,-5.1787,-5.1787,-5.2369,-5.2623,-5.2623,-5.3771,-5.4304,0.0,0.0,0.0,0.0,0.0,0.0,0.0,0.0,0.0,0.0,0.0,0.0,0.0,0.0,0.0,0.0,0.0,0.0,0.0,0.0,0.0,0.0,0.0,0.0,0.0,0.0,0.0,0.0,0.0,0.0,0.0,0.0,-4.4347,-4.4285,-4.4285,-4.4285,-4.4285,-4.4285,-4.4285,-4.4285,-4.4285,-4.4285,-4.4285,-4.4285,-4.4285,-4.4285,-4.4285,-4.4285,-4.4285,-4.4285,-4.4285,-4.4285,-4.4285,-4.4285,-4.4285,-4.4285,-4.4285,-4.4285,-4.4285,-4.4285,-4.4285,-4.4285,-4.4285,-4.4285,-4.4285,-4.4285,-4.4582,-4.5864,-4.5403,-4.511,-4.7508,-4.6453,-4.511,-4.6165,-4.5634,-4.5391,-4.7626,-4.8094,-4.8094,-4.8094,-4.8948,-4.9689,-4.9689,-5.074,-5.1609,-5.1787,-5.1787,-5.1787,-5.1787,-5.1787,-5.1787,-5.1787,-5.1787,-5.1787,-5.1787,-5.1787,-5.1787,-5.1787,-5.1787,-5.1787,-5.1787,-5.1787,-5.1787,-5.1787,-5.1787,-5.1787,-5.1787,-5.2369,-5.2623,-5.2623,-5.3771,-5.4304,0.0,0.0,0.0,0.0,0.0,0.0,0.0,0.0,0.0,0.0,0.0,0.0,0.0,0.0,0.0,0.0,0.0,0.0,0.0,0.0,0.0,0.0,0.0,0.0,0.0,0.0,0.0,0.0,0.0,0.0,0.0,-4.4409,-4.4285,-4.4285,-4.4285,0.0,-4.4285,-4.4285,-4.4285,-4.4285,-4.4285,-4.4285,-4.4285,-4.4285,-4.4285,-4.4285,-4.4285,-4.4285,-4.4285,-4.4285,-4.4285,-4.4285,-4.4285,-4.4285,-4.4285,-4.4285,-4.4285,-4.4285,-4.4285,-4.4285,-4.4285,-4.4285,-4.4285,-4.4285,-4.4285,-4.4285,-4.4409,-4.4988,-4.4755,-4.4582,-4.5695,-4.5172,-4.4458,-4.4988,-4.4705,-4.4582,-4.5755,-4.5985,-4.5985,-4.5985,-4.638,-4.7023,-4.7717,-4.83,-4.889,-4.9646,-5.0279,-5.074,-5.074,-5.1375,-5.1787,-5.1787,-5.1787,-5.1787,-5.1787,-5.1787,-5.1787,-5.1787,-5.1787,-5.1787,-5.1787,-5.1787,-5.1787,-5.1787,-5.1787,-5.195,-5.2261,-5.2798,-5.3275,-5.3562,-5.4421,-5.4794,0.0,0.0,0.0,0.0,0.0,0.0,0.0,0.0,0.0,0.0,0.0,0.0,0.0,0.0,0.0,0.0,0.0,0.0,0.0,0.0,0.0,0.0,0.0,0.0,0.0,0.0,0.0,0.0,0.0,0.0,-4.4285,-4.4285,-4.4285,-4.4285,-4.4285,-4.4285,-4.4285,-4.4285,-4.4285,-4.4285,-4.4285,-4.4285,-4.4285,-4.4409,-4.4409,-4.4409,-4.4347,-4.4347,-4.4409,-4.4347,-4.4347,-4.4409,-4.4347,-4.4285,-4.4285,-4.4285,-4.4285,-4.4285,-4.4285,-4.4285,-4.4285,-4.4285,-4.4347,-4.4409,-4.4347,-4.4347,-4.4409,-4.4347,-4.4285,-4.4285,-4.4285,-4.4285,-4.4285,-4.4285,-4.4285,-4.4285,-4.4285,-4.4285,-4.4285,-4.4285,-4.4582,-4.511,-4.6045,-4.6453,-4.6976,-4.7977,-4.889,-4.9462,-4.9462,-5.0559,-5.132,-5.132,-5.1609,-5.1787,-5.1787,-5.1787,-5.1787,-5.1787,-5.1787,-5.1787,-5.1787,-5.1787,-5.1841,-5.199,-5.199,-5.2207,-5.2623,-5.3328,-5.3904,-5.4304,-5.4911,-5.5194,0.0,0.0,0.0,0.0,0.0,0.0,0.0,0.0,0.0,0.0,0.0,0.0,0.0,0.0,0.0,0.0,0.0,0.0,0.0,0.0,0.0,0.0,0.0,0.0,0.0,0.0,0.0,0.0,0.0,0.0,-4.4285,-4.4285,-4.4285,-4.4285,-4.4285,-4.4285,-4.4285,-4.4285,-4.4285,-4.4285,-4.4285,-4.4285,-4.4285,-4.4656,-4.4779,-4.4779,-4.4409,-4.447,-4.4779,-4.4409,-4.447,-4.4717,-4.4409,-4.4285,-4.4285,-4.4285,-4.4285,-4.4285,-4.4285,-4.4285,-4.4285,-4.4285,-4.4532,-4.4717,-4.4409,-4.4532,-4.4717,-4.4409,-4.4285,-4.4285,-4.4285,-4.4285,-4.4285,-4.4285,-4.4285,-4.4285,-4.4285,-4.4285,-4.4285,-4.4285,-4.5281,-4.6105,-4.6165,-4.7213,-4.8035,-4.8094,-4.8152,-4.8197,-4.8197,-4.9234,-4.9971,-4.9971,-5.1086,-5.1787,-5.1787,-5.1787,-5.1787,-5.1787,-5.1787,-5.1787,-5.1787,-5.1787,-5.2045,-5.257,-5.257,-5.257,-5.2623,-5.3733,-5.4252,-5.4304,-5.4911,-5.5194,0.0,0.0,0.0,0.0,0.0,0.0,0.0,0.0,0.0,0.0,0.0,0.0,0.0,0.0,0.0,0.0,0.0,0.0,0.0,0.0,0.0,0.0,0.0,0.0,0.0,0.0,0.0,0.0,0.0,0.0,-4.4213,-4.306,-4.294,-4.4237,-4.4285,-4.4285,-4.4285,-4.4285,-4.4285,-4.4285,-4.4532,-4.4594,-4.4656,-4.4963,-4.5147,-4.5086,-4.5012,-4.5025,-4.5086,-4.4963,-4.5025,-4.5086,-4.4779,-4.4594,-4.4594,-4.4409,-4.4285,-4.4285,-4.4285,-4.4285,-4.4285,-4.4285,-4.4409,-4.447,-4.4347,-4.4532,-4.4779,-4.4656,-4.4594,-4.4594,-4.4594,-4.447,-4.4285,-4.4285,-4.4285,-4.4285,-4.4285,-4.4285,-4.4285,-4.4285,-4.4693,-4.4988,-4.4988,-4.5342,-4.5634,-4.5634,-4.6333,-4.6858,-4.6858,-4.7964,-4.8718,-4.8718,-4.9133,-4.9759,-5.0503,-5.0559,-5.0906,-5.1732,-5.1787,-5.195,-5.2315,-5.2315,-5.2584,-5.3184,-5.3524,-5.3666,-5.3666,-5.4082,-5.4524,-5.486,-5.5078,-5.5194,-2.8299,0.0,0.0,0.0,0.0,0.0,0.0,0.0,0.0,0.0,0.0,0.0,0.0,0.0,0.0,0.0,0.0,0.0,0.0,0.0,0.0,0.0,0.0,0.0,0.0,0.0,0.0,0.0,0.0,0.0,-4.4213,-4.3012,-4.2892,-4.4237,-4.4285,-4.4285,-4.4285,-4.4409,-4.447,-4.447,-4.484,-4.4963,-4.4963,-4.5331,-4.5453,-4.5453,-4.5574,-4.5574,-4.5453,-4.5331,-4.5392,-4.5453,-4.5086,-4.4902,-4.4779,-4.4532,-4.4409,-4.4285,-4.4285,-4.4285,-4.4285,-4.4285,-4.4409,-4.447,-4.4347,-4.4594,-4.4951,-4.484,-4.4902,-4.4963,-4.4963,-4.4717,-4.4409,-4.4347,-4.4285,-4.4285,-4.4285,-4.4285,-4.4285,-4.4285,-4.4285,-4.4285,-4.4285,-4.4285,-4.4285,-4.4285,-4.4988,-4.5573,-4.5573,-4.6692,-4.7449,-4.7449,-4.786,-4.8429,-4.9234,-4.9689,-5.0266,-5.1086,-5.1554,-5.195,-5.2315,-5.2315,-5.2584,-5.3184,-5.3748,-5.4097,-5.4304,-5.4524,-5.4794,-5.5194,-5.5194,-5.5194,0.0,0.0,0.0,0.0,0.0,0.0,0.0,0.0,0.0,0.0,0.0,0.0,0.0,0.0,0.0,0.0,0.0,0.0,0.0,0.0,0.0,0.0,0.0,0.0,0.0,0.0,0.0,0.0,0.0,-4.4225,-4.4285,-4.4285,-4.4285,-4.4285,-4.4285,-4.4285,-4.4285,-4.4656,-4.484,-4.484,-4.5147,-4.5331,-4.5331,-4.5635,-4.5817,-4.5817,-4.6193,-4.6132,-4.5757,-4.5453,-4.5514,-4.5757,-4.5453,-4.5147,-4.484,-4.484,-4.4594,-4.4285,-4.4285,-4.4285,-4.4285,-4.4285,-4.4532,-4.4717,-4.4409,-4.4779,-4.5208,-4.4902,-4.5025,-4.5331,-4.5331,-4.5025,-4.4717,-4.4409,-4.4285,-4.4285,-4.4285,-4.4285,-4.4285,-4.4285,-4.4285,-4.4285,-4.4285,-4.4285,-4.4285,-4.4285,-4.4285,-4.4285,-4.4285,-4.5403,-4.6165,-4.6165,-4.7272,-4.7977,-4.8035,-4.912,-4.9802,-4.9915,-5.1086,-5.1787,-5.1841,-5.1841,-5.2099,-5.2637,-5.3237,-5.3762,-5.4304,-5.4911,-5.5194,-5.5194,-5.5194,-5.5194,-2.6166,0.0,0.0,0.0,0.0,0.0,0.0,0.0,0.0,0.0,0.0,0.0,0.0,0.0,0.0,0.0,0.0,0.0,0.0,0.0,0.0,0.0,0.0,0.0,0.0,0.0,0.0,0.0,0.0,-4.2723,-4.4201,-4.4285,-4.4285,-4.4285,-4.4532,-4.4656,-4.4656,-4.5012,-4.5147,-4.5147,-4.5514,-4.5635,-4.5696,-4.5999,-4.6193,-4.6193,-4.6253,-4.6253,-4.6132,-4.6059,-4.6072,-4.6132,-4.5757,-4.5635,-4.5453,-4.4963,-4.4717,-4.4656,-4.4409,-4.4285,-4.4285,-4.4285,-4.4347,-4.4409,-4.4347,-4.4594,-4.4963,-4.5147,-4.5208,-4.5331,-4.5331,-4.5025,-4.4779,-4.4656,-4.447,-4.4285,-4.4285,-4.4285,-4.4285,-4.4285,-4.4285,-4.4285,-4.4285,-4.4285,-4.4285,-4.4285,-4.4285,-4.4285,-4.4285,-4.4644,-4.4816,-4.4816,-4.5172,-4.5695,-4.6632,-4.7036,-4.8009,-4.9802,-5.021,-5.1003,-5.2301,-5.2369,-5.2637,-5.3237,-5.38,-5.4149,-5.4304,-5.4911,-5.5194,-5.5194,-5.5194,-5.5194,-2.6374,-2.6339,-2.6258,0.0,0.0,0.0,0.0,0.0,0.0,0.0,0.0,0.0,0.0,0.0,0.0,0.0,0.0,0.0,0.0,0.0,0.0,0.0,0.0,0.0,0.0,0.0,0.0,0.0,-4.3204,-4.3048,-4.4225,-4.4409,-4.4532,-4.4532,-4.484,-4.5025,-4.5025,-4.5331,-4.5514,-4.5514,-4.5817,-4.5999,-4.6012,-4.6193,-4.6313,-4.6313,-4.6313,-4.6313,-4.6313,-4.6313,-4.6313,-4.6253,-4.6059,-4.5939,-4.5757,-4.5208,-4.4902,-4.4779,-4.4409,-4.4409,-4.4532,-4.4532,-4.4594,-4.4717,-4.4532,-4.4717,-4.5025,-4.527,-4.5514,-4.5696,-4.5574,-4.5392,-4.5147,-4.484,-4.4656,-4.447,-4.4347,-4.4285,-4.4285,-4.4285,-4.4285,-4.4285,-4.4285,-4.4285,-4.4285,-4.4285,-4.4285,-4.4285,-4.4285,-4.4285,-4.4285,-4.4285,-4.4285,-4.4582,-4.5342,-4.5864,-4.6798,-4.8242,-4.9335,-5.0364,-5.1443,-5.2179,-5.2798,-5.3131,-5.389,-5.4406,-5.4692,-5.5027,-5.5194,-5.5194,-5.5194,-5.5194,-2.6477,-2.6499,-2.6499,-2.643,0.0,0.0,-2.7078,-3.0196,-3.3247,0.0,0.0,0.0,0.0,0.0,0.0,0.0,0.0,0.0,0.0,0.0,0.0,0.0,0.0,0.0,0.0,0.0,0.0,-4.4285,-4.4285,-4.4285,-4.4285,-4.4594,-4.4779,-4.4779,-4.5147,-4.5331,-4.5331,-4.5696,-4.589,-4.5878,-4.6193,-4.6313,-4.6313,-4.6313,-4.6313,-4.6313,-4.6313,-4.6313,-4.6313,-4.6313,-4.6313,-4.6313,-4.6313,-4.6132,-4.5817,-4.5453,-4.5147,-4.484,-4.4532,-4.4594,-4.484,-4.484,-4.5086,-4.527,-4.4902,-4.5025,-4.5331,-4.5331,-4.5817,-4.624,-4.5939,-4.5817,-4.5635,-4.5025,-4.484,-4.4717,-4.4409,-4.4347,-4.4285,-4.4285,-4.4285,-4.4285,-4.4285,-4.4285,-4.4285,-4.4285,-4.4285,-4.4285,-4.4285,-4.4285,-4.4285,-4.4285,-4.4285,-4.4285,-4.4285,-4.5342,-4.6045,-4.6165,-4.8242,-4.9619,-4.9971,-5.1553,-5.2502,-5.2677,-5.3771,-5.4575,-5.5194,-5.5194,-5.5194,-5.5194,-5.5194,-5.5194,-2.6417,-2.6361,-2.6418,0.0,0.0,0.0,-2.5944,-2.6944,0.0,0.0,0.0,0.0,0.0,0.0,0.0,0.0,0.0,0.0,0.0,0.0,0.0,0.0,0.0,0.0,0.0,0.0,-4.4285,-4.4285,-4.4285,-4.4285,-4.4285,-4.4594,-4.4779,-4.4779,-4.5392,-4.5696,-4.5696,-4.5999,-4.6193,-4.6193,-4.6253,-4.6313,-4.6313,-4.6313,-4.6313,-4.6313,-4.6313,-4.6313,-4.6313,-4.6313,-4.6313,-4.6313,-4.6313,-4.6253,-4.6193,-4.5817,-4.5635,-4.5574,-4.5208,-4.5147,-4.5208,-4.5208,-4.527,-4.527,-4.4902,-4.5025,-4.5392,-4.5635,-4.5999,-4.6313,-4.6253,-4.5999,-4.5757,-4.5635,-4.5208,-4.4779,-4.4717,-4.447,-4.4285,-4.4285,-4.4285,-4.4285,-4.4285,-4.4285,-4.4285,-4.4285,-4.4285,-4.4285,-4.4285,-4.4285,-4.4285,-4.4285,-4.4285,-4.4285,-4.4285,-4.452,-4.511,-4.6165,-4.6679,-4.8068,-5.0518,-5.0975,-5.1825,-5.329,-5.3942,-5.4575,-5.5194,-5.5194,-5.5194,-5.5194,-5.5194,-5.5194,-2.6599,-2.643,0.0,-2.6258,0.0,0.0,0.0,-2.7348,0.0,0.0,0.0,0.0,0.0,0.0,0.0,0.0,0.0,0.0,0.0,0.0,0.0,0.0,0.0,0.0,0.0,0.0,-4.4285,-4.4285,-4.4285,-4.4285,-4.4285,-4.4779,-4.5025,-4.5025,-4.5696,-4.6059,-4.6059,-4.6193,-4.6313,-4.6313,-4.6313,-4.6042,-4.566,-4.566,-4.5438,-4.4985,-4.4985,-4.5266,-4.566,-4.566,-4.5882,-4.6313,-4.6313,-4.6313,-4.6253,-4.5939,-4.5817,-4.5757,-4.5392,-4.5392,-4.5574,-4.5574,-4.5635,-4.5757,-4.5392,-4.5392,-4.5574,-4.5757,-4.6072,-4.6313,-4.6313,-4.6193,-4.5999,-4.5817,-4.5514,-4.527,-4.5086,-4.4779,-4.4532,-4.4532,-4.4409,-4.4285,-4.4285,-4.4285,-4.4285,-4.4285,-4.4285,-4.4285,-4.4285,-4.4285,-4.4285,-4.4285,-4.4285,-4.4285,-4.4285,-4.4285,-4.4582,-4.522,-4.5864,-4.7023,-4.8948,-5.0421,-5.179,-5.3059,-5.3508,-5.3648,-5.3396,-5.3928,-5.4536,-5.5194,-5.5194,-5.5194,0.0,0.0,0.0,0.0,0.0,-2.6449,0.0,0.0,0.0,0.0,0.0,0.0,0.0,0.0,0.0,0.0,0.0,0.0,0.0,0.0,0.0,0.0,0.0,0.0,0.0,0.0,-4.354,-4.3949,-4.4046,-4.4108,-4.4108,-4.4707,-4.5084,-4.5084,-4.5687,-4.5987,-4.5987,-4.5987,-4.5987,-4.5987,-4.5927,-4.5522,-4.4848,-4.4789,-4.441,-4.3801,-4.3801,-4.4237,-4.4908,-4.502,-4.551,-4.6163,-4.6276,-4.6313,-4.6253,-4.5999,-4.5878,-4.5878,-4.5574,-4.5696,-4.5878,-4.5878,-4.6072,-4.6193,-4.5939,-4.5817,-4.5817,-4.5878,-4.6072,-4.6313,-4.6313,-4.6313,-4.624,-4.5939,-4.5817,-4.5757,-4.5453,-4.5086,-4.4779,-4.4779,-4.4532,-4.4285,-4.4285,-4.4285,-4.4285,-4.4285,-4.4285,-4.4285,-4.4285,-4.4285,-4.4285,-4.4285,-4.4285,-4.4285,-4.4285,-4.4285,-4.4347,-4.4458,-4.5365,-4.6301,-4.732,-4.9897,-5.1524,-5.2075,-5.2408,-5.2244,-5.1628,-5.2457,-5.353,-5.4805,-5.4805,-5.4805,0.0,0.0,0.0,0.0,-2.7074,0.0,0.0,0.0,0.0,0.0,0.0,0.0,0.0,0.0,0.0,0.0,0.0,0.0,0.0,0.0,0.0,0.0,0.0,0.0,0.0,0.0,0.0,-4.2796,-4.3179,-4.3299,-4.3299,-4.3952,-4.4318,-4.4318,-4.4644,-4.4819,-4.4819,-4.4819,-4.4819,-4.4819,-4.454,-4.441,-4.4277,-4.3959,-4.398,-4.4119,-4.4119,-4.4332,-4.4711,-4.5212,-4.5522,-4.5635,-4.6125,-4.6313,-4.6313,-4.6253,-4.6253,-4.6253,-4.6193,-4.6193,-4.6253,-4.6253,-4.6072,-4.589,-4.6193,-4.6072,-4.5878,-4.6193,-4.6253,-4.6313,-4.6313,-4.6313,-4.6313,-4.6253,-4.6012,-4.5757,-4.5757,-4.527,-4.4779,-4.4779,-4.4532,-4.4285,-4.4285,-4.4285,-4.4285,-4.4285,-4.4285,-4.4285,-4.4285,-4.4285,-4.4285,-4.4285,-4.4285,-4.4285,-4.4285,-4.4285,-4.4582,-4.5172,-4.4839,-4.559,-4.7867,-4.9402,-5.0241,-5.0275,-5.0361,-5.0798,-5.1628,-5.1728,-5.2367,-5.3414,-5.3414,-5.3414,0.0,0.0,0.0,0.0,0.0,0.0,-2.9621,0.0,-2.7,0.0,0.0,0.0,0.0,0.0,0.0,0.0,0.0,0.0,0.0,0.0,0.0,0.0,0.0,0.0,0.0,0.0,0.0,0.0,0.0,-4.1363,-4.1363,-4.3136,-4.419,-4.419,-4.4457,-4.4618,-4.4618,-4.4618,-4.4618,-4.4618,-4.4515,-4.4191,-4.3718,-4.359,-4.3358,-4.2959,-4.2959,-4.3305,-4.3974,-4.4477,-4.5019,-4.5547,-4.61,-4.6313,-4.6313,-4.6313,-4.6313,-4.6313,-4.6313,-4.6313,-4.6313,-4.6313,-4.6193,-4.6132,-4.6253,-4.6193,-4.612,-4.6253,-4.6313,-4.6313,-4.6313,-4.6313,-4.6313,-4.6313,-4.6193,-4.6072,-4.6072,-4.5696,-4.5331,-4.5147,-4.484,-4.4532,-4.4347,-4.4285,-4.4285,-4.4285,-4.4285,-4.4285,-4.4285,-4.4285,-4.4285,-4.4285,-4.4285,-4.4285,-4.4285,-4.4285,-4.4449,-4.4779,-4.4951,-4.5834,-4.7551,-4.8083,-4.8422,-4.8475,-4.8742,-4.9073,-4.953,-5.0161,-5.0979,-5.2067,-5.283,-5.3174,-3.352,0.0,0.0,0.0,0.0,0.0,0.0,0.0,0.0,0.0,0.0,0.0,0.0,0.0,-2.5923,-2.6263,0.0,0.0,0.0,0.0,0.0,0.0,0.0,0.0,0.0,0.0,0.0,0.0,-3.9036,0.0,-3.9465,-4.2282,-4.3846,-4.3846,-4.4064,-4.4166,-4.4166,-4.4166,-4.4166,-4.4166,-4.4064,-4.3737,-4.3146,-4.3089,-4.2765,-4.2211,-4.2211,-4.2604,-4.3355,-4.3846,-4.4582,-4.5309,-4.5861,-4.6175,-4.6313,-4.6313,-4.6313,-4.6313,-4.6313,-4.6313,-4.6313,-4.6313,-4.6313,-4.6313,-4.6313,-4.6313,-4.6313,-4.6313,-4.6313,-4.6313,-4.6313,-4.6313,-4.6313,-4.6313,-4.6313,-4.6313,-4.6313,-4.6072,-4.5757,-4.5514,-4.5086,-4.4717,-4.447,-4.4347,-4.4285,-4.4285,-4.4285,-4.4285,-4.4285,-4.4285,-4.4285,-4.4285,-4.4285,-4.4285,-4.4285,-4.4285,-4.4353,-4.4417,-4.5284,-4.5996,-4.6575,-4.6557,-4.6545,-4.6652,-4.6931,-4.7266,-4.7573,-4.8346,-4.9415,-5.079,-5.2043,-5.2636,0.0,0.0,0.0,-3.3891,0.0,0.0,0.0,0.0,-2.7717,0.0,0.0,0.0,0.0,-2.6614,-2.6311,-2.613,-2.6299,0.0,0.0,0.0,0.0,0.0,0.0,0.0,0.0,0.0,0.0,0.0,-3.6869,0.0,-3.8179,-4.1259,-4.3037,-4.3037,-4.3037,-4.3024,-4.3024,-4.3024,-4.3024,-4.3037,-4.2744,-4.2562,-4.2494,-4.2236,-4.228,-4.2469,-4.2469,-4.2706,-4.3049,-4.3601,-4.4154,-4.4706,-4.5284,-4.5836,-4.6313,-4.6313,-4.6313,-4.6313,-4.6313,-4.6313,-4.6313,-4.6313,-4.6313,-4.6313,-4.6313,-4.6313,-4.6313,-4.6313,-4.6313,-4.6313,-4.6313,-4.6313,-4.6313,-4.6313,-4.6313,-4.6313,-4.6313,-4.6072,-4.5817,-4.5757,-4.527,-4.4779,-4.4779,-4.4532,-4.4285,-4.4285,-4.4285,-4.4285,-4.4285,-4.4285,-4.4285,-4.4285,-4.4285,-4.4285,-4.4285,-4.4285,-4.4366,-4.4507,-4.5724,-4.5963,-4.4826,-4.4761,-4.4748,-4.4802,-4.4789,-4.5342,-4.6426,-4.6478,-4.7587,-4.9674,-5.0757,-5.1274,0.0,0.0,-4.0528,-3.9409,0.0,0.0,0.0,0.0,0.0,0.0,0.0,0.0,0.0,-2.7606,-2.714,-2.7201,-2.7054,-2.6931,0.0,0.0,0.0,0.0,0.0,0.0,0.0,0.0,0.0,-3.1821,-3.293,-3.353,0.0,-3.7804,-4.0314,-4.0314,-4.2032,-4.2974,-4.2974,-4.2974,-4.2974,-4.2974,-4.2862,-4.2806,-4.2806,-4.2762,-4.2762,-4.2806,-4.2806,-4.2918,-4.3024,-4.3576,-4.4129,-4.4681,-4.5259,-4.5824,-4.6313,-4.6313,-4.6313,-4.6313,-4.6313,-4.6313,-4.6313,-4.6313,-4.6313,-4.6313,-4.6313,-4.6313,-4.6313,-4.6313,-4.6313,-4.6313,-4.6313,-4.6313,-4.6313,-4.6313,-4.6313,-4.6313,-4.6313,-4.6193,-4.6072,-4.5817,-4.5635,-4.5331,-4.4902,-4.4717,-4.4532,-4.4347,-4.4285,-4.4285,-4.4285,-4.4285,-4.4285,-4.4285,-4.4285,-4.4285,-4.4285,-4.4317,-4.4545,-4.5066,-4.517,-4.527,-4.5281,-4.489,-4.4668,-4.4668,-4.4668,-4.5595,-4.7471,-4.7471,-4.8546,-5.068,-5.1026,-5.1214,-4.315,-4.3639,0.0,-4.2451,-4.0867,0.0,-3.8228,0.0,0.0,0.0,0.0,0.0,0.0,-3.0146,-2.9386,-2.8448,-2.7804,-2.7299,0.0,-2.6576,0.0,0.0,0.0,0.0,0.0,0.0,-2.8764,-2.9165,-3.0429,-3.1071,0.0,0.0,-3.8919,-3.8919,-4.1543,-4.2974,-4.2974,-4.2974,-4.2974,-4.2974,-4.2974,-4.2974,-4.2974,-4.2974,-4.2974,-4.2974,-4.2974,-4.2974,-4.2999,-4.3363,-4.3953,-4.4656,-4.5033,-4.5648,-4.6313,-4.6313,-4.6313,-4.6313,-4.6313,-4.6313,-4.6313,-4.6313,-4.6313,-4.6313,-4.6313,-4.6313,-4.6313,-4.6313,-4.6313,-4.6313,-4.6313,-4.6313,-4.6313,-4.6313,-4.6313,-4.6313,-4.6313,-4.6313,-4.6253,-4.5999,-4.5878,-4.5635,-4.5208,-4.5086,-4.484,-4.4347,-4.4285,-4.4285,-4.4285,-4.4285,-4.4285,-4.4285,-4.4105,-4.4108,-4.4353,-4.4803,-4.5291,-4.5696,-4.5457,-4.5374,-4.5581,-4.4994,-4.463,-4.4434,-4.4617,-4.5289,-4.6538,-4.7118,-4.8332,-5.0047,-5.046,-5.0822]}]]